[[{"header":{"parameterUnit":"m.s-1","parameterCategory":1,"la1":30.6,"la2":29.2853,"lo1":-89.7004,"lo2":-87.6739,"dy":0.0162,"dx":0.0183,"nx":112,"ny":82,"refTime":"2023-10-09T18:00:00:Z","depth":0,"parameterNumber":2,"parameterNumberName":"U-component_of_WINDS"},"data":[0.0,0.0,0.0,0.0,0.0,0.0,0.0,0.0,0.0,0.0,0.0,0.0,0.0,0.0,0.0,0.0,0.0,0.0,0.0,0.0,0.0,0.0,0.0,0.0,0.0,0.0,0.0,0.0,0.0,0.0,0.0,0.0,0.0,0.0,0.0,0.0,0.0,0.0,0.0,0.0,0.0,0.0,0.0,0.0,0.0,0.0,0.0,0.0,0.0,0.0,0.0,0.0,0.0,0.0,0.0,0.0,0.0,0.0,0.0,0.0,0.0,0.0,0.0,0.0,0.0,0.0,0.0,0.0,0.0,0.0,0.0,0.0,0.0,0.0,0.0,0.0,0.0,0.0,0.0,0.0,0.0,0.0,0.0,0.0,0.0,0.0,0.0,0.0,0.0,0.0,5.118,5.2611,5.5026,5.5944,5.435,5.393,5.1469,4.6249,0.0,0.0,0.0,0.0,0.0,0.0,0.0,0.0,0.0,0.0,0.0,0.0,0.0,0.0,0.0,0.0,0.0,0.0,0.0,0.0,0.0,0.0,0.0,0.0,0.0,0.0,0.0,0.0,0.0,0.0,0.0,0.0,0.0,0.0,0.0,0.0,0.0,0.0,0.0,0.0,0.0,0.0,0.0,0.0,0.0,0.0,0.0,0.0,0.0,0.0,0.0,0.0,0.0,0.0,0.0,0.0,0.0,0.0,0.0,0.0,0.0,0.0,0.0,0.0,0.0,0.0,0.0,0.0,0.0,0.0,0.0,0.0,0.0,0.0,0.0,0.0,0.0,0.0,0.0,0.0,0.0,0.0,0.0,0.0,0.0,0.0,0.0,0.0,0.0,0.0,0.0,0.0,0.0,0.0,0.0,0.0,0.0,0.0,0.0,0.0,0.0,0.0,0.0,0.0,5.1082,5.6061,5.628,5.6011,5.5786,5.3838,5.0896,4.682,0.0,0.0,0.0,0.0,0.0,0.0,0.0,0.0,0.0,0.0,0.0,0.0,0.0,0.0,0.0,0.0,0.0,0.0,0.0,0.0,0.0,0.0,0.0,0.0,0.0,0.0,0.0,0.0,0.0,0.0,0.0,0.0,0.0,0.0,0.0,0.0,0.0,0.0,0.0,0.0,0.0,0.0,0.0,0.0,0.0,0.0,0.0,0.0,0.0,0.0,0.0,0.0,0.0,0.0,0.0,0.0,0.0,0.0,0.0,0.0,0.0,0.0,0.0,0.0,0.0,0.0,0.0,0.0,0.0,0.0,0.0,0.0,0.0,0.0,0.0,0.0,0.0,0.0,0.0,0.0,0.0,0.0,0.0,0.0,0.0,0.0,0.0,0.0,0.0,0.0,0.0,0.0,0.0,0.0,0.0,0.0,0.0,0.0,0.0,0.0,0.0,0.0,0.0,5.0677,5.322,5.7791,5.7915,5.7296,5.6549,5.4699,5.1833,4.7805,4.5456,0.0,0.0,0.0,0.0,0.0,0.0,0.0,0.0,0.0,0.0,0.0,0.0,0.0,0.0,0.0,0.0,0.0,0.0,0.0,0.0,0.0,0.0,0.0,0.0,0.0,0.0,0.0,0.0,0.0,0.0,0.0,0.0,0.0,0.0,0.0,0.0,0.0,0.0,0.0,0.0,0.0,0.0,0.0,0.0,0.0,0.0,0.0,0.0,0.0,0.0,0.0,0.0,0.0,0.0,0.0,0.0,0.0,0.0,0.0,0.0,0.0,0.0,0.0,0.0,0.0,0.0,0.0,0.0,0.0,0.0,0.0,0.0,0.0,0.0,0.0,0.0,0.0,0.0,0.0,0.0,0.0,0.0,0.0,0.0,0.0,0.0,0.0,0.0,0.0,0.0,0.0,0.0,0.0,0.0,0.0,0.0,0.0,0.0,0.0,0.0,0.0,0.0,5.4209,5.6023,5.887,5.8991,5.8318,5.7088,5.5213,5.2387,4.8461,4.588,0.0,0.0,0.0,0.0,0.0,0.0,0.0,0.0,0.0,0.0,0.0,0.0,0.0,0.0,0.0,0.0,0.0,0.0,0.0,0.0,0.0,0.0,0.0,0.0,0.0,0.0,0.0,0.0,0.0,0.0,0.0,0.0,0.0,0.0,0.0,0.0,0.0,0.0,0.0,0.0,0.0,0.0,0.0,0.0,0.0,0.0,0.0,0.0,0.0,0.0,0.0,0.0,0.0,0.0,0.0,0.0,0.0,0.0,0.0,0.0,0.0,0.0,0.0,0.0,0.0,0.0,0.0,0.0,0.0,0.0,0.0,0.0,0.0,0.0,0.0,0.0,0.0,0.0,0.0,0.0,0.0,0.0,0.0,0.0,0.0,0.0,0.0,0.0,0.0,0.0,0.0,0.0,0.0,0.0,0.0,0.0,0.0,0.0,0.0,0.0,0.0,0.0,5.5702,5.8893,5.9582,5.8865,5.8098,5.7604,5.4561,5.1371,4.8361,4.5794,0.0,0.0,0.0,0.0,0.0,0.0,0.0,0.0,0.0,0.0,0.0,0.0,0.0,0.0,0.0,0.0,0.0,0.0,0.0,0.0,0.0,0.0,0.0,0.0,0.0,0.0,0.0,0.0,0.0,0.0,0.0,0.0,0.0,0.0,0.0,0.0,0.0,0.0,0.0,0.0,0.0,0.0,0.0,0.0,0.0,0.0,0.0,0.0,0.0,0.0,0.0,0.0,0.0,0.0,0.0,0.0,0.0,0.0,0.0,0.0,0.0,0.0,0.0,0.0,0.0,0.0,0.0,0.0,0.0,0.0,0.0,0.0,0.0,0.0,0.0,0.0,0.0,0.0,0.0,0.0,0.0,0.0,0.0,0.0,0.0,0.0,0.0,0.0,0.0,0.0,0.0,0.0,0.0,0.0,0.0,0.0,0.0,0.0,0.0,0.0,0.0,0.0,5.6069,5.871,0.0,6.009,5.9114,5.7671,5.5573,5.2702,4.8899,0.0,0.0,0.0,0.0,0.0,0.0,0.0,0.0,0.0,0.0,0.0,0.0,0.0,0.0,0.0,0.0,0.0,0.0,0.0,0.0,0.0,0.0,0.0,0.0,0.0,0.0,0.0,0.0,0.0,0.0,0.0,0.0,0.0,0.0,0.0,0.0,0.0,0.0,0.0,0.0,0.0,0.0,0.0,0.0,0.0,0.0,0.0,0.0,0.0,0.0,0.0,0.0,0.0,0.0,0.0,0.0,0.0,0.0,0.0,0.0,0.0,0.0,0.0,0.0,0.0,0.0,0.0,0.0,0.0,0.0,0.0,0.0,0.0,0.0,0.0,0.0,0.0,0.0,0.0,0.0,0.0,0.0,0.0,0.0,0.0,0.0,0.0,0.0,0.0,0.0,0.0,0.0,0.0,0.0,0.0,0.0,0.0,0.0,0.0,0.0,0.0,0.0,5.3934,5.6896,5.9398,0.0,6.0914,5.9818,5.8142,5.6284,5.3424,4.9424,0.0,0.0,0.0,0.0,0.0,0.0,0.0,0.0,0.0,0.0,0.0,0.0,0.0,0.0,0.0,0.0,0.0,0.0,0.0,0.0,0.0,0.0,0.0,0.0,0.0,0.0,0.0,0.0,0.0,0.0,0.0,0.0,0.0,0.0,0.0,0.0,0.0,0.0,0.0,0.0,0.0,0.0,0.0,0.0,0.0,0.0,0.0,0.0,0.0,0.0,0.0,0.0,0.0,0.0,0.0,0.0,0.0,0.0,0.0,0.0,0.0,0.0,0.0,0.0,0.0,0.0,0.0,0.0,0.0,0.0,0.0,0.0,0.0,0.0,0.0,0.0,0.0,0.0,0.0,0.0,0.0,0.0,0.0,0.0,0.0,0.0,0.0,0.0,0.0,0.0,0.0,0.0,0.0,0.0,0.0,0.0,0.0,0.0,0.0,0.0,0.0,0.0,5.4186,5.8434,6.1442,6.1947,6.1071,6.0109,5.9107,5.6398,5.3241,0.0,0.0,0.0,0.0,0.0,0.0,0.0,0.0,0.0,0.0,0.0,0.0,0.0,0.0,0.0,0.0,0.0,0.0,0.0,0.0,0.0,0.0,0.0,0.0,0.0,0.0,0.0,0.0,0.0,0.0,0.0,0.0,0.0,0.0,0.0,0.0,0.0,0.0,0.0,0.0,0.0,0.0,0.0,0.0,0.0,0.0,0.0,0.0,0.0,0.0,0.0,0.0,0.0,0.0,0.0,0.0,0.0,0.0,0.0,0.0,0.0,0.0,0.0,0.0,0.0,0.0,0.0,0.0,0.0,0.0,0.0,0.0,0.0,0.0,0.0,0.0,0.0,0.0,0.0,0.0,0.0,0.0,0.0,0.0,0.0,0.0,0.0,0.0,0.0,0.0,0.0,0.0,0.0,0.0,0.0,0.0,0.0,0.0,0.0,0.0,0.0,0.0,0.0,5.5702,5.9697,6.2173,6.2028,6.1408,6.04,5.8622,5.6442,5.3571,4.9825,0.0,0.0,0.0,0.0,0.0,0.0,0.0,0.0,0.0,0.0,0.0,0.0,0.0,0.0,0.0,0.0,0.0,0.0,0.0,0.0,0.0,0.0,0.0,0.0,0.0,0.0,0.0,0.0,0.0,0.0,0.0,0.0,0.0,0.0,0.0,0.0,0.0,0.0,0.0,0.0,0.0,0.0,0.0,0.0,0.0,0.0,0.0,0.0,0.0,0.0,0.0,0.0,0.0,0.0,0.0,0.0,0.0,0.0,0.0,0.0,0.0,0.0,0.0,0.0,0.0,0.0,0.0,0.0,0.0,0.0,0.0,0.0,0.0,0.0,0.0,0.0,0.0,0.0,0.0,0.0,0.0,0.0,0.0,0.0,0.0,0.0,0.0,0.0,0.0,0.0,0.0,0.0,0.0,0.0,0.0,0.0,0.0,0.0,0.0,0.0,0.0,0.0,5.6322,6.0064,6.2402,6.2316,6.1836,6.0826,5.9013,5.7238,5.4608,5.0699,0.0,0.0,0.0,0.0,0.0,0.0,0.0,0.0,0.0,0.0,0.0,0.0,0.0,0.0,0.0,0.0,0.0,0.0,0.0,0.0,0.0,0.0,0.0,0.0,0.0,0.0,0.0,0.0,0.0,0.0,0.0,0.0,0.0,0.0,0.0,0.0,0.0,0.0,0.0,0.0,0.0,0.0,0.0,0.0,0.0,0.0,0.0,0.0,0.0,0.0,0.0,0.0,0.0,0.0,0.0,0.0,0.0,0.0,0.0,0.0,0.0,0.0,0.0,0.0,0.0,0.0,0.0,0.0,0.0,0.0,0.0,0.0,0.0,0.0,0.0,0.0,0.0,0.0,0.0,0.0,0.0,0.0,0.0,0.0,0.0,0.0,0.0,0.0,0.0,0.0,0.0,0.0,0.0,0.0,0.0,0.0,0.0,0.0,0.0,0.0,0.0,0.0,5.6352,5.9882,6.2262,6.2647,6.2189,6.1289,5.9732,5.8225,5.5775,5.2056,0.0,0.0,0.0,0.0,0.0,0.0,0.0,0.0,0.0,0.0,0.0,0.0,0.0,0.0,0.0,0.0,0.0,0.0,0.0,0.0,0.0,0.0,0.0,0.0,0.0,0.0,0.0,0.0,0.0,0.0,0.0,0.0,0.0,0.0,0.0,0.0,0.0,0.0,0.0,0.0,0.0,0.0,0.0,0.0,0.0,0.0,0.0,0.0,0.0,0.0,0.0,0.0,0.0,0.0,0.0,0.0,0.0,0.0,0.0,0.0,4.4532,4.1959,0.0,0.0,0.0,0.0,0.0,0.0,0.0,0.0,0.0,0.0,0.0,0.0,0.0,0.0,0.0,0.0,0.0,0.0,0.0,0.0,0.0,0.0,0.0,0.0,0.0,0.0,0.0,0.0,0.0,0.0,0.0,0.0,0.0,0.0,0.0,0.0,0.0,0.0,0.0,0.0,5.6497,6.0473,6.3026,6.2655,6.153,6.0339,5.9181,5.6997,5.4615,5.198,4.9502,0.0,0.0,0.0,0.0,0.0,0.0,0.0,0.0,0.0,0.0,0.0,0.0,0.0,0.0,0.0,0.0,0.0,0.0,0.0,0.0,0.0,0.0,0.0,0.0,0.0,0.0,0.0,0.0,0.0,0.0,0.0,0.0,0.0,0.0,0.0,0.0,0.0,0.0,0.0,0.0,0.0,0.0,0.0,0.0,0.0,0.0,0.0,0.0,0.0,0.0,0.0,0.0,0.0,0.0,0.0,0.0,0.0,0.0,0.0,4.9155,4.7051,0.0,0.0,0.0,0.0,0.0,0.0,0.0,0.0,0.0,0.0,0.0,0.0,0.0,0.0,0.0,0.0,0.0,0.0,0.0,0.0,0.0,0.0,0.0,0.0,0.0,0.0,0.0,0.0,0.0,0.0,0.0,0.0,0.0,0.0,0.0,0.0,0.0,0.0,0.0,0.0,5.7156,6.0728,6.2771,6.2294,6.1381,6.0234,5.8997,5.7262,5.5442,5.3247,5.1314,0.0,0.0,0.0,0.0,0.0,0.0,0.0,0.0,0.0,0.0,0.0,0.0,0.0,0.0,0.0,0.0,0.0,0.0,0.0,0.0,0.0,0.0,0.0,0.0,0.0,0.0,0.0,0.0,0.0,0.0,0.0,0.0,0.0,0.0,0.0,0.0,0.0,0.0,0.0,0.0,0.0,0.0,0.0,0.0,0.0,0.0,0.0,0.0,0.0,0.0,0.0,0.0,0.0,5.2619,5.3344,5.3364,5.5145,5.6166,5.6379,5.4599,5.3451,5.2664,5.0345,0.0,0.0,0.0,0.0,0.0,0.0,0.0,0.0,0.0,0.0,0.0,0.0,0.0,0.0,0.0,0.0,0.0,0.0,0.0,0.0,0.0,0.0,0.0,0.0,5.5068,5.5564,5.1775,0.0,0.0,0.0,0.0,0.0,0.0,0.0,0.0,0.0,0.0,0.0,5.787,6.074,6.2448,6.1935,6.1364,6.0303,5.879,5.783,5.6602,5.4739,5.3294,5.1429,0.0,0.0,0.0,0.0,0.0,0.0,0.0,0.0,0.0,0.0,0.0,0.0,0.0,0.0,0.0,0.0,0.0,0.0,0.0,0.0,0.0,0.0,0.0,0.0,0.0,0.0,0.0,0.0,0.0,0.0,0.0,0.0,3.9063,4.0719,0.0,0.0,0.0,0.0,0.0,0.0,0.0,0.0,0.0,0.0,0.0,0.0,0.0,5.1443,5.2538,5.456,5.5807,5.6262,5.8457,5.9512,5.9616,6.0756,6.1336,6.1357,6.1641,0.0,5.4237,5.2684,0.0,0.0,0.0,0.0,0.0,0.0,0.0,0.0,0.0,0.0,0.0,0.0,0.0,0.0,0.0,0.0,0.0,0.0,0.0,0.0,0.0,0.0,5.8736,5.8815,5.9016,5.9054,0.0,5.4623,5.0872,4.9589,4.8373,0.0,0.0,0.0,0.0,0.0,0.0,0.0,5.7946,6.0789,6.2458,6.2449,6.114,5.9621,5.8258,5.763,5.6479,5.4652,5.3634,5.2595,5.1384,4.8937,0.0,0.0,0.0,0.0,0.0,0.0,0.0,0.0,0.0,0.0,0.0,0.0,0.0,0.0,0.0,0.0,0.0,0.0,0.0,0.0,0.0,0.0,0.0,0.0,0.0,0.0,0.0,0.0,0.0,3.8739,4.1684,4.3055,4.2799,4.215,0.0,0.0,0.0,0.0,0.0,0.0,0.0,0.0,0.0,5.4683,5.5832,5.6956,5.8109,5.9636,6.0361,6.032,6.1851,6.2576,6.2685,6.3447,6.3773,6.3839,6.4272,6.2638,5.9561,5.6919,5.4807,5.3241,0.0,0.0,0.0,0.0,5.2384,5.2503,5.5382,5.6023,5.5454,5.5155,0.0,0.0,0.0,0.0,0.0,0.0,0.0,5.4673,5.6159,5.8108,5.9886,6.0499,6.0744,6.086,6.057,5.8399,5.5859,0.0,5.2183,5.0555,4.8678,0.0,0.0,0.0,0.0,5.6936,5.9138,6.1208,6.2244,6.1612,6.0714,5.9672,5.8489,5.7673,5.6647,5.5393,5.4629,5.3888,5.2992,5.0778,4.8523,0.0,0.0,0.0,0.0,0.0,0.0,0.0,0.0,0.0,0.0,0.0,0.0,0.0,0.0,0.0,0.0,0.0,0.0,0.0,0.0,0.0,0.0,0.0,0.0,0.0,0.0,0.0,0.0,4.2144,4.4473,4.5566,4.6203,4.5852,0.0,0.0,0.0,0.0,0.0,0.0,5.4114,5.5663,5.7475,5.9587,6.0748,6.1872,6.2907,6.3673,6.3859,6.3362,6.419,6.4563,6.4676,6.5147,6.542,6.5252,6.5555,6.509,6.3886,6.0712,5.8773,5.7533,5.5578,5.4959,5.5265,5.6443,5.6573,5.6497,5.9542,6.0225,5.9612,5.9135,5.8318,5.7224,5.5082,0.0,0.0,0.0,0.0,5.7359,5.9222,6.0318,6.1064,6.1583,6.1902,6.1986,6.1711,6.1046,5.9768,0.0,5.6072,5.4333,5.1707,0.0,0.0,0.0,5.5903,5.8351,6.0066,6.1495,6.184,6.0886,6.028,5.9469,5.8477,5.7698,5.6878,5.5942,5.5467,5.4858,5.3944,5.232,5.0529,4.8345,0.0,0.0,0.0,0.0,0.0,0.0,0.0,0.0,0.0,0.0,0.0,0.0,0.0,0.0,0.0,0.0,0.0,0.0,0.0,0.0,0.0,0.0,0.0,0.0,0.0,0.0,0.0,0.0,0.0,4.9108,5.0978,0.0,0.0,0.0,0.0,5.166,5.2697,5.4832,5.8445,5.9196,6.1032,6.4223,6.4915,6.5163,6.5225,6.5722,6.5743,6.5288,6.5784,6.5991,6.5991,6.6681,6.668,6.6197,6.643,6.591,6.4912,6.3071,6.1773,6.0747,5.9742,5.9329,5.9312,5.9473,6.0022,6.078,6.0982,6.139,6.163,6.1104,5.9627,5.7927,5.7376,5.6868,0.0,0.0,5.9143,6.0593,6.2089,6.3265,6.39,6.3349,6.2893,6.2608,6.2624,6.1552,6.0301,0.0,5.9068,5.8143,5.6642,0.0,5.5953,5.6491,5.7514,5.8765,6.0088,6.1067,6.1405,6.0886,5.9969,5.8933,5.8043,5.7939,5.7224,5.59,5.574,5.5318,5.4338,5.3334,5.1437,4.8494,4.7494,0.0,0.0,0.0,0.0,0.0,0.0,0.0,0.0,0.0,0.0,0.0,0.0,0.0,0.0,0.0,0.0,0.0,0.0,0.0,0.0,0.0,0.0,0.0,0.0,0.0,0.0,0.0,0.0,5.2649,5.4388,0.0,5.3548,5.5165,5.6636,5.7523,5.978,6.1936,6.3937,6.445,6.5316,6.6488,6.6944,6.7047,6.6737,6.7482,6.7482,6.6737,6.6923,6.6985,6.6985,6.6928,6.6961,6.7044,6.6847,6.6402,6.584,6.532,6.438,6.3163,6.2232,6.206,6.2411,6.2411,6.2724,6.3013,6.3013,6.31,6.3219,6.2709,6.2129,6.1527,6.171,6.1604,6.1722,6.3112,6.3174,6.32,6.4693,6.4617,6.4047,6.3868,6.3423,6.3079,6.3169,6.2279,6.1312,6.117,6.0225,5.8968,5.7468,5.7846,5.8335,5.8241,5.9256,6.0338,6.1024,6.1108,6.0907,6.0281,5.9678,5.9036,5.8415,5.7779,5.6798,5.5413,5.5036,5.4416,5.3495,5.2864,5.1678,5.0,4.9422,4.7259,0.0,0.0,0.0,0.0,0.0,0.0,0.0,0.0,0.0,0.0,0.0,0.0,0.0,0.0,0.0,0.0,0.0,0.0,0.0,0.0,0.0,0.0,0.0,0.0,0.0,5.1055,5.3872,5.5195,5.736,5.8236,5.7223,5.9438,6.1175,6.1785,6.4243,6.6009,6.6881,6.7576,6.7927,6.8165,6.862,6.862,6.8165,6.891,6.891,6.8165,6.8165,6.8165,6.8165,6.7854,6.7792,6.7916,6.7619,6.7109,6.6744,6.6668,6.6085,6.5234,6.4574,6.4674,6.5203,6.505,6.4997,6.5024,6.4848,6.4658,6.4478,6.3989,6.3834,6.3856,6.4236,6.4604,6.5085,6.6066,6.5739,6.5254,6.5956,6.538,6.4517,6.4185,6.3689,6.328,6.2934,6.2591,6.2206,6.1776,6.1193,6.026,5.8729,5.9523,6.0048,5.9258,6.0161,6.0917,6.0896,6.08,6.0532,5.9865,5.9347,5.8871,5.8415,5.7043,5.5865,5.5155,5.4174,5.3241,5.2531,5.202,5.1253,5.0289,4.9648,4.8021,4.5343,0.0,0.0,0.0,0.0,0.0,0.0,0.0,0.0,0.0,0.0,0.0,0.0,0.0,0.0,0.0,0.0,0.0,0.0,0.0,0.0,0.0,0.0,0.0,5.1229,5.3994,5.6269,5.6719,5.9955,6.1712,6.0401,6.2823,6.4456,6.4456,6.5706,6.6712,6.7251,6.823,6.8944,6.949,6.9986,6.9986,6.9593,6.9986,6.9986,6.9552,6.949,6.949,6.949,6.949,6.9241,6.8848,6.8413,6.7937,6.7482,6.7047,6.6919,6.7046,6.6797,6.7123,6.7584,6.7125,6.6928,6.6841,6.636,6.5858,6.5377,6.494,6.4788,6.4805,6.4886,6.5497,6.6348,6.6277,6.6664,6.6783,6.5794,6.5453,6.5188,6.4362,6.3711,6.3112,6.2085,6.2725,6.2901,6.1435,6.1952,6.215,6.0554,6.1022,6.1222,5.9719,6.0357,0.0,5.9523,6.0236,6.0406,5.943,5.8871,5.8394,5.7939,5.577,5.4626,5.4904,5.3334,5.2072,5.1426,5.1122,5.0368,4.9057,4.8106,4.7658,4.7588,0.0,0.0,0.0,0.0,0.0,0.0,0.0,0.0,0.0,0.0,0.0,0.0,0.0,0.0,0.0,0.0,0.0,0.0,0.0,0.0,0.0,5.3421,5.6117,5.5149,5.7664,6.0168,6.1276,6.3316,6.4443,6.432,6.6328,6.7606,6.7606,6.9189,7.0093,6.9886,7.0402,7.0567,6.9986,7.0752,7.0939,7.0504,7.0628,7.0794,7.1001,6.9986,6.9676,6.9986,6.9635,6.9428,6.9303,6.9179,6.8869,6.8413,6.7979,6.7856,6.7939,6.7647,6.7707,6.7921,6.7887,6.7496,6.6776,6.6299,6.6038,6.6011,6.6229,6.6076,6.5814,6.6268,6.6268,6.6265,6.6663,6.6093,6.5509,6.5917,6.5244,6.434,6.4077,6.3908,6.3608,6.3047,6.2827,6.2595,6.1706,6.2031,6.2118,6.0972,6.1035,6.1029,6.057,6.073,6.0758,6.0425,6.0344,5.9886,5.8891,5.8088,5.7331,5.686,5.5279,5.424,5.3966,5.3542,5.2869,5.1992,5.2167,5.1986,5.1336,4.9809,4.8941,0.0,0.0,0.0,0.0,0.0,0.0,0.0,0.0,0.0,0.0,0.0,0.0,0.0,0.0,0.0,0.0,0.0,0.0,0.0,0.0,0.0,0.0,5.7284,6.0218,5.9663,6.1358,6.3224,6.4632,6.5808,6.665,6.7231,6.8549,6.949,6.9676,7.1042,7.1725,7.1435,7.187,7.187,7.1353,7.1663,7.1725,7.1435,7.1435,7.156,7.1808,7.1042,7.0794,7.1042,7.0566,7.0235,7.0049,6.9862,6.9552,6.9096,6.8848,6.8818,6.8759,0.0,0.0,0.0,0.0,6.7921,6.7688,6.7529,6.7034,6.6516,6.7234,6.6906,6.6273,6.6753,6.6841,6.684,6.6965,6.6421,6.6008,6.6195,6.5391,6.4547,6.4351,6.4154,6.3826,6.3149,6.2727,6.2415,6.1769,6.1704,0.0,6.1268,6.1381,6.1324,6.0927,6.0803,6.072,6.0511,6.0198,5.9719,5.8974,5.8151,5.7495,5.7046,5.5124,0.0,0.0,0.0,5.2534,5.1835,5.2129,0.0,0.0,0.0,5.0909,5.1007,5.0456,0.0,0.0,4.8559,4.8859,0.0,0.0,0.0,0.0,0.0,0.0,0.0,0.0,0.0,0.0,0.0,0.0,0.0,0.0,0.0,0.0,6.093,6.3878,6.4209,6.513,6.6067,6.6894,6.7704,6.8414,6.9293,6.997,7.0463,7.0939,7.1765,7.2261,7.2284,7.2843,0.0,0.0,0.0,7.2408,7.2284,7.2284,7.2346,7.2367,7.2137,7.2137,7.2284,7.1829,7.1415,7.1001,7.0545,7.0111,6.9738,6.9614,6.9552,6.9383,6.7894,6.7634,6.8165,6.7965,6.8401,6.8878,6.9108,0.0,0.0,6.7929,6.7365,6.6384,6.6928,6.7278,6.7431,6.7016,6.7125,6.7147,6.6317,6.5727,6.5246,6.4831,6.4312,6.3745,6.2851,6.2573,6.2313,6.1716,6.1172,6.1013,6.1369,6.1767,6.1787,6.0923,6.0713,6.0527,6.0113,6.003,5.9802,5.9285,5.858,0.0,5.7658,5.5185,5.3905,5.4756,5.2896,5.183,5.183,5.1738,5.1854,5.2243,5.2652,5.3052,5.3294,5.3736,5.3985,5.3928,5.0918,5.0914,0.0,0.0,0.0,0.0,0.0,0.0,0.0,0.0,0.0,0.0,0.0,0.0,0.0,0.0,0.0,6.0818,6.4149,6.6731,6.7253,6.9108,6.9723,6.8124,6.8861,6.9784,7.0464,7.0895,7.1078,7.1435,7.2457,7.2924,7.2716,7.3919,7.4044,7.2967,7.3547,7.3547,7.2781,7.2781,7.2967,7.334,7.2066,0.0,7.2781,7.1693,7.1532,7.1932,7.1498,7.1249,7.1125,7.0359,6.98,6.9507,6.9296,6.9384,6.9452,6.8646,6.8477,6.8599,6.78,6.7596,6.7689,6.8086,6.7748,6.7251,6.7889,6.7584,0.0,6.6928,6.6382,6.5792,6.5618,6.5224,6.4853,6.4766,6.4342,6.379,6.3227,6.2665,6.2059,6.1155,6.1243,6.139,6.134,6.1088,6.1005,6.1168,6.092,6.0651,6.0568,6.0216,5.9678,5.8829,5.7821,5.7122,5.6678,5.4977,5.4106,5.4717,5.3853,5.3518,5.4008,5.3493,5.3224,5.3215,5.3634,5.3938,5.3984,5.4402,5.4781,5.5066,5.4216,5.4163,0.0,0.0,0.0,0.0,0.0,0.0,0.0,0.0,0.0,0.0,0.0,5.2581,5.4411,0.0,6.1247,6.3268,6.6126,6.8313,6.885,7.0601,7.1349,6.9896,7.0949,7.1967,7.2553,7.2733,7.2765,7.2765,7.3178,7.3607,7.3752,7.4204,7.4376,7.4292,7.454,7.4416,7.3982,7.3733,7.3733,7.3919,7.2852,7.2667,7.3236,7.2399,7.2052,7.187,7.1684,7.1311,7.0856,7.0628,7.038,7.0131,7.0061,7.0064,7.0081,6.8794,6.8514,6.873,6.8265,6.7593,6.7249,6.8114,6.7604,6.672,6.7713,6.7604,6.7102,6.6929,6.671,6.6404,6.5923,6.5639,6.5293,6.4737,6.446,6.3992,6.3309,6.236,6.1768,6.1537,6.1261,6.1148,6.1603,6.1499,6.1499,6.1955,6.1437,6.0979,6.0884,6.0542,6.0026,5.9148,5.8601,5.8097,5.754,5.6281,5.5625,5.5625,5.5099,5.4888,5.5099,5.4951,5.4755,5.4755,5.5032,5.526,5.526,5.5339,5.5842,5.6554,5.6254,5.6175,0.0,0.0,0.0,0.0,0.0,0.0,0.0,4.7891,4.9394,5.1504,5.4325,5.6911,5.8297,6.1261,6.3931,6.525,6.7622,6.9264,6.955,7.1145,7.2017,7.1358,7.2806,7.3899,7.4136,7.4286,7.417,7.3864,7.3966,7.4302,7.4731,7.4466,7.4709,7.5679,7.5306,7.5058,7.4996,7.4603,7.4437,7.4416,7.3811,7.3604,7.3733,7.3129,7.2509,7.1932,7.187,7.1311,7.0483,7.0856,7.1001,7.0939,7.0504,7.0498,7.0509,6.8943,6.8605,6.8877,6.8794,6.7906,6.6889,6.8109,6.7582,6.6505,6.7534,6.7664,6.7529,6.7212,6.7387,6.7387,6.6427,6.6102,6.5757,6.4746,6.4403,6.3954,6.3059,6.1994,6.133,6.1782,6.1058,6.0711,6.1723,6.1893,6.2079,6.2617,6.1996,6.1388,6.1087,6.0884,6.0408,5.9679,5.9503,5.9158,5.8615,5.7648,5.6971,5.6533,5.5924,5.5421,5.5331,5.5501,5.5618,5.5674,5.5781,5.5923,5.6111,5.6038,5.6422,5.7236,5.7146,5.7267,4.1582,4.2988,4.5273,4.7578,4.8242,4.9668,0.0,5.5644,5.6015,5.7793,6.0548,6.2743,6.3399,6.4932,6.6483,6.7825,6.8877,6.9444,6.9308,7.1262,7.2416,7.1756,7.3223,7.4136,7.3914,7.3955,7.3864,7.3905,7.4272,7.4823,7.5547,7.5857,7.5877,7.5679,7.5617,7.5431,7.4996,7.4934,7.4913,7.4913,7.3766,7.354,7.423,7.3088,7.295,7.3361,7.2926,7.2243,7.1435,7.1435,7.1498,7.1435,7.098,7.1145,7.1228,6.9428,6.8496,6.8222,6.7828,6.7828,6.7987,6.7897,6.795,6.8203,6.85,6.8324,6.8069,6.8083,6.7868,6.7365,6.6277,6.5583,6.504,6.4571,6.3686,6.2799,6.2233,6.1609,6.1053,6.0772,6.0255,6.024,6.1227,6.1417,6.1706,6.2555,6.2265,6.1759,6.1149,6.072,6.0327,5.97,5.9158,5.8615,5.807,5.7394,5.6769,5.6162,5.5414,5.4704,5.4142,5.3914,5.4079,5.4436,5.4409,5.4605,5.4961,5.5371,5.5502,5.5638,5.6386,5.7453,4.7031,4.7891,4.8828,5.0644,5.2422,5.4277,5.6367,5.7676,5.8978,6.0901,6.2713,6.4255,6.4791,6.621,6.7536,6.8078,6.9303,7.0348,7.0552,7.1583,7.2456,7.2412,7.3286,7.3906,7.3994,7.4278,7.4144,7.3521,7.4171,7.4715,7.4873,7.5417,7.5859,7.6093,7.6052,7.6114,7.6176,7.5617,7.5534,7.5782,7.4796,7.4424,7.4685,7.4239,7.3867,7.3547,7.2843,7.2305,7.1932,7.1684,7.156,7.1498,7.1063,7.0814,7.067,6.9924,6.949,6.9303,6.8807,6.862,6.8595,6.8993,6.8698,6.8508,6.9445,6.9371,6.8998,6.9175,6.8807,6.8216,6.7076,6.5966,6.484,6.4014,6.3215,6.2529,6.1994,6.1427,6.1065,6.129,6.0612,6.0341,6.114,6.1562,6.1681,6.146,6.1434,6.136,6.1037,6.0275,5.9528,5.8906,5.8494,5.8087,5.7633,5.7265,5.6835,5.6629,5.5643,5.5044,5.4934,5.4765,5.4681,5.484,5.475,5.5133,5.588,5.5559,5.5996,5.6802,5.6789,5.7457,5.0463,5.1483,5.2228,5.3639,5.5984,5.791,5.7851,5.9297,6.1131,6.2636,6.3916,6.4936,6.564,6.6931,6.7923,6.8042,6.9507,7.0632,7.0962,7.147,7.21,7.228,7.2579,7.2979,7.3324,7.4148,7.4249,7.3117,7.4193,7.4721,7.4379,7.5195,7.5909,7.6312,7.6559,7.6859,7.7169,7.6548,7.63,7.6528,7.572,7.5306,7.5182,7.5058,7.454,7.3733,7.3091,7.2657,7.2408,7.2056,7.187,7.1725,7.1373,7.098,7.0566,7.0566,7.0318,6.9924,6.949,6.9283,6.9217,6.9464,6.9309,6.9098,6.989,7.002,6.9797,6.9982,6.9724,6.9128,6.7711,6.6287,6.5049,6.3574,6.2841,6.2332,6.1766,6.1181,6.104,6.1577,6.0854,6.0442,6.0987,6.1404,6.1398,6.0501,6.0348,6.0396,6.0457,5.9655,5.8711,5.7902,5.7893,5.7874,5.7552,5.7112,5.6876,5.6646,5.5598,5.4979,5.5128,5.5045,5.4898,5.4796,5.4594,5.4854,5.56,5.5339,5.5843,5.7141,5.6624,5.6867,5.0252,5.2459,5.5033,5.69,5.8544,5.9941,6.0742,6.1992,6.3047,6.3515,6.4802,6.6138,6.6971,6.7546,6.8022,6.8438,6.9446,6.9922,6.9512,7.066,7.1306,7.0876,7.0742,7.0918,7.1463,7.3169,7.3948,7.3117,7.4193,7.4841,7.4841,7.5905,7.6538,7.6558,7.7238,7.7625,7.7666,7.7625,7.7418,7.6983,7.6528,7.6093,7.5617,7.5182,7.4727,7.4292,7.423,7.3733,7.2905,7.2864,7.2595,7.2222,7.2181,7.1912,7.1498,7.1498,7.067,6.9428,6.9034,6.9428,6.9924,6.862,6.9224,7.0263,6.9505,6.9822,7.0272,7.0506,7.0489,6.9972,6.7558,6.6587,6.5534,6.3395,6.2414,6.1856,6.144,6.0964,6.0686,6.0686,6.0396,6.0224,6.0449,6.0863,6.0842,5.9965,5.9149,5.8808,5.9418,5.8795,5.7998,5.6925,5.7495,5.7988,5.7988,5.7159,5.6489,5.5887,5.507,5.4246,5.3666,5.4026,5.3869,5.3229,5.3141,5.3141,5.3263,5.3987,5.473,5.5399,5.5419,5.5487,5.3642,5.5727,5.7566,5.917,6.091,6.2125,6.2383,6.3379,6.4359,6.4706,6.4802,6.5077,6.5759,6.6362,6.6931,6.7764,6.933,7.0371,6.9922,7.0722,7.1015,6.998,7.0605,7.1074,7.0957,7.2412,7.3236,7.2832,7.436,7.499,7.4579,7.5855,7.6599,7.6599,7.7259,7.7811,7.8122,7.7308,7.7341,7.7873,7.7107,7.6548,7.6093,7.5658,7.5368,7.5182,7.4872,7.4561,7.4292,7.3982,7.3547,7.3112,7.2802,7.2408,7.1994,7.1994,7.1498,7.0814,7.0359,7.0607,7.1021,7.0349,7.0446,7.0809,7.0332,7.0721,7.1126,7.0398,7.0286,6.9868,6.7864,6.6393,6.5088,6.3528,6.2547,6.211,6.2368,6.1468,6.0851,6.1312,6.0457,5.9677,5.9909,5.9732,5.9169,5.8111,5.8,5.7815,5.7127,5.6739,5.6535,5.6398,5.6917,5.702,5.6538,5.6203,5.5596,5.5022,5.4296,5.3666,5.3285,5.3421,5.3141,5.2533,5.2533,5.2788,5.3511,5.3254,5.3909,5.5259,5.4647,5.4613,5.6781,5.8646,6.0037,6.1672,6.2837,6.3562,6.3541,6.4027,6.4594,6.4943,6.4304,6.4066,6.4762,6.5343,6.6035,6.6914,6.8984,7.0332,6.9922,7.0722,7.1015,7.0019,7.0781,7.1308,7.1191,7.2494,7.3182,7.2793,7.3913,7.4623,7.4209,7.577,7.6656,7.6656,7.7616,7.8308,7.8618,7.7897,7.7836,7.837,7.7438,7.6859,7.6548,7.6114,7.5803,7.5679,7.5182,7.4913,7.4685,7.423,7.3857,7.3588,7.3298,7.2864,7.247,7.247,7.2305,7.1932,7.1125,7.1063,7.127,7.0725,7.1003,7.1346,7.0848,7.1083,7.1504,7.0571,7.0165,6.9824,6.814,6.666,6.5364,6.3836,6.2792,6.218,6.2368,6.1658,6.093,6.1279,6.0374,5.9434,5.9299,5.8486,5.7458,5.6516,5.6396,5.6287,5.5637,5.5861,5.6008,5.6011,5.6312,5.6347,5.6023,5.5674,5.519,5.4711,5.3855,5.3268,5.3124,5.2881,5.2516,5.18,5.1784,5.2177,5.2776,5.2539,5.3091,5.4313,5.3695,5.3659,5.9356,6.1073,6.2434,6.4075,6.4339,6.4096,6.4413,6.4133,6.3789,6.4082,6.3496,6.3164,6.3965,6.4531,6.5176,6.6094,6.8418,6.998,6.9609,7.0625,7.125,7.0781,7.1191,7.1601,7.1992,7.2968,7.3381,7.2911,7.3144,7.3555,7.4023,7.5776,7.6673,7.6673,7.8223,7.9032,7.8936,7.8936,7.8688,7.8233,7.7365,7.7024,7.6983,7.6435,7.6155,7.5679,7.5244,7.4789,7.4354,7.3919,7.3671,7.3671,7.3671,7.3361,7.2967,7.2967,7.2926,7.274,7.1435,7.098,7.0814,7.0005,7.0735,7.1879,7.0909,7.1024,7.1612,7.0739,7.0302,6.9705,6.8361,6.7241,6.612,6.4373,6.3208,6.2305,6.1855,6.1426,6.0957,6.0508,5.9964,5.938,5.8502,5.7227,5.6039,5.5337,5.4556,5.4279,5.5042,5.5954,5.6154,5.5621,5.5721,5.6005,5.6284,5.5587,5.5095,5.513,5.3886,5.3175,5.3175,5.2477,5.1882,5.1221,5.1221,5.1221,5.1221,5.1545,5.2078,5.2728,5.2703,5.276,6.2508,6.365,6.4462,6.5114,6.4869,6.4354,6.3993,6.3792,6.3457,6.2578,6.1953,6.1543,6.1426,6.3105,6.4844,6.6035,6.8652,7.0605,7.084,7.1719,7.2051,7.1308,7.2168,7.2754,7.2519,7.3048,7.3537,7.4082,7.4444,7.4641,7.4883,7.5552,7.5955,7.5955,7.739,7.7946,7.737,7.737,7.7167,7.6701,7.6499,7.6538,7.6983,7.6342,7.6054,7.6155,7.5679,7.5431,7.5306,7.5182,7.4747,7.4168,7.4499,7.4168,7.3423,7.3423,7.3216,7.2864,7.2533,7.2408,7.2263,7.1829,7.2095,7.2176,7.1255,7.1504,7.1597,6.967,6.9703,6.9798,6.7137,6.6633,6.6311,6.4585,6.3538,6.297,6.3306,6.1816,6.038,6.0488,5.9145,5.7701,5.6664,5.5932,5.5316,5.4799,5.4654,5.4781,5.4947,5.5168,5.5548,5.6058,5.6249,5.6065,5.5538,5.5283,5.4958,5.4871,5.4051,5.345,5.324,5.2604,5.1858,5.1251,5.0963,5.1083,5.1577,5.1211,5.1615,5.2728,5.173,5.1526,6.4811,6.5905,6.6543,6.6659,6.5847,6.4811,6.3918,6.3149,6.2129,6.0625,5.9754,5.931,5.9497,6.1466,6.3626,6.5176,6.8242,7.0664,7.1308,7.2129,7.2578,7.2285,7.3203,7.3789,7.3555,7.4082,7.4648,7.5117,7.4796,7.4757,7.5176,7.553,7.5694,7.5694,7.6833,7.7231,7.6833,7.7112,7.6991,7.6471,7.6526,7.6733,7.7061,7.6245,7.6166,7.659,7.5662,7.5415,7.5679,7.5493,7.5058,7.4623,7.4872,7.4665,7.423,7.423,7.4044,7.3795,7.3609,7.3547,7.3447,7.2579,7.2454,7.2327,7.1289,7.1139,7.0965,6.9272,6.9189,6.9164,6.7218,6.6733,6.625,6.4726,6.3579,6.2754,6.2833,6.1504,6.0245,5.9399,5.8178,5.7098,5.642,5.5861,5.5544,5.5656,5.545,5.5447,5.5754,5.5731,5.5904,5.6411,5.6165,5.5839,5.539,5.4888,5.4588,5.4547,5.3728,5.3289,5.3112,5.2213,5.1696,5.1477,5.0893,5.0719,5.1078,5.0328,5.0469,5.1094,5.0529,5.0523,6.6612,6.7509,6.7968,6.7844,6.6544,6.4986,6.364,6.2074,6.0368,5.8594,5.7511,5.7156,5.8112,6.0011,6.2141,6.4039,6.75,7.0312,7.1367,7.2246,7.293,7.3379,7.414,7.4668,7.4668,7.541,7.5879,7.5879,7.4785,7.4472,7.5176,7.5428,7.5693,7.5873,7.6314,7.6594,7.6874,7.7312,7.7411,7.6914,7.7184,7.7216,7.7272,7.6238,7.6277,7.6911,7.5253,7.5017,7.5741,7.5286,7.5058,7.4996,7.5058,7.5037,7.4996,7.4996,7.4996,7.4934,7.454,7.4333,7.3935,7.2633,7.2371,7.2225,7.0934,7.0339,7.001,6.9292,6.874,6.8313,6.7724,6.6915,6.595,6.481,6.3463,6.2205,6.1652,6.0954,5.9892,5.7934,5.7389,5.7128,5.7017,5.6552,5.6347,5.7,5.6476,5.623,5.6862,5.6795,5.6664,5.6392,5.5923,5.5489,5.5496,5.4751,5.4278,5.422,5.3407,5.2938,5.2844,5.1905,5.1446,5.1605,5.0624,5.0185,5.0185,4.9441,4.9172,4.9314,4.9395,4.9419,6.7751,6.7593,6.6955,6.6227,6.5108,6.3621,6.1515,6.0329,5.9127,5.7315,5.6748,5.6728,5.6914,5.9497,6.2362,6.4473,6.7207,6.9844,7.2129,7.291,7.3379,7.3789,7.459,7.5117,7.5117,7.5586,7.5879,7.5879,7.5351,7.5058,7.5215,7.5298,7.57,7.6785,7.5546,7.5648,7.6947,7.6373,7.6474,7.7376,7.7093,7.6968,7.7272,7.6058,7.5931,7.6551,7.515,7.5202,7.6217,7.5741,7.5348,7.5037,7.5431,7.5306,7.4996,7.4996,7.4996,7.4996,7.4913,7.4211,7.3328,7.2964,7.2491,7.2036,7.087,7.0274,6.9637,6.8516,6.8175,6.7857,6.6431,6.6036,6.5682,6.4661,6.3295,6.2076,6.1957,6.0246,5.8364,5.7181,5.7266,5.7352,5.67,5.7174,5.759,5.725,5.7341,5.7427,5.7419,5.6817,5.6482,5.66,5.6209,5.5737,5.4945,5.4813,5.4723,5.4672,5.4019,5.341,5.2879,5.2058,5.1288,5.054,5.0089,4.9778,4.9778,4.9139,4.9012,4.9523,4.8182,4.7824,6.9117,6.8716,6.8027,6.7034,6.5386,6.3376,6.06,5.8859,5.7393,5.5671,5.5045,5.5057,5.584,5.8353,6.0941,6.2969,6.5625,6.8457,7.125,7.2051,7.2812,7.414,7.5058,7.5566,7.5566,7.6152,7.6387,7.5918,7.5683,7.5469,7.5215,7.5215,7.5474,7.6097,7.5704,7.5727,7.6329,7.6354,7.6534,7.7155,7.6954,7.715,7.7619,7.6345,7.6418,7.7431,7.5876,7.5797,7.6652,7.6217,7.5907,7.572,7.5927,7.5907,7.5679,7.5679,7.5679,7.5617,7.5161,7.4417,7.3415,7.2537,7.2073,7.1751,7.0247,6.9802,6.9483,6.7915,6.7597,6.7403,6.615,6.5814,6.5577,6.4151,6.2427,6.098,6.0525,5.9267,5.8037,5.7612,5.7753,5.8125,5.8404,5.8329,5.8366,5.8516,5.8009,5.7593,5.7735,5.6781,5.6181,5.6554,5.6351,5.5836,5.5184,5.4864,5.4594,5.4088,5.3342,5.2692,5.204,5.1323,5.0879,5.052,4.9395,4.8956,4.8956,4.7808,4.7535,4.7808,4.6928,4.6738,6.9738,6.9575,6.9002,6.7841,6.5917,6.3299,5.9976,5.7786,5.5926,5.4101,5.3503,5.3628,5.4915,5.6968,5.9239,6.1349,6.3965,6.6797,7.0137,7.1133,7.2285,7.4355,7.541,7.5996,7.5996,7.6738,7.6836,7.5937,7.5703,7.5527,7.5351,7.5176,7.5215,7.5508,7.5822,7.5868,7.569,7.6494,7.6734,7.6714,7.6873,7.7251,7.7628,7.6489,7.6762,7.7925,7.6354,7.6122,7.6817,7.6302,7.6208,7.6341,7.6075,7.6208,7.6341,7.6217,7.6063,7.5806,7.5002,7.4147,7.3114,7.1783,7.1269,7.1061,6.9399,6.907,6.8725,6.7427,6.6881,6.6644,6.5874,6.5495,6.4912,6.3047,6.1389,6.0034,5.9086,5.8544,5.8214,5.8495,5.8668,5.9057,5.9859,5.9609,5.9259,5.9635,5.8564,5.772,5.7795,5.6515,5.5739,5.6104,5.6071,5.567,5.5301,5.4693,5.4007,5.3174,5.242,5.1617,5.0721,5.0121,4.9825,4.9659,4.8406,4.7782,4.7461,4.6397,4.5767,4.5767,4.5503,4.5462,6.8848,6.8757,6.8373,6.6925,6.511,6.2757,5.914,5.7217,5.5563,5.3284,5.3144,5.3691,5.457,5.623,5.8288,6.125,6.293,6.5371,6.957,7.1191,7.2578,7.4375,7.5683,7.6445,7.6445,7.6894,7.6836,7.5937,7.5176,7.5058,7.5762,7.5058,7.5176,7.6328,7.5396,7.5122,7.5885,7.6533,7.6754,7.643,7.7314,7.7529,7.6813,7.5676,7.5855,7.6872,7.5521,7.5587,7.6592,7.5733,7.5787,7.6187,7.5674,7.5787,7.6279,7.5865,7.5323,7.4691,7.42,7.2831,7.1378,7.075,7.0035,6.9359,6.857,6.7725,6.7069,6.6492,6.6081,6.5671,6.5078,6.4282,6.3028,6.0913,6.0507,6.0174,5.913,5.8899,5.8887,5.9061,5.9726,6.0132,5.9649,6.0397,6.0661,5.9506,5.8991,5.8388,5.7254,5.6238,5.5392,5.4921,5.4939,5.4932,5.4903,5.3684,5.2825,5.242,5.1764,5.0721,4.8962,4.8903,4.7954,4.5989,4.6372,4.6113,4.5145,4.5025,4.4891,4.4891,4.356,4.3149,6.8475,6.8546,6.7955,6.6471,6.4218,6.1764,5.9255,5.6682,5.4506,5.3368,5.3051,5.332,5.4473,5.5644,5.7265,5.9765,6.1074,6.2969,6.6504,6.8301,7.0215,7.2754,7.4414,7.5566,7.6094,7.6504,7.6445,7.5566,7.5176,7.5117,7.5469,7.541,7.5469,7.5742,7.5508,7.5538,7.5826,7.6013,7.6374,7.6674,7.6634,7.6694,7.6833,7.5935,7.5796,7.639,7.5997,7.598,7.6129,7.5941,7.6054,7.6341,7.5941,7.6054,7.6146,7.5406,7.4864,7.4497,7.3347,7.2014,7.0698,7.0223,6.9212,6.8118,6.7882,6.7618,6.7328,6.616,6.5299,6.4482,6.4037,6.2879,6.1391,6.0063,5.9525,5.9201,5.8518,5.8325,5.8699,5.974,5.9697,5.9678,6.0022,5.9702,5.893,5.8004,5.7145,5.6399,5.5902,5.4837,5.3932,5.3556,5.3106,5.2844,5.2704,5.2023,5.1017,4.9888,4.9933,4.905,4.7064,4.7049,4.6118,4.4382,4.4663,4.4193,4.2815,4.2815,4.2545,4.2126,4.184,4.1593,6.7544,6.8103,6.7819,6.6139,6.3623,6.0879,5.8593,5.5904,5.3617,5.2896,5.2659,5.3027,5.4101,5.5098,5.6426,5.8437,5.9629,6.1367,6.4492,6.6445,6.8535,7.1308,7.3047,7.4375,7.5234,7.5801,7.5859,7.5273,7.5117,7.5039,7.5039,7.5449,7.5527,7.5215,7.541,7.5479,7.5414,7.5574,7.5835,7.6134,7.5835,7.5895,7.6234,7.5756,7.5676,7.6066,7.6033,7.594,7.5864,7.5704,7.5921,7.6341,7.593,7.5889,7.5939,7.468,7.4038,7.3672,7.2266,7.092,6.9962,6.9418,6.8471,6.7441,6.7207,6.7293,6.7131,6.5925,6.4702,6.3688,6.2891,6.1815,6.0595,5.9628,5.9146,5.8759,5.8565,5.839,5.884,6.0344,5.991,5.9458,6.0368,5.9126,5.7867,5.7648,5.6297,5.5336,5.518,5.3973,5.286,5.2005,5.0955,5.0353,5.0689,5.0147,4.9264,4.7892,4.7921,4.7021,4.5225,4.4957,4.4111,4.2523,4.2794,4.2116,4.0619,4.0916,4.0583,3.9829,4.0206,4.0073,6.5619,6.7109,6.7757,6.5749,6.3136,6.0195,5.6931,5.4809,5.2891,5.1172,5.1836,5.2851,5.3281,5.4433,5.5879,5.7598,5.8965,6.1015,6.4492,6.6445,6.834,7.0488,7.1894,7.3047,7.3906,7.4765,7.5215,7.5215,7.4824,7.459,7.459,7.5,7.5215,7.5215,7.4824,7.459,7.459,7.5414,7.5414,7.4609,7.5414,7.5476,7.506,7.504,7.5237,7.5505,7.5042,7.5228,7.5749,7.4648,7.5024,7.6187,7.5028,7.5017,7.5443,7.384,7.286,7.2014,7.092,6.9702,6.875,6.832,6.789,6.7324,6.6504,6.623,6.6152,6.5703,6.4469,6.2956,6.1729,6.1165,6.0548,5.9411,5.9331,5.9496,5.9496,5.9496,5.9847,6.0879,6.0343,5.9875,6.04,5.9211,5.8384,5.8774,5.7254,5.5799,5.5198,5.3973,5.2411,5.0468,4.8162,4.7605,4.9523,4.8461,4.7577,4.7115,4.5808,4.4498,4.3317,4.2662,4.1423,3.9934,4.0496,4.0209,3.8739,3.9406,3.9279,3.8488,3.8488,3.8225,6.0651,6.1532,6.168,6.0092,5.8568,5.6895,5.5366,5.3747,5.2383,5.1533,5.1874,5.25,5.3223,5.4199,5.582,5.8711,5.9531,6.0918,6.4082,6.623,6.8183,7.0078,7.2734,7.4531,7.4824,7.5058,7.5117,7.4824,7.4941,7.4883,7.459,7.4707,7.4765,7.4765,7.4941,7.4883,7.459,7.4891,7.4891,7.459,7.4852,7.5037,7.504,7.504,7.5058,7.5042,7.5465,7.5513,7.5456,7.5622,7.5776,7.5865,7.5456,7.4944,7.4332,7.3043,7.2055,7.1338,7.0115,6.9115,6.8359,6.8242,6.7676,6.6972,6.6387,6.5996,6.5396,6.3815,6.2694,6.1758,6.0656,6.0226,5.9827,5.9061,5.8888,5.8897,5.8897,5.8574,5.8637,5.9923,5.935,5.8875,5.9241,5.8426,5.7561,5.6845,5.5993,5.4836,5.3246,5.2289,5.0831,4.8141,4.657,4.6117,4.7122,4.5754,4.4788,4.4487,4.3796,4.2733,4.146,4.1013,3.982,3.7621,3.829,3.7737,3.5656,3.6328,3.6398,3.5897,3.534,3.494,5.6499,5.7822,5.8273,5.6579,5.5527,5.4622,5.3366,5.2221,5.1359,5.1083,5.1424,5.2109,5.2949,5.3965,5.5547,5.8144,5.9121,6.0625,6.3633,6.5644,6.7656,7.0039,7.2676,7.4316,7.4472,7.4805,7.4883,7.4609,7.4824,7.4883,7.459,7.459,7.459,7.459,7.4824,7.4883,7.459,7.459,7.4531,7.4375,7.4616,7.4582,7.413,7.4702,7.4736,7.462,7.5006,7.5383,0.0,7.5808,7.5806,7.5658,7.5229,7.4443,7.3468,7.2085,7.121,7.0508,6.9558,6.8652,6.791,6.791,6.708,6.5932,6.5255,6.4946,6.4578,6.2533,6.171,6.1199,6.0324,6.0023,5.9821,5.8977,5.8922,5.8959,5.8589,5.8214,5.826,5.9138,5.8677,5.8446,5.8765,5.8105,5.7345,5.6556,5.579,5.4578,5.2245,5.1238,4.9384,4.6211,4.4963,4.4124,4.3949,4.3127,4.2494,4.2515,4.1396,4.0206,3.9002,3.8544,3.726,3.5239,3.6073,3.5582,3.4031,3.4083,3.3753,3.3348,3.2636,3.2256,0.0,5.5561,5.6732,5.4364,5.3584,5.29,5.1029,5.0293,0.0,5.0078,5.0762,5.1641,5.2578,5.3789,5.5098,5.6543,5.8203,6.0332,6.3281,6.5019,6.7148,7.0488,7.1992,7.2969,7.332,7.4121,7.459,7.459,7.459,7.459,7.4551,7.4551,7.4531,7.4492,7.4492,7.4531,7.459,7.4551,7.4355,7.3965,7.4603,7.413,7.2813,7.4161,7.46,7.4177,7.4157,7.4923,7.6105,7.5438,7.5304,7.5402,7.4159,7.3427,7.2848,7.1051,7.0112,6.9587,6.8958,6.8242,6.75,6.748,6.6117,6.4285,6.3263,6.3359,6.3453,6.1841,6.1359,6.1236,6.0513,6.0408,6.0188,5.9399,5.9491,5.9411,5.8418,5.8494,5.8662,5.8452,5.8398,5.8541,5.8767,5.8254,5.7757,5.7494,5.645,5.4681,5.193,5.0347,4.8139,4.4526,4.322,4.1884,4.0009,4.0413,4.0689,4.0711,3.8553,3.6855,3.6148,3.5169,3.42,3.2987,3.3526,3.3585,3.3155,3.2295,3.1499,3.0828,3.0128,3.0028,4.7545,0.0,5.0821,4.9532,4.9663,4.9782,0.0,4.879,4.9249,4.9194,4.9863,5.1035,5.2871,5.373,5.5137,5.8086,5.9453,6.1074,6.3789,6.7265,7.0195,7.1992,7.3379,7.4082,7.3847,7.4297,7.459,7.459,7.459,7.4472,7.414,7.414,7.3965,7.3613,7.3613,7.3945,7.459,7.4258,7.4082,7.3965,7.3752,7.3598,7.3498,7.3771,7.4148,7.4455,7.3901,7.4006,7.4343,7.3682,7.3307,7.2993,7.274,7.1954,7.1051,7.067,6.9832,6.8958,6.8828,6.8242,6.7333,6.6494,6.5216,6.368,6.2961,6.2385,6.1984,6.152,6.0989,6.0655,6.0408,6.0408,6.0188,5.9399,5.9124,5.9025,5.9009,5.8003,5.7671,5.8915,5.8755,5.8487,5.8505,5.8765,5.84,5.6859,5.5581,5.3855,5.1276,4.908,4.6571,4.3614,4.1768,3.9717,3.7083,3.7435,3.7709,3.7609,3.5234,3.3838,3.3703,3.2581,3.1764,3.1243,3.0123,2.9088,2.8278,2.8107,2.7944,2.7679,2.7534,2.6896,4.4825,4.6568,4.8322,4.7769,4.8153,4.8534,4.8013,4.8228,4.8705,4.8862,4.957,5.0762,5.2715,5.3906,5.5534,5.8308,6.003,6.2129,6.5312,6.8476,7.1015,7.2519,7.3496,7.4082,7.4258,7.4297,7.4316,7.4316,7.414,7.3906,7.3672,7.3496,7.3379,7.332,7.3144,7.332,7.4004,7.3789,7.3555,7.3379,7.3342,7.3008,7.271,7.2784,7.3005,7.3345,7.2926,7.3051,7.3378,7.3114,7.2588,7.2166,7.1903,7.127,7.05,6.9871,6.9257,6.8476,6.8301,6.74,6.6203,6.4807,6.3695,6.2754,6.1855,6.1341,6.0847,6.0748,6.0595,6.0353,6.0151,6.0243,6.0224,5.9234,5.9257,5.9333,5.8303,5.7777,5.7616,5.797,5.7864,5.7723,5.8114,5.8251,5.7696,5.6001,5.4699,5.269,4.9151,4.6979,4.4409,4.1209,3.9074,3.7093,3.4627,3.3578,3.331,3.4146,3.2246,3.0955,3.0433,2.9761,2.8992,2.8508,2.7776,2.668,2.5202,2.5477,2.5347,2.4652,2.4577,2.3911,4.406,4.5855,4.7617,4.73,4.7681,4.8107,4.7922,4.7969,4.8164,4.8652,4.9512,5.0781,5.2754,5.4355,5.6023,5.8111,6.0536,6.3437,6.7265,6.918,7.0801,7.2519,7.3086,7.3613,7.4316,7.4082,7.3847,7.3847,7.3555,7.3301,7.3203,7.2812,7.2734,7.3027,7.2695,7.2637,7.291,7.3027,7.293,7.2578,7.2634,7.2162,7.125,7.1587,7.1769,7.1822,7.1822,7.216,7.2648,7.2628,7.2255,7.1592,7.1087,7.0567,7.0002,6.9088,6.8476,6.8008,6.7431,6.6242,6.4685,6.3192,6.2366,6.1633,6.0734,6.0463,6.0298,5.9821,6.0041,6.0298,5.9986,6.0133,6.0174,5.9119,5.946,5.9554,5.737,5.7598,5.7772,5.6806,5.678,5.714,5.7583,5.7474,5.6716,5.5147,5.363,5.0997,4.6772,4.4423,4.1926,3.8366,3.6343,3.4334,3.2269,2.9667,2.8787,3.0056,2.9035,2.7952,2.7004,2.7016,2.6437,2.5278,2.5822,2.5064,2.2862,2.3688,2.3282,2.1738,2.1599,2.0902,4.5274,4.6716,4.73,4.5777,4.6333,4.7137,4.667,4.6875,4.7344,4.8144,4.9297,5.1152,5.4316,5.541,5.6738,5.9604,6.2187,6.5117,6.8633,7.0019,7.1133,7.2519,7.3086,7.3379,7.3496,7.3437,7.3437,7.3437,7.3379,7.3144,7.2812,7.2344,7.1953,7.166,7.1601,7.1426,7.1113,7.1816,7.2168,7.2109,7.1424,7.1013,7.084,7.1542,7.1875,7.2195,7.2195,7.1934,7.1723,7.1091,7.031,6.9245,6.9264,6.888,6.8488,6.832,6.8008,6.7539,6.6474,6.5016,6.344,6.3238,6.2231,6.1101,6.0903,6.0664,6.0243,5.9491,5.9821,6.0408,6.0298,6.0353,6.0174,5.9119,5.8717,5.8541,5.7742,5.7099,5.6915,5.7458,5.7583,5.7565,5.7369,5.7216,5.6404,5.4578,5.1707,4.8917,4.6223,4.2393,3.9041,3.6619,3.4686,3.2231,2.9148,2.7655,2.6268,2.4697,2.5116,2.5076,2.4284,2.4827,2.419,2.1949,2.3165,2.2875,2.0664,2.1362,2.0884,1.9396,1.8817,1.7996,4.3554,4.5391,4.6722,4.5891,4.7533,4.936,4.9082,4.9043,4.9199,4.9824,5.0801,5.2461,5.5449,5.6933,5.9004,6.293,6.4814,6.6664,6.9062,6.998,7.084,7.2168,7.25,7.2793,7.3262,7.3086,7.2969,7.2969,7.2754,7.2402,7.1992,7.1543,7.123,7.1015,7.0781,7.0683,7.0722,7.0898,7.1074,7.1308,7.1084,7.0804,7.0568,7.1008,7.1172,7.1139,7.0732,7.0482,7.0154,6.9567,6.8892,6.8476,6.8476,6.8359,6.8164,6.7544,6.6873,6.6165,6.4813,6.3599,6.2534,6.2157,6.141,6.0628,6.0408,6.0188,5.9968,5.9234,5.9438,5.9802,5.9348,5.9213,5.9093,5.8292,5.8079,5.7866,5.6945,5.652,5.6326,5.64,5.6332,5.6053,5.6053,5.5285,5.4009,5.2506,4.9299,4.614,4.3489,3.9516,3.6123,3.3868,3.1405,2.9038,2.668,2.507,2.3783,2.298,2.2931,2.284,2.2408,2.284,2.189,1.9455,2.0476,1.9923,1.7666,1.834,1.7904,1.6464,1.6484,1.5548,4.2425,4.439,4.645,4.6944,4.8808,5.0683,5.1289,5.1035,5.0957,5.1973,5.2793,5.4082,5.6582,5.8789,6.1504,6.541,6.69,6.799,6.9355,7.0039,7.0781,7.1875,7.1992,7.2285,7.3086,7.2793,7.2519,7.2519,7.2109,7.1719,7.1367,7.084,7.0547,7.0547,7.0254,7.0156,7.0254,7.0039,7.0156,7.0547,7.0568,7.0397,7.0061,7.0273,7.03,6.9959,6.9556,6.934,6.9192,6.8678,6.8254,6.8027,6.8027,6.7801,6.7439,6.6579,6.5619,6.4483,6.3417,6.2445,6.1725,6.1009,6.0664,6.0298,5.9643,5.9661,5.9753,5.8674,5.877,5.8985,5.841,5.845,5.8487,5.7667,5.7617,5.7512,5.6167,5.5925,5.5841,5.5262,5.5076,5.5027,5.4905,5.3666,5.2133,5.0466,4.6937,4.3277,4.0333,3.6334,3.2913,3.0871,2.8323,2.5895,2.4127,2.2528,2.1475,2.1408,2.1068,2.0827,2.0827,2.0657,1.9562,1.758,1.8048,1.7342,1.5206,1.5751,1.532,1.3916,1.4186,1.3283,4.419,4.5508,4.6738,4.8789,4.8574,4.8476,5.0879,5.0801,5.1035,5.3867,5.4805,5.5801,5.8008,6.1133,6.3867,6.5371,6.7324,6.8945,6.9922,7.0742,7.1484,7.1933,7.1992,7.2168,7.2695,7.2344,7.2051,7.2051,7.166,7.1426,7.1367,7.0605,7.0137,7.0137,7.0097,6.9746,6.8984,6.9316,6.9687,7.0137,6.9297,6.8887,6.8978,6.9172,6.932,6.928,6.9939,6.9831,6.9172,6.9152,6.8551,6.7558,6.7558,6.6709,6.5507,6.5361,6.43,6.2771,6.2664,6.199,6.1028,6.0573,6.0408,6.0137,5.8721,5.9257,5.9977,5.7845,5.7919,5.8487,5.8434,5.8862,5.9039,5.8043,5.783,5.7565,5.635,5.577,5.5296,5.4779,5.5391,5.5609,5.4744,5.3648,5.2087,4.9653,4.4763,4.0364,3.7575,3.2772,2.9058,2.7697,2.5894,2.379,2.1308,2.0398,1.9336,1.7985,1.8748,1.9152,1.9152,1.8484,1.7596,1.6754,1.6651,1.5913,1.4415,1.4543,1.3681,1.2105,1.1548,1.0695,4.258,4.4824,4.6894,4.7715,4.8945,5.0508,5.2578,5.3008,5.375,5.6504,5.7207,5.7969,6.0098,6.2871,6.5195,6.623,6.7969,6.9414,7.0039,7.084,7.1426,7.1601,7.1176,7.1234,7.2207,7.1448,7.106,7.1582,7.1191,7.0722,7.0195,6.9629,6.918,6.8926,6.8887,6.8769,6.8418,6.8594,6.875,6.8887,6.8962,6.8886,6.8629,6.8938,6.8705,6.8068,6.7915,6.7566,6.6959,6.7195,6.668,6.5681,6.5197,6.5139,6.5208,6.406,6.3073,6.2217,6.1698,6.1042,6.0206,6.0041,5.9821,5.946,5.854,5.8648,5.8761,5.7318,5.7158,5.7404,5.7404,5.7261,5.7084,5.6589,5.619,5.5773,5.5284,5.4766,5.4146,5.4009,5.406,5.3714,5.2487,5.1324,4.9507,4.6361,4.1829,3.7485,3.4179,2.9875,2.6468,2.4709,2.2529,2.045,1.8212,1.7484,1.6443,1.5084,1.6586,1.7469,1.7399,1.5903,1.489,1.4371,1.3979,1.2999,1.1448,1.1584,1.0755,0.9373,0.893,0.8339,4.2168,4.4609,4.709,4.7773,4.9707,5.207,5.4492,5.5058,5.5918,5.8945,5.9512,6.0039,6.1601,6.3691,6.5527,6.6504,6.8242,6.957,6.9863,7.0742,7.125,7.1015,7.0807,7.0885,7.1582,7.0923,7.0594,7.1172,7.0377,6.9794,6.9492,6.8665,6.8198,6.8183,6.8183,6.8066,6.7773,6.7773,6.7617,6.7383,6.7872,6.7939,6.7666,6.7579,6.7039,6.616,6.6075,6.569,6.5357,6.563,6.5111,6.4237,6.3843,6.3813,6.4159,6.2873,6.1906,6.1212,6.0899,6.0353,5.9766,5.9393,5.9338,5.8984,5.7732,5.7842,5.8148,5.714,5.7102,5.7366,5.7246,5.689,5.6551,5.606,5.5718,5.5426,5.494,5.4388,5.3803,5.3683,5.3509,5.2874,5.1272,4.9807,4.7646,4.378,3.9263,3.496,3.1057,2.7127,2.3885,2.1719,1.9764,1.7888,1.6235,1.5412,1.4255,1.2906,1.383,1.4702,1.5084,1.3193,1.2203,1.2086,1.1166,1.0193,0.9042,0.8643,0.7959,0.7,0.6565,0.6132,4.3774,4.5273,4.7461,4.9629,5.082,5.248,5.6348,5.6582,5.707,6.0918,6.1719,6.1836,6.2305,6.3457,6.4726,6.5996,6.8008,6.9433,6.9433,7.0547,7.1035,7.0195,7.084,7.1191,7.0762,7.0703,7.0703,7.0703,6.926,6.8645,6.9453,6.7945,6.7351,6.8164,6.8183,6.7734,6.6875,6.6855,6.6406,6.5586,6.5586,6.568,6.5823,6.4996,6.4237,6.3593,6.4324,6.4592,6.4592,6.4592,6.4218,6.3593,6.3574,6.2973,6.1956,6.1956,6.1082,5.9821,6.0243,6.0133,5.957,5.8558,5.8729,5.8913,5.6351,5.7194,5.8627,5.7244,5.7845,5.8735,5.799,5.8079,5.8061,5.6543,5.6719,5.6857,5.539,5.4781,5.4264,5.3666,5.391,5.3579,5.1372,4.9539,4.6929,4.2219,3.7512,3.2908,2.8692,2.4528,2.1131,1.8919,1.7653,1.6559,1.577,1.4551,1.3161,1.1707,1.0517,1.049,1.2063,1.0636,0.9783,0.9783,0.8236,0.7512,0.7455,0.6127,0.5304,0.527,0.461,0.382,4.2248,4.4824,4.8066,4.9043,5.2187,5.5605,5.7676,5.8183,5.8965,6.1621,6.2422,6.2695,6.2812,6.414,6.541,6.6094,6.7773,6.8984,6.8984,6.9428,6.9572,6.9321,6.8426,6.8177,6.9075,6.8026,6.7513,6.833,6.7321,6.6597,6.6264,6.5563,6.5251,6.5633,6.5235,6.5333,6.5996,6.5458,6.5341,6.5586,6.4489,6.4416,6.4957,6.44,6.3359,6.2104,6.2419,6.2097,6.1485,6.1296,6.216,6.3411,6.1457,6.1203,6.1937,6.1143,6.0655,6.0298,6.0664,6.0123,5.9047,5.9123,5.8467,5.7688,5.6701,5.6892,5.7259,5.6703,5.6767,5.7105,5.6915,5.7082,5.6999,5.6001,5.527,5.4594,5.4147,5.3476,5.3012,5.2776,5.2248,5.1387,4.9822,4.7934,4.4908,4.0095,3.5724,3.0251,2.307,1.9548,1.7198,1.5855,1.5341,1.4146,1.1609,1.1034,0.9921,0.8117,0.7583,0.8271,1.0205,0.8487,0.7677,0.8171,0.665,0.5707,0.5193,0.4372,0.3565,0.3164,0.2899,0.2366,4.4551,4.707,4.9922,5.1738,5.4668,5.7547,5.9485,6.0162,6.0976,6.2754,6.3223,6.334,6.3496,6.4531,6.5527,6.6113,6.7265,6.8183,6.8535,6.8486,6.8458,6.8285,6.7229,6.6813,6.7551,6.6512,6.6098,6.6585,6.5701,6.5188,6.5105,6.4307,6.4034,6.438,6.4218,6.4169,6.4456,6.4353,6.4237,6.4184,6.3335,6.2867,6.2855,6.257,6.173,6.0508,6.096,6.0698,6.0167,5.9801,6.0336,6.1298,5.9602,5.9566,6.0453,6.0127,5.9698,5.9343,5.9762,5.9065,5.7983,5.7987,5.7476,5.6754,5.6174,5.617,5.6464,5.6409,5.6422,5.6564,5.6875,5.6543,5.6071,5.5547,5.4837,5.4095,5.37,5.3201,5.2767,5.2433,5.1889,5.0847,4.9243,4.7122,4.3896,3.8918,3.2921,2.6583,1.9893,1.7209,1.5305,1.3613,1.3108,1.1811,0.9158,0.8728,0.8015,0.6467,0.5802,0.6198,0.7388,0.625,0.5727,0.5836,0.4622,0.3826,0.3435,0.2368,0.1704,0.1308,0.0785,0.0261,4.8867,5.0568,5.2362,5.6211,5.7695,5.8951,6.144,6.2262,6.2656,6.3824,6.3906,6.3808,6.4199,6.4648,6.5215,6.6035,6.6562,6.7129,6.789,6.7732,6.7328,6.6886,6.6543,6.6228,6.5944,6.5774,6.5623,6.5283,6.4335,6.4031,6.4841,6.3957,6.352,6.368,6.4256,6.3907,6.277,6.3213,6.3019,6.2014,6.1938,6.1182,6.0082,6.0194,5.9832,5.9087,5.9637,5.9841,5.9878,5.919,5.862,5.8205,5.8205,5.8205,5.8364,5.8954,5.8456,5.7633,5.8011,5.7467,5.6347,5.5931,5.5897,5.5966,5.4972,5.5122,5.576,5.5982,5.6296,5.6665,5.7131,5.6149,5.4992,5.5073,5.5027,5.4593,5.3666,5.3316,5.3014,5.233,5.2078,5.1343,4.9224,4.6913,4.36,3.7833,2.9491,2.2472,1.8622,1.6513,1.4511,1.2042,1.0713,0.9408,0.8147,0.7352,0.6768,0.5997,0.485,0.4069,0.3912,0.4069,0.3819,0.3161,0.2371,0.1969,0.1957,0.0521,-0.013,-0.0258,-0.1549,-0.2194,4.6914,4.937,5.2541,5.589,5.8828,6.125,6.2458,6.2304,6.2011,6.2389,6.3136,6.3691,6.3808,6.4433,6.5117,6.5644,6.5991,6.6203,6.6534,6.5754,6.5194,6.5293,6.4023,6.3436,6.3972,6.3177,6.2844,6.338,6.2624,6.1905,6.1434,6.1676,6.1777,6.1771,6.1835,6.224,6.2945,6.2257,6.1787,6.1652,6.0429,5.948,5.8713,5.9682,5.9433,5.8225,5.7539,5.7438,5.7627,5.7315,5.7535,5.8205,5.8205,5.8753,5.9356,5.8662,5.8105,5.7775,5.79,5.6702,5.5234,5.5896,5.5391,5.449,5.4283,5.4574,5.4831,5.4593,5.4869,5.5164,5.4854,5.4439,5.3992,5.3906,5.346,5.2876,5.2673,5.219,5.156,5.0983,5.0593,4.9744,4.7721,4.5806,4.1695,3.3433,2.6644,2.1246,1.7478,1.5098,1.2887,1.0398,0.9191,0.7916,0.6575,0.5482,0.4507,0.3782,0.2989,0.2339,0.1827,0.2222,0.2485,0.2355,0.117,0.052,0.0391,-0.0908,-0.1681,-0.1678,-0.245,-0.3224,4.8535,5.1037,5.3808,5.7723,6.0215,6.1797,6.2204,6.1972,6.166,6.1749,6.2589,6.3437,6.3633,6.4023,6.4448,6.4806,6.4993,6.5101,6.4986,6.442,6.3975,6.375,6.2657,6.2058,6.248,6.1948,6.1581,6.1636,6.1251,6.0715,6.0052,6.024,6.0213,5.9748,6.0085,6.0326,6.0508,6.0161,5.993,5.9677,5.8891,5.8219,5.7556,5.8284,5.7985,5.6892,5.6321,5.6104,5.5982,5.5658,5.5941,5.6497,5.6692,5.6906,5.703,5.6852,5.6139,5.5304,5.5687,5.4819,5.3561,5.4474,5.4147,5.3598,5.3598,5.3735,5.3803,5.3409,5.3461,5.3512,5.3118,5.2539,5.2132,5.2098,5.2179,5.2142,5.2142,5.1312,5.0458,5.0212,4.96,4.8712,4.725,4.3309,3.7988,3.0676,2.5385,2.0496,1.6104,1.3576,1.1215,0.8553,0.7263,0.6,0.4643,0.393,0.3331,0.271,0.1678,0.0905,0.0649,0.0,-0.013,0.0649,-0.0776,-0.1422,-0.1427,-0.3229,-0.387,-0.3615,-0.4644,-0.5415,5.0176,5.3066,5.5527,5.9886,6.1232,6.1602,6.1462,6.1407,6.1485,6.1365,6.2165,6.293,6.3398,6.3457,6.3571,6.376,6.3888,6.3702,6.3435,6.3147,6.2867,6.2291,6.1539,6.1144,6.1235,6.0981,6.0653,6.0068,5.9922,5.9619,5.91,5.9246,5.8918,5.8098,5.8778,5.857,5.7676,5.804,5.8022,5.7464,5.7348,5.7002,5.6422,5.6422,5.6226,5.5698,5.5465,5.5114,5.4599,5.4548,5.4502,5.4537,5.4938,5.475,5.4439,5.4629,5.3717,5.2516,5.2999,5.2472,5.1828,5.2472,5.2539,5.2572,5.2521,5.2437,5.2403,5.1911,5.1843,5.1658,5.1285,5.0599,4.9904,4.982,5.0597,5.1261,5.1214,5.0279,4.9466,4.9105,4.8254,4.7298,4.6381,4.0475,3.4214,2.9208,2.4585,1.9819,1.4719,1.2125,0.9714,0.6787,0.5379,0.4105,0.2871,0.2656,0.2294,0.1659,0.0257,-0.0516,-0.0516,-0.245,-0.2966,-0.1936,-0.3095,-0.3611,-0.3611,-0.5544,-0.6319,-0.5931,-0.7223,-0.8122,4.707,5.1875,5.6904,5.9589,6.0651,6.1308,6.1563,6.1056,6.0723,6.1056,6.1582,6.2012,6.248,6.2539,6.2695,6.3103,6.249,6.2121,6.2336,6.1448,6.0921,6.1061,5.9881,5.9249,5.9611,5.8644,5.8023,5.8237,5.8083,5.7749,5.7362,5.8085,5.8098,5.724,5.7814,5.7931,5.7401,5.7042,5.672,5.6702,5.6056,5.5484,5.4857,5.4857,5.5056,5.5204,5.4139,5.369,5.3608,5.4206,5.4502,5.4537,5.4903,5.5287,5.5253,5.3596,5.2684,5.2228,5.1598,5.0777,5.0059,5.0939,5.0987,5.065,5.0363,5.0465,5.0518,4.9705,4.9245,4.9045,4.8669,4.844,4.8096,4.7429,4.7851,4.843,4.8178,4.8405,4.8125,4.6494,4.5075,4.3957,4.3053,3.7997,3.2761,2.8717,2.3478,1.8452,1.4022,1.1036,0.8367,0.606,0.4236,0.2951,0.2245,0.1132,0.0127,-0.051,-0.1928,-0.2708,-0.2708,-0.4128,-0.5161,-0.5544,-0.5673,-0.5802,-0.5802,-0.7216,-0.8251,-0.8763,-0.9531,-1.0305,4.9219,5.2969,5.6241,5.9524,6.0318,6.0449,6.0625,6.0547,6.0371,6.0098,6.0156,6.0566,6.1484,6.1213,6.0922,6.1127,6.073,6.0174,5.9636,5.9488,5.9277,5.8843,5.8353,5.8039,5.82,5.7686,5.7139,5.6959,5.6845,5.6441,5.5698,5.6062,5.6181,5.6085,5.6272,5.6497,5.6662,5.6085,5.5656,5.5207,5.5101,5.4591,5.3931,5.3483,5.3601,5.4167,5.3358,5.2811,5.2333,5.2524,5.2387,5.2371,5.2603,5.2563,5.2446,5.1313,5.0484,4.9893,4.9643,4.9236,4.8762,4.9112,4.9393,4.9474,4.8964,4.9161,4.9374,4.8226,4.7836,4.7365,4.6125,4.5772,4.5628,4.4925,4.5089,4.5138,4.4267,4.5408,4.6109,4.4615,4.3298,4.1907,4.0531,3.6509,3.1862,2.6902,2.2179,1.7343,1.2301,0.9254,0.658,0.4223,0.2765,0.1345,-0.0123,-0.075,-0.1642,-0.2662,-0.4099,-0.4898,-0.4898,-0.6577,-0.7862,-0.8503,-0.7733,-0.7733,-0.8503,-0.9917,-1.0944,-1.1582,-1.2231,-1.3385,5.0273,5.2617,5.418,5.8262,5.9121,5.9062,5.9414,5.9629,5.959,5.8965,5.8848,5.9121,6.0098,5.972,5.9227,5.9275,5.8891,5.821,5.7511,5.7601,5.7424,5.687,5.6663,5.6645,5.6645,5.6313,5.5858,5.519,5.5388,5.5121,5.4297,5.4364,5.4626,5.4708,5.4764,5.4856,5.4962,5.4616,5.4098,5.3686,5.3794,5.3436,5.2771,5.2036,5.1888,5.2478,5.2233,5.1803,5.1123,5.1018,5.0645,5.0395,5.0506,5.0314,4.9941,4.9347,4.8655,4.8036,4.8055,4.7749,4.7476,4.7527,4.7804,4.8031,4.7479,4.7576,4.7673,4.6366,4.5902,4.528,4.3779,4.3358,4.314,4.2292,4.2387,4.2532,4.1975,4.2912,4.366,4.3041,4.1806,4.0331,3.8383,3.49,3.0596,2.5162,2.0555,1.5754,1.0553,0.7166,0.4469,0.1975,0.0717,-0.073,-0.2684,-0.2988,-0.3658,-0.4921,-0.6393,-0.7216,-0.7216,-0.902,-1.0437,-1.1333,-1.0566,-1.0566,-1.1333,-1.262,-1.3637,-1.4652,-1.5168,-1.6589,4.7266,4.8808,5.0293,5.5,5.6465,5.707,5.8301,5.8301,5.7988,5.793,5.793,5.7969,5.8027,5.8247,5.8269,5.8121,5.711,5.6452,5.6795,5.5897,5.5235,5.5507,5.5084,5.4744,5.4744,5.38,5.3065,5.2671,5.334,5.3645,5.3202,5.3939,5.4007,5.3182,5.3549,5.3146,5.1839,5.2065,5.2079,5.187,5.1809,5.1548,5.0948,5.0301,5.0117,5.0221,5.0452,5.037,5.0171,5.0417,5.021,4.9633,4.999,4.9941,4.945,4.8504,4.7919,4.7505,4.6969,4.6257,4.5887,4.635,4.6125,4.5631,4.5312,4.5185,4.4964,4.3826,4.282,4.2011,4.1319,4.1397,4.0991,3.9038,3.982,4.1478,4.287,4.1861,4.0934,4.1756,4.0724,3.8768,3.6419,3.2642,2.8485,2.3928,1.8356,1.3222,0.9132,0.5098,0.1812,-0.058,-0.1903,-0.3509,-0.5482,-0.5725,-0.6431,-0.7817,-0.9328,-1.0048,-1.0048,-1.1461,-1.2877,-1.4154,-1.4789,-1.4794,-1.4154,-1.4922,-1.6328,-1.8236,-1.8236,-1.9382,4.6383,4.7464,4.8588,5.2522,5.3992,5.4707,5.5469,5.6367,5.6894,5.6328,5.6445,5.6329,5.5291,5.5848,5.6429,5.5915,5.4912,5.3917,5.3536,5.3228,5.3001,5.2876,5.2541,5.2234,5.2049,5.1999,5.1795,5.1169,5.1584,5.1766,5.1902,5.2065,5.2273,5.2912,5.2701,5.2089,5.1243,5.1837,5.1723,5.0746,5.1044,5.0569,4.9642,4.9144,4.906,4.9278,4.8309,4.8551,4.9778,4.9434,4.91,4.8552,4.834,4.8252,4.8238,4.7463,4.7061,4.6838,4.5671,4.5225,4.4906,4.4008,4.3949,4.3999,4.3216,4.2999,4.2782,4.1591,4.0744,3.9944,3.9198,3.8912,3.849,3.722,3.7195,3.756,3.7461,3.787,3.824,3.8489,3.721,3.5628,3.3679,3.0071,2.613,2.1916,1.6387,1.1294,0.7396,0.334,0.0,-0.1959,-0.3674,-0.5549,-0.7497,-0.8309,-0.9201,-1.0587,-1.2138,-1.2868,-1.2868,-1.4661,-1.5934,-1.6328,-1.7848,-1.8109,-1.7094,-1.7732,-1.9134,-2.116,-2.1541,-2.2792,4.5088,4.591,4.6844,5.0131,5.1282,5.2032,5.3437,5.457,5.5215,5.4941,5.5215,5.5162,5.4004,5.3976,5.4194,5.4,5.3,5.2044,5.1656,5.1009,5.0657,5.0785,5.0388,5.0136,5.0121,5.0471,5.0467,4.9845,5.0231,5.0533,5.0876,5.0954,5.1351,5.2148,5.1451,5.0918,5.0509,5.0701,5.0267,4.9343,4.9292,4.8853,4.8163,4.7571,4.7479,4.7672,4.6403,4.7088,4.8875,4.8157,4.7629,4.7393,4.7158,4.7024,4.6782,4.6438,4.6121,4.5626,4.4581,4.4172,4.373,4.2307,4.2046,4.2096,4.1328,4.0917,4.0522,3.9665,3.8854,3.8092,3.7044,3.6156,3.5251,3.485,3.4223,3.3433,3.2506,3.4124,3.5496,3.4861,3.3679,3.2149,3.0125,2.689,2.3128,1.9107,1.3813,0.9063,0.5549,0.1451,-0.1822,-0.3559,-0.5557,-0.7591,-0.9875,-1.0891,-1.2086,-1.3715,-1.4809,-1.5562,-1.5817,-1.7355,-1.8236,-1.8497,-2.0526,-2.1273,-2.09,-2.116,-2.2152,-2.3874,-2.4551,-2.6286,0.0,0.0,0.0,4.7919,4.8404,4.9045,5.2364,5.2832,5.2793,5.373,5.4238,5.4414,5.4023,5.268,5.1903,5.2351,5.146,5.0861,5.1251,4.9486,4.8338,4.9172,4.8676,4.8485,4.8816,4.9085,4.9071,4.8651,4.9382,4.9891,5.0152,5.0688,5.1009,5.1009,5.0081,4.9442,4.9291,4.8118,4.7558,4.7541,4.6735,4.6345,4.6266,4.5484,4.5295,4.5523,4.4889,4.5719,4.7405,4.6509,4.6136,4.6136,4.683,4.6289,4.5253,4.5689,4.5104,4.3923,4.3581,4.3129,4.2444,4.1157,4.0394,3.9875,3.9553,3.8793,3.823,3.8125,3.7263,3.6162,3.4981,3.2995,3.1501,3.1718,3.0647,2.9248,2.8476,3.0723,3.2519,3.1267,3.0172,2.8596,2.5851,2.2868,1.9545,1.5446,1.0538,0.6306,0.3593,-0.0447,-0.3645,-0.5514,-0.7567,-0.9875,-1.2399,-1.3612,-1.5102,-1.7096,-1.7465,-1.7866,-1.8631,-1.9267,-1.9904,-2.0673,-2.2696,-2.4331,-2.5693,-2.4946,-2.5231,-2.6451,-2.7378,-2.9697,4.288,0.0,0.0,0.0,0.0,0.0,4.783,4.8346,4.9043,5.0879,5.1094,5.1095,5.1421,5.0984,5.0246,4.9589,4.8953,4.8595,4.8846,4.713,4.6167,4.7066,4.6575,4.5899,4.5503,4.6694,4.7137,4.6506,4.7178,4.7982,4.8823,4.9182,4.9142,4.8849,4.812,4.76,4.706,4.6868,4.6549,4.6028,4.6014,4.5494,4.4609,4.4443,4.434,4.4214,4.3406,4.3399,4.4308,4.518,4.5804,4.6136,4.5626,4.4713,4.383,4.3829,4.2946,4.179,4.1039,4.0526,4.0045,3.9005,3.8397,3.8049,3.7723,3.6782,3.5655,3.5437,3.4492,3.3133,3.1504,3.0028,2.879,2.7743,2.655,2.5296,2.3796,2.3836,2.4867,2.6857,2.6078,2.4627,2.2867,1.9198,1.5539,1.241,0.7234,0.2914,0.055,-0.3156,-0.609,-0.7522,-0.9951,-1.2322,-1.4051,-1.5912,-1.7512,-1.8617,-1.9805,-2.0786,-2.1421,-2.2569,-2.3447,-2.4197,-2.6221,-2.728,-2.7499,-2.7029,-2.745,-2.876,-3.1133,-3.3992,0.0,0.0,4.3612,4.3403,0.0,0.0,4.5405,4.5934,4.6699,4.8691,4.9043,4.9106,4.9488,4.9053,4.8401,4.785,4.6815,4.6452,4.7252,4.5783,4.4877,4.5649,4.4866,4.4192,4.4224,4.5011,4.5416,4.5428,4.5644,4.6269,4.7295,4.7695,4.7761,4.7327,4.7021,4.6595,4.6234,4.5826,4.5595,4.5223,4.5151,4.4625,4.3736,4.3737,4.3554,4.3149,4.194,4.1761,4.2311,4.2627,4.3336,4.4141,4.3603,4.2774,4.1879,4.194,4.1105,3.9958,3.93,3.8962,3.8519,3.7016,3.6541,3.6425,3.5582,3.4622,3.3815,3.332,3.1731,2.9867,2.798,2.6722,2.555,2.3911,2.2375,2.0852,1.9016,1.787,1.8025,2.1371,2.11,1.9742,1.7981,1.4446,1.0977,0.7974,0.3517,-0.0434,-0.2993,-0.5911,-0.8452,-1.0371,-1.2311,-1.4613,-1.7173,-1.872,-2.0207,-2.1689,-2.2717,-2.3581,-2.4197,-2.534,-2.6221,-2.6841,-2.8596,-2.9911,-3.0896,-3.0045,-3.0469,-3.2198,-3.5152,-3.7753,0.0,0.0,0.0,0.0,4.2209,0.0,4.386,4.4238,4.4766,4.6387,4.6973,4.7266,4.7461,4.6728,4.6196,4.6336,4.5029,4.4578,4.6119,4.492,4.3965,4.4482,4.3485,4.3136,4.3981,4.3809,4.403,4.5033,4.4633,4.4749,4.5753,4.627,4.6529,4.6275,4.6293,4.6162,4.5943,4.496,4.4502,4.4709,4.3981,4.3455,4.3037,4.2873,4.2347,4.1762,4.0361,4.0265,4.0858,3.9306,3.9753,4.1368,4.1241,4.0501,3.947,3.9893,3.9271,3.812,3.7793,3.7652,3.7314,3.5075,3.4639,3.4698,3.3156,3.2475,3.1964,3.1036,2.8905,2.6468,2.4504,2.3139,2.1753,2.0027,1.797,1.5916,1.4153,1.2218,1.1661,1.4292,1.477,1.4134,1.1803,0.8951,0.5898,0.2717,-0.064,-0.3814,-0.6706,-0.8822,-1.096,-1.3494,-1.4851,-1.6959,-2.0644,-2.1552,-2.2949,-2.5339,-2.5893,-2.6356,-2.7101,-2.7747,-2.849,-2.9317,-3.0708,-3.2581,-3.5187,-3.383,-3.42,-3.6111,-3.8984,-4.1145,0.0,0.0,0.0,0.0,0.0,0.0,3.9671,3.9578,4.0137,4.1172,4.1152,4.1387,4.2793,4.2828,4.2455,4.1854,4.2953,4.4307,4.5364,4.3758,4.2619,4.3293,4.2605,4.2119,4.2342,4.2733,4.3221,4.3623,4.4282,4.4789,4.4986,4.5102,4.5136,4.5108,4.4713,4.4388,4.4144,4.3855,4.3219,4.2461,4.2211,4.1332,3.9953,3.9884,3.9459,3.8674,3.7968,3.7657,3.7807,3.6302,3.7524,4.0351,3.9795,3.8816,3.7519,3.7195,3.6139,3.4754,3.4032,3.368,3.3328,3.215,3.1642,3.1163,3.0454,2.9677,2.8511,2.6793,2.4641,2.2527,2.0964,1.8904,1.6903,1.5172,1.2639,1.0222,0.8251,0.6252,0.4144,0.1804,0.543,0.8314,0.6498,0.3555,0.0518,-0.2128,-0.5426,-0.84,-1.0588,-1.2686,-1.4666,-1.6321,-1.8374,-2.022,-2.1689,-2.4038,-2.5755,-2.6286,-2.8109,-2.953,-3.0603,-3.0995,-3.213,-3.4166,-3.5533,-3.6894,-3.8458,-3.7139,-3.737,-3.9053,-4.1382,-4.3818,0.0,0.0,0.0,4.0812,0.0,0.0,0.0,3.7797,3.8082,3.9259,3.9003,3.9003,4.067,4.0355,3.9951,4.0268,4.1138,4.1964,4.2622,4.2579,4.2543,4.2945,4.2121,4.1545,4.1697,4.2093,4.2426,4.2647,4.3066,4.3217,4.3214,4.3135,4.3124,4.302,4.2718,4.2591,4.2641,4.202,4.1389,4.0763,4.0615,3.9897,3.8604,3.8776,3.8282,3.7117,3.6433,3.6045,3.5605,3.445,3.5006,3.6382,3.6208,3.5698,3.4848,3.4386,3.346,3.2303,3.1706,3.1027,3.0354,2.9774,2.9102,2.8351,2.7511,2.6118,2.424,2.2197,2.0445,1.8626,1.6041,1.395,1.1813,0.8994,0.6069,0.323,0.0737,-0.167,-0.4131,-0.7052,-0.543,-0.3153,-0.1695,-0.3163,-0.5332,-0.7696,-1.0707,-1.3374,-1.5309,-1.7046,-1.8761,-2.0327,-2.194,-2.347,-2.4877,-2.6539,-2.7993,-2.8971,-3.0839,-3.2202,-3.3077,-3.4189,-3.5726,-3.7648,-3.9571,-4.1054,-4.208,-4.2735,-4.2882,-4.2645,-4.5272,-4.7993,0.0,0.0,0.0,0.0,0.0,3.8259,0.0,0.0,0.0,3.75,3.7222,3.724,3.8507,3.7783,3.7481,3.8828,3.9086,3.9154,3.9374,4.0836,4.1986,4.2087,4.1478,4.1103,4.1195,4.1123,4.1352,4.184,4.1527,4.1364,4.1464,4.1554,4.1453,4.1205,4.1065,4.1031,4.1155,4.0374,3.9644,3.9068,3.9002,3.8425,3.7566,3.7744,3.7053,3.568,3.4963,3.4307,3.3666,3.2745,3.2169,3.2058,3.2707,3.2722,3.22,3.1768,3.0938,3.0021,2.9591,2.8654,2.7643,2.7053,2.6001,2.4895,2.3863,2.1947,1.9568,1.7405,1.5891,1.4003,1.024,0.811,0.5826,0.2004,-0.1373,-0.442,-0.7388,-1.0152,-1.2653,-1.4858,-1.6036,-1.5133,-1.0323,-1.0372,-1.1773,-1.3812,-1.6231,-1.8489,-2.014,-2.1563,-2.289,-2.4572,-2.5656,-2.6851,-2.8603,-2.9351,-3.0469,-3.223,-3.3627,-3.4875,-3.5667,-3.7873,-3.9677,-4.1105,-4.3413,-4.5117,-4.609,-4.8456,-4.8652,-4.6856,-4.969,-5.2618,0.0,0.0,0.0,0.0,3.9029,0.0,0.0,0.0,3.4218,3.2815,0.0,3.3416,3.3618,0.0,0.0,3.4627,3.6171,3.7153,3.6683,3.7838,3.8967,3.9529,3.9885,3.9999,3.9994,3.9214,3.9368,4.1026,4.0207,4.0056,4.1043,4.1655,4.1699,4.0842,4.069,4.035,3.9699,3.9631,3.849,3.6473,3.7108,3.6519,3.4752,3.4806,3.404,3.2814,3.2328,3.1693,3.0741,2.9891,2.9426,2.9483,3.1367,3.1451,3.0478,2.955,2.8501,2.7488,2.6538,2.56,2.4556,2.3179,2.1375,1.9508,1.8828,1.7021,1.4715,1.2454,1.0073,0.7328,0.347,0.0533,-0.2398,-0.5987,-0.9402,-1.2598,-1.5564,-1.8234,-2.087,-2.3621,-2.4373,-2.2757,-1.7422,-1.7639,-1.8909,-2.0343,-2.2167,-2.3824,-2.4632,-2.6034,-2.727,-2.7989,-2.939,-3.0535,-3.1385,-3.2926,-3.4212,-3.5052,-3.6509,-3.8148,-3.9713,-4.2707,-4.4713,-4.5426,-4.6931,-4.8634,-5.0279,-5.2508,-5.2961,-5.1778,-5.4233,-5.6971,0.0,0.0,0.0,0.0,0.0,0.0,0.0,0.0,3.286,0.0,0.0,0.0,0.0,0.0,0.0,0.0,3.4245,3.473,3.471,3.5559,3.6732,3.8338,3.8505,3.8653,3.9183,3.8099,3.8169,3.9988,3.9234,3.8957,3.9574,4.0061,3.9809,3.8908,3.8368,3.775,3.6818,3.6231,3.5125,3.3566,3.4077,3.3755,3.2641,3.2492,3.1908,3.0824,3.0352,2.9336,2.8276,2.7737,2.7101,2.6591,2.6898,2.7296,2.759,2.6961,2.5733,2.4316,2.3525,2.2323,2.0828,1.8828,1.742,1.6151,1.3424,1.143,0.9432,0.5706,0.2765,-0.0267,-0.4355,-0.7836,-1.1444,-1.5912,-1.9417,-2.2726,-2.6383,-2.8745,-3.063,-3.2357,-3.3292,-3.2897,-3.028,-2.7272,-2.535,-2.5906,-2.7726,-2.9174,-2.9503,-3.0596,-3.1688,-3.2286,-3.32,-3.4144,-3.5082,-3.6201,-3.7506,-3.881,-4.0265,-4.2245,-4.4728,-4.6511,-4.7956,-4.9228,-5.1233,-5.317,-5.5066,-5.7313,-5.907,-6.0484,-6.0131,-6.1821,4.3335,0.0,0.0,0.0,0.0,0.0,0.0,0.0,0.0,0.0,0.0,0.0,0.0,0.0,3.1575,3.2925,0.0,3.2676,3.3169,3.3477,3.4437,3.6645,3.6884,3.6998,3.7649,3.6587,3.6604,3.846,3.7802,3.7622,3.8259,3.8581,3.8163,3.7053,3.6521,3.5631,3.4474,3.381,3.2643,3.1176,3.1887,3.1681,3.0702,3.0528,2.9845,2.876,2.8026,2.6861,2.5356,2.5185,2.4546,2.3655,2.2813,2.2796,2.3456,2.3701,2.2698,2.1151,2.0337,1.8637,1.6495,1.4449,1.3123,1.1539,0.771,0.5352,0.2917,-0.2039,-0.5609,-0.9024,-1.3843,-1.7878,-2.2012,-2.6707,-3.0197,-3.3408,-3.685,-3.8851,-4.0224,-4.092,-4.1748,-4.2182,-4.1504,-3.6191,-3.2053,-3.1896,-3.3336,-3.4369,-3.4337,-3.5166,-3.5952,-3.6397,-3.6891,-3.7737,-3.8992,-3.9667,-4.0885,-4.2785,-4.4163,-4.6239,-4.9041,-5.0138,-5.1623,-5.3616,-5.5499,-5.7707,-6.0094,-6.2346,-6.4948,-6.782,-6.5765,-6.6627,0.0,0.0,0.0,3.7456,0.0,0.0,0.0,0.0,3.1277,0.0,0.0,0.0,0.0,3.1856,0.0,0.0,3.1805,0.0,0.0,3.1409,3.1692,3.3797,3.4793,3.5182,3.5008,3.4103,3.4299,3.6292,3.5731,3.5909,3.7249,3.7883,3.7508,3.6001,3.5758,3.4971,3.3422,3.3422,3.2044,2.9504,3.1091,3.0796,2.88,2.8765,2.7658,2.5809,2.5224,2.3759,2.1771,2.1846,2.1318,2.0409,1.9943,1.8862,1.7802,1.95,1.9419,1.8122,1.6966,1.4395,1.1341,1.0287,0.7819,0.4573,0.1772,-0.1408,-0.5153,-1.0553,-1.4992,-1.9517,-2.5505,-3.0399,-3.4681,-3.8321,-4.169,-4.45,-4.6142,-4.7734,-4.8816,-4.9,-4.9525,-4.9576,-4.8443,-4.3301,-3.9109,-3.863,-3.8972,-3.9082,-3.8876,-3.965,-4.0137,-3.9994,-4.0746,-4.1747,-4.3036,-4.3737,-4.4951,-4.685,-4.8296,-4.9937,-5.1852,-5.3794,-5.6128,-5.8998,-5.9863,-6.1788,-6.5006,-6.7319,-6.9622,-7.1932,-7.036,-7.0887,0.0,0.0,4.1875,3.7997,0.0,0.0,0.0,0.0,0.0,0.0,0.0,0.0,0.0,0.0,0.0,0.0,0.0,3.0678,0.0,3.042,3.0983,3.1752,3.257,3.2988,3.2777,3.2922,3.3384,3.4174,3.4377,3.4745,3.5424,3.5765,3.5334,3.4241,3.3443,3.2294,3.0697,3.005,2.8818,2.6923,2.7401,2.6996,2.5644,2.4992,2.3871,2.2485,2.1452,2.0184,1.8795,1.8668,1.811,1.7444,1.6904,1.595,1.4937,1.6993,1.6721,1.5075,1.2706,0.9845,0.6881,0.4794,0.1577,-0.246,-0.7413,-1.2598,-1.7862,-2.3204,-2.8398,-3.3253,-3.7537,-4.1249,-4.4857,-4.8966,-5.1752,-5.3979,-5.6082,-5.7425,-5.8085,-5.7544,-5.7926,-5.7738,-5.6116,-5.3888,-5.051,-4.5426,-4.4765,-4.4798,-4.454,-4.4561,-4.4569,-4.4836,-4.4652,-4.5172,-4.699,-4.8325,-4.9756,-5.1401,-5.172,-5.2984,-5.5488,-5.7033,-5.9142,-6.2126,-6.4217,-6.6769,-6.9938,-7.2037,-7.4443,-7.7045,-7.7749,-7.7844,4.418,4.324,0.0,3.8413,3.6543,0.0,3.2058,0.0,0.0,0.0,0.0,0.0,0.0,0.0,0.0,0.0,0.0,0.0,0.0,2.9579,2.9977,2.988,3.1023,3.1803,3.1623,3.1727,3.2198,3.302,3.274,3.2942,3.374,3.3425,3.294,3.2304,3.1231,2.9952,2.8384,2.7667,2.6468,2.497,2.4772,2.424,2.3263,2.1961,2.0682,1.9414,1.8147,1.6842,1.5581,1.53,1.4529,1.3592,1.2878,1.1737,1.0749,1.341,1.2669,0.9868,0.7462,0.4272,0.0768,-0.2598,-0.6712,-1.1715,-1.8551,-2.4576,-3.0136,-3.5906,-4.129,-4.6052,-4.9621,-5.2879,-5.6192,-5.9826,-6.2269,-6.4169,-6.5529,-6.6607,-6.6782,-6.5523,-6.5443,-6.4937,-6.3176,-6.2356,-5.9345,-5.1875,-5.0616,-5.0285,-4.9663,-4.9246,-4.9078,-4.9189,-4.8676,-4.906,-5.0913,-5.2646,-5.4116,-5.5229,-5.5544,-5.6956,-5.9567,-6.0834,-6.2934,-6.6198,-6.8466,-7.1383,-7.478,-7.6661,-7.8899,-8.1449,-8.3628,-8.4038]},{"header":{"parameterUnit":"m.s-1","parameterCategory":1,"la1":30.6,"la2":29.2853,"lo1":-89.7004,"lo2":-87.6739,"dy":0.0162,"dx":0.0183,"nx":112,"ny":82,"refTime":"2023-10-09T18:00:00:Z","depth":0,"parameterNumber":3,"parameterNumberName":"V-component_of_WINDS"},"data":[0.0,0.0,0.0,0.0,0.0,0.0,0.0,0.0,0.0,0.0,0.0,0.0,0.0,0.0,0.0,0.0,0.0,0.0,0.0,0.0,0.0,0.0,0.0,0.0,0.0,0.0,0.0,0.0,0.0,0.0,0.0,0.0,0.0,0.0,0.0,0.0,0.0,0.0,0.0,0.0,0.0,0.0,0.0,0.0,0.0,0.0,0.0,0.0,0.0,0.0,0.0,0.0,0.0,0.0,0.0,0.0,0.0,0.0,0.0,0.0,0.0,0.0,0.0,0.0,0.0,0.0,0.0,0.0,0.0,0.0,0.0,0.0,0.0,0.0,0.0,0.0,0.0,0.0,0.0,0.0,0.0,0.0,0.0,0.0,0.0,0.0,0.0,0.0,0.0,0.0,6.8694,7.1426,7.5564,7.789,7.744,7.7019,7.402,6.7608,0.0,0.0,0.0,0.0,0.0,0.0,0.0,0.0,0.0,0.0,0.0,0.0,0.0,0.0,0.0,0.0,0.0,0.0,0.0,0.0,0.0,0.0,0.0,0.0,0.0,0.0,0.0,0.0,0.0,0.0,0.0,0.0,0.0,0.0,0.0,0.0,0.0,0.0,0.0,0.0,0.0,0.0,0.0,0.0,0.0,0.0,0.0,0.0,0.0,0.0,0.0,0.0,0.0,0.0,0.0,0.0,0.0,0.0,0.0,0.0,0.0,0.0,0.0,0.0,0.0,0.0,0.0,0.0,0.0,0.0,0.0,0.0,0.0,0.0,0.0,0.0,0.0,0.0,0.0,0.0,0.0,0.0,0.0,0.0,0.0,0.0,0.0,0.0,0.0,0.0,0.0,0.0,0.0,0.0,0.0,0.0,0.0,0.0,0.0,0.0,0.0,0.0,0.0,0.0,6.935,7.6985,7.8177,7.8706,7.9486,7.7607,7.4227,6.9251,0.0,0.0,0.0,0.0,0.0,0.0,0.0,0.0,0.0,0.0,0.0,0.0,0.0,0.0,0.0,0.0,0.0,0.0,0.0,0.0,0.0,0.0,0.0,0.0,0.0,0.0,0.0,0.0,0.0,0.0,0.0,0.0,0.0,0.0,0.0,0.0,0.0,0.0,0.0,0.0,0.0,0.0,0.0,0.0,0.0,0.0,0.0,0.0,0.0,0.0,0.0,0.0,0.0,0.0,0.0,0.0,0.0,0.0,0.0,0.0,0.0,0.0,0.0,0.0,0.0,0.0,0.0,0.0,0.0,0.0,0.0,0.0,0.0,0.0,0.0,0.0,0.0,0.0,0.0,0.0,0.0,0.0,0.0,0.0,0.0,0.0,0.0,0.0,0.0,0.0,0.0,0.0,0.0,0.0,0.0,0.0,0.0,0.0,0.0,0.0,0.0,0.0,0.0,6.9115,7.2917,7.9543,8.008,8.014,8.0573,7.8483,7.5241,7.0707,6.7392,0.0,0.0,0.0,0.0,0.0,0.0,0.0,0.0,0.0,0.0,0.0,0.0,0.0,0.0,0.0,0.0,0.0,0.0,0.0,0.0,0.0,0.0,0.0,0.0,0.0,0.0,0.0,0.0,0.0,0.0,0.0,0.0,0.0,0.0,0.0,0.0,0.0,0.0,0.0,0.0,0.0,0.0,0.0,0.0,0.0,0.0,0.0,0.0,0.0,0.0,0.0,0.0,0.0,0.0,0.0,0.0,0.0,0.0,0.0,0.0,0.0,0.0,0.0,0.0,0.0,0.0,0.0,0.0,0.0,0.0,0.0,0.0,0.0,0.0,0.0,0.0,0.0,0.0,0.0,0.0,0.0,0.0,0.0,0.0,0.0,0.0,0.0,0.0,0.0,0.0,0.0,0.0,0.0,0.0,0.0,0.0,0.0,0.0,0.0,0.0,0.0,0.0,7.4613,7.7109,8.1028,8.1568,8.157,8.1341,7.922,7.6046,7.1678,6.786,0.0,0.0,0.0,0.0,0.0,0.0,0.0,0.0,0.0,0.0,0.0,0.0,0.0,0.0,0.0,0.0,0.0,0.0,0.0,0.0,0.0,0.0,0.0,0.0,0.0,0.0,0.0,0.0,0.0,0.0,0.0,0.0,0.0,0.0,0.0,0.0,0.0,0.0,0.0,0.0,0.0,0.0,0.0,0.0,0.0,0.0,0.0,0.0,0.0,0.0,0.0,0.0,0.0,0.0,0.0,0.0,0.0,0.0,0.0,0.0,0.0,0.0,0.0,0.0,0.0,0.0,0.0,0.0,0.0,0.0,0.0,0.0,0.0,0.0,0.0,0.0,0.0,0.0,0.0,0.0,0.0,0.0,0.0,0.0,0.0,0.0,0.0,0.0,0.0,0.0,0.0,0.0,0.0,0.0,0.0,0.0,0.0,0.0,0.0,0.0,0.0,0.0,7.6667,8.106,8.2008,8.2716,8.278,8.2076,7.9386,7.5982,7.1699,6.7257,0.0,0.0,0.0,0.0,0.0,0.0,0.0,0.0,0.0,0.0,0.0,0.0,0.0,0.0,0.0,0.0,0.0,0.0,0.0,0.0,0.0,0.0,0.0,0.0,0.0,0.0,0.0,0.0,0.0,0.0,0.0,0.0,0.0,0.0,0.0,0.0,0.0,0.0,0.0,0.0,0.0,0.0,0.0,0.0,0.0,0.0,0.0,0.0,0.0,0.0,0.0,0.0,0.0,0.0,0.0,0.0,0.0,0.0,0.0,0.0,0.0,0.0,0.0,0.0,0.0,0.0,0.0,0.0,0.0,0.0,0.0,0.0,0.0,0.0,0.0,0.0,0.0,0.0,0.0,0.0,0.0,0.0,0.0,0.0,0.0,0.0,0.0,0.0,0.0,0.0,0.0,0.0,0.0,0.0,0.0,0.0,0.0,0.0,0.0,0.0,0.0,0.0,7.7172,8.0807,0.0,8.3279,8.2874,8.2172,7.9921,7.6682,7.2325,0.0,0.0,0.0,0.0,0.0,0.0,0.0,0.0,0.0,0.0,0.0,0.0,0.0,0.0,0.0,0.0,0.0,0.0,0.0,0.0,0.0,0.0,0.0,0.0,0.0,0.0,0.0,0.0,0.0,0.0,0.0,0.0,0.0,0.0,0.0,0.0,0.0,0.0,0.0,0.0,0.0,0.0,0.0,0.0,0.0,0.0,0.0,0.0,0.0,0.0,0.0,0.0,0.0,0.0,0.0,0.0,0.0,0.0,0.0,0.0,0.0,0.0,0.0,0.0,0.0,0.0,0.0,0.0,0.0,0.0,0.0,0.0,0.0,0.0,0.0,0.0,0.0,0.0,0.0,0.0,0.0,0.0,0.0,0.0,0.0,0.0,0.0,0.0,0.0,0.0,0.0,0.0,0.0,0.0,0.0,0.0,0.0,0.0,0.0,0.0,0.0,0.0,7.4233,7.831,8.1755,0.0,8.4033,8.3475,8.2844,8.0569,7.7371,7.3102,0.0,0.0,0.0,0.0,0.0,0.0,0.0,0.0,0.0,0.0,0.0,0.0,0.0,0.0,0.0,0.0,0.0,0.0,0.0,0.0,0.0,0.0,0.0,0.0,0.0,0.0,0.0,0.0,0.0,0.0,0.0,0.0,0.0,0.0,0.0,0.0,0.0,0.0,0.0,0.0,0.0,0.0,0.0,0.0,0.0,0.0,0.0,0.0,0.0,0.0,0.0,0.0,0.0,0.0,0.0,0.0,0.0,0.0,0.0,0.0,0.0,0.0,0.0,0.0,0.0,0.0,0.0,0.0,0.0,0.0,0.0,0.0,0.0,0.0,0.0,0.0,0.0,0.0,0.0,0.0,0.0,0.0,0.0,0.0,0.0,0.0,0.0,0.0,0.0,0.0,0.0,0.0,0.0,0.0,0.0,0.0,0.0,0.0,0.0,0.0,0.0,0.0,7.4581,8.0427,8.4567,8.5263,8.5028,8.4659,8.4218,8.1298,7.7829,0.0,0.0,0.0,0.0,0.0,0.0,0.0,0.0,0.0,0.0,0.0,0.0,0.0,0.0,0.0,0.0,0.0,0.0,0.0,0.0,0.0,0.0,0.0,0.0,0.0,0.0,0.0,0.0,0.0,0.0,0.0,0.0,0.0,0.0,0.0,0.0,0.0,0.0,0.0,0.0,0.0,0.0,0.0,0.0,0.0,0.0,0.0,0.0,0.0,0.0,0.0,0.0,0.0,0.0,0.0,0.0,0.0,0.0,0.0,0.0,0.0,0.0,0.0,0.0,0.0,0.0,0.0,0.0,0.0,0.0,0.0,0.0,0.0,0.0,0.0,0.0,0.0,0.0,0.0,0.0,0.0,0.0,0.0,0.0,0.0,0.0,0.0,0.0,0.0,0.0,0.0,0.0,0.0,0.0,0.0,0.0,0.0,0.0,0.0,0.0,0.0,0.0,0.0,7.6667,8.2166,8.5967,8.6361,8.5892,8.5267,8.47,8.1932,7.8312,7.3868,0.0,0.0,0.0,0.0,0.0,0.0,0.0,0.0,0.0,0.0,0.0,0.0,0.0,0.0,0.0,0.0,0.0,0.0,0.0,0.0,0.0,0.0,0.0,0.0,0.0,0.0,0.0,0.0,0.0,0.0,0.0,0.0,0.0,0.0,0.0,0.0,0.0,0.0,0.0,0.0,0.0,0.0,0.0,0.0,0.0,0.0,0.0,0.0,0.0,0.0,0.0,0.0,0.0,0.0,0.0,0.0,0.0,0.0,0.0,0.0,0.0,0.0,0.0,0.0,0.0,0.0,0.0,0.0,0.0,0.0,0.0,0.0,0.0,0.0,0.0,0.0,0.0,0.0,0.0,0.0,0.0,0.0,0.0,0.0,0.0,0.0,0.0,0.0,0.0,0.0,0.0,0.0,0.0,0.0,0.0,0.0,0.0,0.0,0.0,0.0,0.0,0.0,7.752,8.2671,8.6284,8.7163,8.669,8.6066,8.5664,8.3282,7.9828,7.5164,0.0,0.0,0.0,0.0,0.0,0.0,0.0,0.0,0.0,0.0,0.0,0.0,0.0,0.0,0.0,0.0,0.0,0.0,0.0,0.0,0.0,0.0,0.0,0.0,0.0,0.0,0.0,0.0,0.0,0.0,0.0,0.0,0.0,0.0,0.0,0.0,0.0,0.0,0.0,0.0,0.0,0.0,0.0,0.0,0.0,0.0,0.0,0.0,0.0,0.0,0.0,0.0,0.0,0.0,0.0,0.0,0.0,0.0,0.0,0.0,0.0,0.0,0.0,0.0,0.0,0.0,0.0,0.0,0.0,0.0,0.0,0.0,0.0,0.0,0.0,0.0,0.0,0.0,0.0,0.0,0.0,0.0,0.0,0.0,0.0,0.0,0.0,0.0,0.0,0.0,0.0,0.0,0.0,0.0,0.0,0.0,0.0,0.0,0.0,0.0,0.0,0.0,7.774,8.261,8.6288,8.8031,8.7589,8.7125,8.7113,8.5115,8.1916,7.7358,0.0,0.0,0.0,0.0,0.0,0.0,0.0,0.0,0.0,0.0,0.0,0.0,0.0,0.0,0.0,0.0,0.0,0.0,0.0,0.0,0.0,0.0,0.0,0.0,0.0,0.0,0.0,0.0,0.0,0.0,0.0,0.0,0.0,0.0,0.0,0.0,0.0,0.0,0.0,0.0,0.0,0.0,0.0,0.0,0.0,0.0,0.0,0.0,0.0,0.0,0.0,0.0,0.0,0.0,0.0,0.0,0.0,0.0,0.0,0.0,6.6647,6.2353,0.0,0.0,0.0,0.0,0.0,0.0,0.0,0.0,0.0,0.0,0.0,0.0,0.0,0.0,0.0,0.0,0.0,0.0,0.0,0.0,0.0,0.0,0.0,0.0,0.0,0.0,0.0,0.0,0.0,0.0,0.0,0.0,0.0,0.0,0.0,0.0,0.0,0.0,0.0,0.0,7.9941,8.4976,8.8768,9.0317,8.9527,8.8827,8.8571,8.6317,8.3302,7.9471,7.5864,0.0,0.0,0.0,0.0,0.0,0.0,0.0,0.0,0.0,0.0,0.0,0.0,0.0,0.0,0.0,0.0,0.0,0.0,0.0,0.0,0.0,0.0,0.0,0.0,0.0,0.0,0.0,0.0,0.0,0.0,0.0,0.0,0.0,0.0,0.0,0.0,0.0,0.0,0.0,0.0,0.0,0.0,0.0,0.0,0.0,0.0,0.0,0.0,0.0,0.0,0.0,0.0,0.0,0.0,0.0,0.0,0.0,0.0,0.0,7.3565,6.9756,0.0,0.0,0.0,0.0,0.0,0.0,0.0,0.0,0.0,0.0,0.0,0.0,0.0,0.0,0.0,0.0,0.0,0.0,0.0,0.0,0.0,0.0,0.0,0.0,0.0,0.0,0.0,0.0,0.0,0.0,0.0,0.0,0.0,0.0,0.0,0.0,0.0,0.0,0.0,0.0,8.1627,8.6326,8.9855,9.1277,9.0574,8.9934,8.9771,8.7965,8.5374,8.2189,7.9205,0.0,0.0,0.0,0.0,0.0,0.0,0.0,0.0,0.0,0.0,0.0,0.0,0.0,0.0,0.0,0.0,0.0,0.0,0.0,0.0,0.0,0.0,0.0,0.0,0.0,0.0,0.0,0.0,0.0,0.0,0.0,0.0,0.0,0.0,0.0,0.0,0.0,0.0,0.0,0.0,0.0,0.0,0.0,0.0,0.0,0.0,0.0,0.0,0.0,0.0,0.0,0.0,0.0,8.4208,8.5368,8.5401,8.5938,8.6488,8.6815,8.1907,7.9244,7.8078,7.3941,0.0,0.0,0.0,0.0,0.0,0.0,0.0,0.0,0.0,0.0,0.0,0.0,0.0,0.0,0.0,0.0,0.0,0.0,0.0,0.0,0.0,0.0,0.0,0.0,7.5968,7.6477,7.1263,0.0,0.0,0.0,0.0,0.0,0.0,0.0,0.0,0.0,0.0,0.0,8.3225,8.7557,9.065,9.2039,9.1622,9.1108,9.0745,8.9691,8.7787,8.4898,8.2855,8.0339,0.0,0.0,0.0,0.0,0.0,0.0,0.0,0.0,0.0,0.0,0.0,0.0,0.0,0.0,0.0,0.0,0.0,0.0,0.0,0.0,0.0,0.0,0.0,0.0,0.0,0.0,0.0,0.0,0.0,0.0,0.0,0.0,7.2133,7.519,0.0,0.0,0.0,0.0,0.0,0.0,0.0,0.0,0.0,0.0,0.0,0.0,0.0,8.3742,8.5316,8.774,8.931,9.0039,9.355,9.524,9.5175,9.4683,9.4448,9.4481,9.2471,0.0,8.041,7.7924,0.0,0.0,0.0,0.0,0.0,0.0,0.0,0.0,0.0,0.0,0.0,0.0,0.0,0.0,0.0,0.0,0.0,0.0,0.0,0.0,0.0,0.0,8.1029,8.1887,8.179,8.1281,0.0,7.5182,7.0181,6.841,6.6733,0.0,0.0,0.0,0.0,0.0,0.0,0.0,8.5305,8.9701,9.2817,9.3904,9.3923,9.3137,9.1227,9.1117,8.9949,8.7038,8.5417,8.3763,8.2032,7.8126,0.0,0.0,0.0,0.0,0.0,0.0,0.0,0.0,0.0,0.0,0.0,0.0,0.0,0.0,0.0,0.0,0.0,0.0,0.0,0.0,0.0,0.0,0.0,0.0,0.0,0.0,0.0,0.0,0.0,7.1908,7.6177,7.8276,7.7212,7.5651,0.0,0.0,0.0,0.0,0.0,0.0,0.0,0.0,0.0,8.9453,9.0444,9.1816,9.3674,9.5669,9.6598,9.6532,9.8983,10.0142,10.0074,9.9592,9.9384,9.9249,9.7335,9.3966,8.935,8.4585,8.0874,7.7829,0.0,0.0,0.0,0.0,7.3951,7.3099,7.6754,7.7109,7.5977,7.5567,0.0,0.0,0.0,0.0,0.0,0.0,0.0,7.4564,7.7831,8.0904,8.3378,8.4621,8.5357,8.5323,8.3752,8.0935,7.7951,0.0,7.3327,7.1369,6.9681,0.0,0.0,0.0,0.0,8.3819,8.8506,9.1821,9.404,9.4874,9.4617,9.3892,9.2699,9.252,9.1318,8.8647,8.8065,8.687,8.4805,8.1857,7.8797,0.0,0.0,0.0,0.0,0.0,0.0,0.0,0.0,0.0,0.0,0.0,0.0,0.0,0.0,0.0,0.0,0.0,0.0,0.0,0.0,0.0,0.0,0.0,0.0,0.0,0.0,0.0,0.0,7.7217,8.0438,8.1573,8.2291,8.1458,0.0,0.0,0.0,0.0,0.0,0.0,8.9617,9.1281,9.3561,9.6527,9.7691,9.9016,10.0672,10.1898,10.2196,10.1401,10.2726,10.3322,10.3252,10.3002,10.2689,10.2426,10.0465,9.8808,9.6981,9.0648,8.6726,8.4499,8.1436,7.9966,7.985,8.1362,8.0795,7.9941,8.4055,8.4432,8.2998,8.2523,8.157,7.9856,7.5814,0.0,0.0,0.0,0.0,7.8407,8.2075,8.4174,8.5609,8.6535,8.7793,8.8116,8.5722,8.519,8.4374,0.0,7.9524,7.7595,7.5234,0.0,0.0,0.0,8.249,8.6917,9.075,9.313,9.4772,9.5342,9.4848,9.4252,9.3583,9.324,9.2139,8.9962,9.0072,8.9301,8.7386,8.5587,8.3065,7.9867,0.0,0.0,0.0,0.0,0.0,0.0,0.0,0.0,0.0,0.0,0.0,0.0,0.0,0.0,0.0,0.0,0.0,0.0,0.0,0.0,0.0,0.0,0.0,0.0,0.0,0.0,0.0,0.0,0.0,8.6797,8.9194,0.0,0.0,0.0,0.0,8.9478,9.1044,9.3553,9.7268,9.8275,10.0085,10.3028,10.3886,10.4283,10.4383,10.5178,10.5211,10.4482,10.5277,10.5608,10.5608,10.5174,10.4666,10.3908,10.2784,10.1492,9.9718,9.4616,9.1583,9.006,8.8571,8.7341,8.6501,8.6533,8.6723,8.7005,8.7293,8.7675,8.8222,8.8492,8.6758,8.4088,8.1185,7.9726,0.0,0.0,8.1216,8.3591,8.6845,8.8694,8.9584,8.9017,8.9197,8.9206,8.7999,8.6892,8.5719,0.0,8.3002,8.2461,8.2222,0.0,8.1794,8.3554,8.5268,8.7533,9.0783,9.3365,9.5009,9.5342,9.5045,9.4312,9.2888,9.2722,9.2247,9.0998,9.0959,9.0714,9.0211,8.8763,8.603,8.1917,7.9239,0.0,0.0,0.0,0.0,0.0,0.0,0.0,0.0,0.0,0.0,0.0,0.0,0.0,0.0,0.0,0.0,0.0,0.0,0.0,0.0,0.0,0.0,0.0,0.0,0.0,0.0,0.0,0.0,9.1883,9.3495,0.0,9.1362,9.2494,9.4026,9.5498,9.8515,10.1318,10.3573,10.4404,10.5293,10.6403,10.7132,10.7298,10.6801,10.7993,10.7993,10.6801,10.7099,10.7198,10.7198,10.6589,10.6384,10.6516,10.493,10.3731,10.2606,10.0105,9.7498,9.4977,9.3579,9.266,9.2094,9.2094,9.1692,9.1257,9.1257,9.0959,9.0496,9.0184,8.935,8.8484,8.7927,8.7572,8.7537,8.8275,8.8567,8.9219,9.1751,9.2282,9.2108,9.1852,9.2065,9.178,9.0006,8.9151,8.8586,8.7971,8.6011,8.4411,8.4402,8.4759,8.5276,8.6143,8.8474,9.0945,9.3299,9.4549,9.5375,9.5772,9.5274,9.4478,9.3484,9.3143,9.2234,9.0426,9.0474,9.0118,8.9031,8.8636,8.7295,8.4884,8.2865,7.8652,0.0,0.0,0.0,0.0,0.0,0.0,0.0,0.0,0.0,0.0,0.0,0.0,0.0,0.0,0.0,0.0,0.0,0.0,0.0,0.0,0.0,0.0,0.0,0.0,0.0,8.9555,9.4019,9.5601,9.7866,9.862,9.6904,9.8677,10.0319,10.1319,10.4578,10.6931,10.7815,10.8671,10.9235,10.9087,10.9815,10.9815,10.9087,11.0279,11.0279,10.9087,10.9087,10.9087,10.9087,10.859,10.849,10.8689,10.7169,10.6105,10.5273,10.4396,10.2495,9.9974,9.8025,9.7021,9.6667,9.644,9.591,9.5277,9.5019,9.4298,9.3378,9.2671,9.2446,9.2478,9.2596,9.291,9.3385,9.3699,9.3451,9.341,9.4634,9.4464,9.3873,9.339,9.354,9.3157,9.0931,9.0646,9.0722,9.0306,8.8621,8.7271,8.7275,8.8247,8.9024,8.8895,9.1109,9.3136,9.4221,9.498,9.5475,9.5572,9.4975,9.4213,9.3484,9.2405,9.1387,9.0447,8.9717,8.9047,8.8516,8.8092,8.7228,8.5801,8.3867,8.0517,7.5838,0.0,0.0,0.0,0.0,0.0,0.0,0.0,0.0,0.0,0.0,0.0,0.0,0.0,0.0,0.0,0.0,0.0,0.0,0.0,0.0,0.0,0.0,0.0,8.986,9.3994,9.7461,9.824,10.2549,10.4506,10.2286,10.5073,10.7008,10.7008,10.9083,11.0209,10.9744,11.1068,11.1684,11.1207,11.2002,11.2002,11.1372,11.2002,11.2002,11.1306,11.1207,11.1207,11.1207,11.1207,11.0809,11.018,10.9484,10.8722,10.7993,10.7298,10.6317,10.4988,10.2126,10.0694,10.0197,9.9517,9.9225,9.9096,9.8383,9.7638,9.6926,9.6278,9.6052,9.5851,9.4852,9.5522,9.6312,9.5316,9.5427,9.582,9.5507,9.5457,9.5071,9.3648,9.3572,9.3129,9.0757,9.1265,9.195,9.0868,9.0989,9.128,9.127,9.2413,9.2936,9.1959,9.2942,0.0,9.3432,9.4552,9.5277,9.4877,9.4213,9.3451,9.2722,9.0344,8.958,9.1375,8.8763,8.7743,8.9072,8.7441,8.5936,8.4756,8.2282,8.0505,7.9593,0.0,0.0,0.0,0.0,0.0,0.0,0.0,0.0,0.0,0.0,0.0,0.0,0.0,0.0,0.0,0.0,0.0,0.0,0.0,0.0,0.0,9.2295,9.6466,9.5763,10.0129,10.369,10.4808,10.6689,10.7517,10.5995,10.7973,10.925,10.925,11.1808,11.2994,11.2386,11.3216,11.3205,11.2002,11.3227,11.3526,11.283,11.3029,11.3294,11.3625,11.2002,11.1505,11.2002,11.1439,11.1107,11.0909,11.071,11.0213,10.9484,10.8788,10.7805,10.6643,10.4416,10.3024,10.2133,10.1122,10.0067,9.9233,9.9224,9.86,9.7865,9.8189,9.7962,9.7574,9.7785,9.7785,9.7552,9.6996,9.6392,9.5987,9.6134,9.56,9.494,9.4552,9.4525,9.4303,9.3032,9.2709,9.2583,9.2568,9.3056,9.3186,9.2118,9.2872,9.3529,9.3269,9.4189,9.4914,9.4848,9.5409,9.5374,9.4246,9.3641,9.3099,9.2334,9.0874,9.027,9.0934,8.955,8.9087,8.9827,8.9228,8.8475,8.7588,8.477,8.2878,0.0,0.0,0.0,0.0,0.0,0.0,0.0,0.0,0.0,0.0,0.0,0.0,0.0,0.0,0.0,0.0,0.0,0.0,0.0,0.0,0.0,0.0,9.8227,10.2485,10.308,10.5212,10.7333,10.8906,10.9523,10.9836,10.9711,11.0504,11.1207,11.1505,11.3691,11.4784,11.4321,11.5016,11.5016,11.4188,11.4685,11.4784,11.4321,11.4321,11.4519,11.4917,11.3691,11.3294,11.3691,11.2929,11.2399,11.2101,11.1803,11.1306,11.0577,11.018,10.9599,10.8713,0.0,0.0,0.0,0.0,10.2133,10.1303,10.1784,10.08,9.9314,9.9914,9.9193,9.8254,9.8966,9.9096,9.8861,9.8351,9.8012,9.7631,9.7221,9.6492,9.5695,9.5404,9.5112,9.4627,9.3623,9.3436,9.341,9.3323,9.4115,0.0,9.412,9.4745,9.5339,9.5177,9.5672,9.6003,9.5673,9.587,9.5571,9.4378,9.42,9.3824,9.3091,9.1516,0.0,0.0,0.0,8.8741,8.9106,8.9387,0.0,0.0,0.0,8.7294,8.7463,8.6518,0.0,0.0,8.3057,8.3153,0.0,0.0,0.0,0.0,0.0,0.0,0.0,0.0,0.0,0.0,0.0,0.0,0.0,0.0,0.0,0.0,10.3697,10.8444,11.0378,10.9473,10.9413,11.1331,11.1298,11.1642,11.2799,11.2794,11.3039,11.3526,11.5128,11.5923,11.5679,11.6573,0.0,0.0,0.0,11.5878,11.5679,11.5679,11.5778,11.5811,11.5724,11.5724,11.5679,11.495,11.4287,11.3625,11.2896,11.22,11.1604,11.1405,11.1306,11.0767,10.7088,10.5401,10.4965,10.4908,10.4578,10.4311,10.4908,0.0,0.0,10.1423,10.0108,9.865,9.9225,9.9743,9.997,9.9355,9.9517,9.9549,9.8318,9.7444,9.6732,9.6116,9.5571,9.4729,9.34,9.3868,9.4369,9.3686,9.4648,9.5771,9.6563,9.7189,9.7454,9.726,9.7161,9.6863,9.62,9.6068,9.5703,9.4875,9.5128,0.0,9.4319,9.2299,9.1741,9.319,9.025,8.843,8.843,8.9388,9.0268,9.0945,9.1656,9.2822,9.4437,9.522,9.5662,9.556,8.8192,8.7743,0.0,0.0,0.0,0.0,0.0,0.0,0.0,0.0,0.0,0.0,0.0,0.0,0.0,0.0,0.0,10.172,10.6236,10.9969,11.2483,11.305,11.3222,11.3098,11.3201,11.3322,11.3315,11.4565,11.5141,11.4321,11.7089,11.8132,11.6653,11.8296,11.8495,11.6772,11.77,11.77,11.6474,11.6474,11.6772,11.7368,11.6458,0.0,11.6474,11.6138,11.5594,11.5116,11.442,11.4022,11.3824,11.2598,11.1704,11.0965,10.9298,10.8129,10.7203,10.6979,10.6205,10.5381,10.5154,10.4588,10.3736,10.2867,10.1873,10.1125,10.0886,10.0197,0.0,9.9225,9.8416,9.7541,9.7282,9.6699,9.6149,9.6019,9.6068,9.5921,9.5075,9.5353,9.5562,9.5077,9.567,9.6596,9.769,9.7525,9.7393,9.789,9.7492,9.7062,9.6929,9.6366,9.5505,9.4146,9.4586,9.4599,9.3863,9.3332,9.3478,9.4298,9.3985,9.3636,9.3309,9.4549,9.5283,9.5511,9.6262,9.6808,9.714,9.7891,9.8574,9.9086,9.607,9.5247,0.0,0.0,0.0,0.0,0.0,0.0,0.0,0.0,0.0,0.0,0.0,9.0389,9.3301,0.0,10.2693,10.6081,10.924,11.2025,11.4303,11.4929,11.5018,11.4903,11.5495,11.6014,11.6109,11.6964,11.7587,11.7587,11.9123,11.9822,11.9182,11.9913,11.9898,11.8892,11.929,11.9091,11.8395,11.7998,11.7998,11.8296,11.7442,11.7143,11.7203,11.6711,11.5869,11.5016,11.4718,11.4122,11.3393,11.3029,11.2631,11.2234,11.1309,11.0244,10.9214,10.8506,10.7805,10.711,10.6898,10.5844,10.4301,10.3645,10.2624,10.1523,10.0863,10.0701,10.0426,9.946,9.8901,9.8448,9.7736,9.7315,9.703,9.6885,9.6929,9.6911,9.6332,9.6717,9.6957,9.6594,9.7093,9.7857,9.8585,9.842,9.842,9.9149,9.832,9.7824,9.8388,9.7359,9.653,9.6521,9.6809,9.693,9.6717,9.6506,9.6345,9.6345,9.6647,9.6767,9.6647,9.8121,9.9035,9.9035,10.031,10.0986,10.0986,10.1922,10.2582,10.3084,10.2803,10.1865,0.0,0.0,0.0,0.0,0.0,0.0,0.0,8.2949,8.5554,8.9207,9.3622,9.7586,10.0214,10.4001,10.7459,10.9675,11.1987,11.4144,11.5751,11.6383,11.6948,11.7305,11.7654,11.8263,11.922,11.9172,11.9566,12.0535,12.0702,12.0954,12.1653,12.122,12.1024,12.1112,12.0515,12.0118,12.0018,11.9389,11.9124,11.9091,11.841,11.8078,11.7998,11.7316,11.6321,11.5116,11.5016,11.4122,11.2797,11.3393,11.3625,11.3526,11.283,11.2004,11.1211,10.9798,10.8995,10.8638,10.8506,10.6849,10.4995,10.4628,10.3573,10.2409,10.1311,10.1506,10.1784,10.0117,9.9905,9.9905,9.8715,9.8463,9.8412,9.8052,9.7997,9.8011,9.7568,9.8017,9.8387,9.7919,9.8189,9.8587,9.9017,9.9049,9.9347,10.0209,9.9215,9.872,9.9685,9.8388,9.7856,9.9078,9.9275,9.9436,9.9757,9.9598,9.9176,9.8662,9.9098,9.947,9.9564,10.1166,10.217,10.2273,10.3814,10.4625,10.4701,10.567,10.6394,10.6801,10.8044,10.7139,7.2022,7.4458,7.8416,8.2408,8.3558,8.6027,0.0,9.6379,9.7022,10.01,10.2789,10.4939,10.5775,10.7269,10.9023,11.1224,11.3785,11.586,11.7077,11.9188,12.0819,12.1212,11.9782,11.922,12.0321,12.0388,12.0535,12.0602,12.1201,12.1505,12.1194,12.1691,12.1724,12.1112,12.1012,12.0714,12.0018,11.9919,11.9886,11.9886,11.9495,11.9129,11.8793,11.8398,11.7886,11.7401,11.6706,11.5613,11.4321,11.4321,11.442,11.4321,11.3592,11.3581,11.3713,11.1107,10.9617,10.8913,10.8284,10.8284,10.8276,10.6577,10.6404,10.6288,10.4232,10.3226,10.2598,10.1414,10.0618,10.0108,9.9661,9.9793,9.9914,9.9194,9.9487,9.9772,9.9112,9.9318,9.9386,9.8687,9.8088,9.7822,9.8222,9.8287,9.8751,10.0109,9.9645,9.9317,9.9785,9.9086,9.8685,9.9112,9.9436,9.9757,10.0075,10.0419,10.0595,10.08,10.2059,10.2884,10.3181,10.4401,10.5282,10.5977,10.621,10.6593,10.7288,10.8088,10.8635,10.8609,11.0069,10.9781,8.146,8.2949,8.4573,8.7719,9.0797,9.4011,9.7631,9.9897,10.1896,10.4167,10.6999,10.9083,10.9175,11.1013,11.2677,11.3582,11.5626,11.7368,11.8293,11.9724,12.0886,12.1413,12.107,12.1196,12.2239,12.2707,12.2788,12.2662,12.3137,12.3127,12.2482,12.2469,12.2288,12.1774,12.1708,12.1807,12.1907,12.1012,12.088,12.1277,12.0281,11.9684,11.9521,11.9386,11.8789,11.77,11.6573,11.5712,11.5116,11.4718,11.4519,11.442,11.3724,11.3327,11.3095,11.1902,11.1207,11.0909,11.0113,10.9815,10.9509,10.7777,10.7317,10.7021,10.492,10.4312,10.3997,10.2798,10.201,10.1372,10.11,10.0615,10.0323,10.0482,10.0433,10.031,10.0182,10.0485,10.0385,9.9286,9.9152,9.8951,9.8321,9.8519,9.8951,9.9318,9.9518,9.9885,10.0585,10.0315,10.0306,10.1261,10.2085,10.2407,10.2125,10.278,10.333,10.3488,10.4375,10.5178,10.5808,10.6906,10.7607,10.792,10.8622,10.9085,10.967,11.0227,11.0794,11.148,11.2363,11.2462,8.6966,8.8723,9.0007,9.2439,9.6724,10.0303,10.0202,10.2705,10.5615,10.7135,10.9599,11.1627,11.1713,11.3627,11.531,11.5512,11.7414,11.9017,11.9276,12.0428,12.1189,12.1492,12.1995,12.2667,12.3552,12.4016,12.4183,12.4128,12.4398,12.4356,12.3787,12.3613,12.3267,12.3018,12.2818,12.3,12.3497,12.2503,12.2105,12.247,12.1178,12.0515,12.0317,12.0118,11.929,11.7998,11.6971,11.6275,11.5878,11.5314,11.5016,11.4784,11.4221,11.3592,11.2929,11.2929,11.2532,11.1902,11.1207,11.0875,11.0502,10.8774,10.8271,10.7942,10.5843,10.5288,10.5202,10.3997,10.337,10.2971,10.2787,10.2318,10.1861,10.2236,10.2047,10.1717,10.1788,10.1822,10.1587,10.0485,10.0285,9.985,9.8554,9.8986,9.9219,9.8487,9.945,10.0516,10.1117,10.1275,10.169,10.2602,10.3906,10.4407,10.3827,10.4915,10.5576,10.57,10.6519,10.7323,10.7905,10.8911,10.951,10.9604,11.0403,11.0928,11.1212,11.1908,11.2618,11.3366,11.4193,11.4683,8.5098,8.9057,9.3661,9.6596,10.0387,10.3821,10.5208,10.7373,10.92,11.0012,11.1117,11.2281,11.3694,11.467,11.5478,11.6185,11.9081,12.1108,12.0398,12.208,12.3195,12.2452,12.2529,12.2833,12.3466,12.3599,12.368,12.4128,12.4398,12.4557,12.4557,12.4781,12.4898,12.4931,12.4512,12.4226,12.4292,12.4226,12.3894,12.3199,12.247,12.1774,12.1012,12.0317,11.9588,11.8892,11.8793,11.7998,11.6673,11.6606,11.6176,11.5579,11.5513,11.5083,11.442,11.442,11.3095,11.1107,11.0478,11.1107,11.1902,10.9815,10.9713,11.0025,10.7541,10.6496,10.5918,10.4775,10.4504,10.4474,10.5031,10.528,10.5387,10.4729,10.4908,10.5011,10.4304,10.3496,10.3025,10.3025,10.1517,9.9982,9.8885,9.9319,9.9286,9.7854,9.9668,10.1092,10.0871,10.2093,10.2772,10.2432,10.3724,10.4612,10.4612,10.5823,10.6801,10.7073,10.8373,10.9398,10.9728,11.0464,11.1062,11.1284,11.1413,11.1413,11.1355,11.287,11.3467,11.3272,11.5216,11.6006,8.9718,9.3205,9.652,10.0201,10.3664,10.6528,10.7779,10.9775,11.1194,11.0676,11.1117,11.159,11.1915,11.3508,11.5347,11.6489,11.9781,12.1886,12.1108,12.2495,12.3002,12.1209,12.2292,12.3104,12.2901,12.3546,12.433,12.52,12.5299,12.5424,12.5669,12.5314,12.4998,12.4998,12.4545,12.4524,12.5021,12.4928,12.4678,12.4623,12.3397,12.2503,12.1774,12.1078,12.0615,12.0317,11.982,11.9323,11.8892,11.8395,11.77,11.7004,11.6507,11.5878,11.5215,11.5215,11.442,11.3327,11.2598,11.2996,11.3382,11.1497,11.1112,11.0881,10.882,10.7868,10.746,10.6865,10.619,10.581,10.6783,10.6509,10.6213,10.6517,10.5919,10.5179,10.4571,10.3834,10.2792,10.1789,10.1117,10.0309,9.9214,9.9411,9.9702,9.9645,10.0206,10.0899,10.2007,10.2625,10.3317,10.4414,10.5376,10.612,10.6333,10.7393,10.8236,10.8572,10.9199,11.0032,11.078,11.1062,11.1413,11.1701,11.1701,11.1926,11.2188,11.2915,11.334,11.3297,11.4892,11.547,9.3573,9.6645,9.9182,10.2894,10.5883,10.8177,10.923,11.0619,11.1599,11.108,11.0819,11.0686,11.105,11.261,11.4376,11.5898,11.9484,12.1818,12.1108,12.2495,12.3002,12.1277,12.2596,12.351,12.3307,12.3996,12.486,12.5765,12.6107,12.6369,12.693,12.6414,12.6016,12.6016,12.5427,12.5319,12.5816,12.5574,12.5475,12.5418,12.3927,12.3,12.2503,12.1807,12.131,12.1112,12.0317,11.9886,11.9521,11.8793,11.8196,11.7766,11.7302,11.6606,11.5977,11.5977,11.5712,11.5116,11.3824,11.3724,11.3779,11.2092,11.1453,11.1187,10.9882,10.8938,10.8288,10.8152,10.7531,10.7008,10.7995,10.7722,10.7189,10.7834,10.7134,10.6089,10.5616,10.4674,10.3697,10.2492,10.1985,10.1405,10.017,9.9787,10.0023,10.0916,10.0446,10.0507,10.2205,10.2883,10.3692,10.5065,10.6187,10.7097,10.7619,10.8679,10.9494,10.9734,11.0114,11.0745,11.1377,11.1493,11.1665,11.2042,11.2007,11.2212,11.2536,11.2992,11.3208,11.3234,11.4823,11.54,9.6623,9.9419,10.1884,10.4818,10.7079,10.8814,10.9625,10.997,11.0486,11.0993,10.9978,10.9403,11.079,11.1771,11.2888,11.4477,11.8503,12.1209,12.0567,12.2326,12.3408,12.2596,12.3307,12.4017,12.4694,12.5121,12.5513,12.5968,12.669,12.74,12.8212,12.8002,12.7922,12.7922,12.7026,12.6478,12.6631,12.6631,12.6233,12.5503,12.4111,12.3265,12.3199,12.2619,12.1873,12.1112,12.0416,11.9687,11.8991,11.8296,11.7898,11.7898,11.7898,11.7401,11.6772,11.6772,11.6706,11.6408,11.4321,11.3592,11.3327,11.176,11.1299,11.1215,11.0771,10.9629,10.8451,10.8929,10.8514,10.8109,10.8871,10.8925,10.8695,10.8741,10.8384,10.7915,10.7137,10.6392,10.558,10.4802,10.4124,10.3108,10.1585,10.038,10.0064,10.139,10.048,10.023,10.1639,10.3055,10.4235,10.4608,10.619,10.7584,10.8408,10.9687,11.0503,11.0573,11.1098,11.1483,11.1483,11.1899,11.222,11.2394,11.2394,11.2394,11.2394,11.3105,11.3291,11.3076,11.4981,11.5771,10.0277,10.3108,10.5451,10.7569,10.8765,10.9524,11.0006,11.0213,10.9911,10.8388,10.7306,10.6595,10.6392,10.9302,11.2312,11.4376,11.8909,12.2292,12.2698,12.422,12.4795,12.351,12.4998,12.6013,12.5607,12.6204,12.7049,12.8314,12.7652,12.7989,12.9701,12.8904,12.8305,12.8305,12.7535,12.7196,12.7502,12.7502,12.7168,12.64,12.6066,12.4898,12.3199,12.3367,12.2902,12.1873,12.1112,12.0714,12.0515,12.0317,11.9621,11.8693,11.9223,11.8693,11.7501,11.7501,11.7169,11.6606,11.6076,11.5878,11.5646,11.3843,11.3166,11.3021,11.1848,11.09,11.0514,11.0956,11.0473,11.009,11.0911,11.0896,11.0633,11.0746,10.9774,10.8793,10.8281,10.7069,10.5911,10.4769,10.4008,10.3297,10.2488,10.1687,10.1089,10.0926,10.1715,10.2489,10.2799,10.3212,10.447,10.7116,10.7766,10.8565,10.9887,11.0278,11.0833,11.1573,11.2059,11.2693,11.3526,11.378,11.4121,11.4438,11.3797,11.34,11.3176,11.3685,11.3588,11.3076,11.5508,11.6411,10.372,10.5984,10.7795,10.8778,10.9317,10.9208,10.8511,10.8283,10.761,10.5005,10.402,10.3509,10.3311,10.7,11.076,11.2888,11.8199,12.2393,12.351,12.4931,12.5709,12.5201,12.6791,12.7806,12.74,12.8314,12.9295,13.0106,12.8577,12.8509,13.0208,12.9189,12.8504,12.8504,12.7872,12.7586,12.7872,12.7704,12.7503,12.7269,12.6734,12.5832,12.453,12.4116,12.3384,12.2569,12.1674,12.1276,12.1112,12.0813,12.0118,11.9422,11.982,11.9488,11.8793,11.8793,11.8495,11.8097,11.7799,11.77,11.7255,11.5309,11.4279,11.3805,11.326,11.2477,11.1662,11.2216,11.1808,11.1225,11.1319,11.1063,11.0806,11.0709,10.9569,10.8693,10.8557,10.7609,10.6482,10.5524,10.4686,10.4077,10.3913,10.2883,10.23,10.2506,10.2928,10.3462,10.4582,10.4815,10.5696,10.8077,10.847,10.9296,11.0792,11.1608,11.2233,11.2774,11.3599,11.4279,11.4879,11.4904,11.5095,11.562,11.4982,11.4589,11.4387,11.4719,11.47,11.4423,11.6208,11.6892,10.6602,10.8299,10.9301,10.9102,10.9123,10.8422,10.6177,10.5381,10.4297,10.1487,10.0623,10.051,10.0908,10.4998,10.8999,11.1198,11.6913,12.1785,12.3611,12.5134,12.6318,12.7096,12.8415,12.9328,12.9328,13.0614,13.1426,13.1426,12.9531,12.899,13.0208,12.9339,12.8822,12.8807,12.8273,12.8106,12.8257,12.772,12.7569,12.8006,12.6883,12.6315,12.6097,12.4715,12.3866,12.3382,12.2203,12.1523,12.1211,12.0482,12.0118,12.0018,12.0118,12.0085,12.0018,12.0018,12.0018,11.9919,11.929,11.8958,11.8608,11.652,11.4979,11.4193,11.4908,11.3944,11.2585,11.3074,11.2725,11.2025,11.1332,11.0817,11.0303,11.0026,10.9095,10.8287,10.8693,10.8011,10.7219,10.6425,10.5698,10.5218,10.5012,10.3886,10.3508,10.4709,10.4016,10.4105,10.6382,10.6816,10.7416,10.8616,10.9166,11.0087,11.1918,11.3196,11.4116,11.4316,11.5517,11.6162,11.6291,11.59,11.5891,11.659,11.6082,11.5762,11.5762,11.6124,11.6195,11.6178,11.7077,11.749,10.8424,10.9763,11.061,10.9407,10.8895,10.8006,10.5482,10.3189,10.1132,9.9023,9.8538,9.8504,9.8578,10.3311,10.8287,11.167,11.6406,12.0973,12.4931,12.6284,12.7096,12.7806,12.9193,13.0106,13.0106,13.0918,13.1426,13.1426,13.0512,13.0005,13.0276,13.0092,13.013,13.0355,12.9541,12.9391,13.0305,12.901,12.8541,12.8776,12.7989,12.7152,12.6097,12.5648,12.5131,12.4615,12.2633,12.1822,12.1973,12.1211,12.0582,12.0085,12.0714,12.0515,12.0018,12.0018,12.0018,12.0018,11.9886,11.9632,11.9076,11.705,11.601,11.5281,11.5085,11.4397,11.3917,11.4595,11.4025,11.3213,11.306,11.2387,11.1507,11.1154,11.0184,10.9441,10.9508,10.8407,10.7214,10.6698,10.6298,10.5629,10.4428,10.4214,10.4163,10.3815,10.479,10.5767,10.6304,10.7423,10.879,11.0487,11.1517,11.2714,11.423,11.4597,11.5375,11.6911,11.7514,11.7878,11.8075,11.8311,11.8306,11.799,11.7291,11.6914,11.6914,11.7184,11.7238,11.7023,11.8509,11.9117,11.061,11.1044,11.1009,11.0197,10.882,10.679,10.3393,10.0927,9.8661,9.6183,9.5823,9.6086,9.6717,10.1581,10.6356,10.9065,11.3666,11.8571,12.3408,12.4795,12.6115,12.8415,13.0005,13.0885,13.0885,13.1899,13.2305,13.1493,13.1088,13.0715,13.0276,13.0276,13.0396,13.0486,12.9811,12.9526,12.9581,12.8658,12.8324,12.8407,12.8073,12.7452,12.6663,12.6433,12.5932,12.5128,12.3517,12.2786,12.2669,12.1973,12.1476,12.1178,12.1509,12.1476,12.1112,12.1112,12.1112,12.1012,12.0283,11.9964,11.9802,11.837,11.7326,11.6515,11.6334,11.5599,11.4787,11.4725,11.4187,11.3575,11.2863,11.229,11.1886,11.1675,11.0903,11.0011,10.9191,10.859,10.8012,10.7221,10.6923,10.6498,10.5364,10.5227,10.5296,10.5838,10.6562,10.7186,10.7731,10.9074,11.0262,11.0993,11.2102,11.3536,11.5372,11.6,11.7076,11.8686,11.9108,11.9398,11.9683,11.91,11.878,11.9018,11.8517,11.8191,11.8191,11.8703,11.877,11.8703,11.9515,11.9799,11.1604,11.1614,11.1234,11.0436,10.8361,10.5608,10.1313,9.8839,9.6622,9.3706,9.3375,9.4068,9.5356,9.9673,10.3909,10.6527,11.079,11.5695,12.148,12.3205,12.5201,12.8787,13.0614,13.1629,13.1629,13.2914,13.3083,13.1527,13.1121,13.0817,13.0512,13.0208,13.0276,13.0783,13.0014,12.9444,12.914,12.8257,12.8022,12.8307,12.7939,12.762,12.7299,12.6985,12.65,12.5925,12.4598,12.3916,12.3532,12.2703,12.2255,12.2172,12.2338,12.2255,12.2172,12.1973,12.2023,12.1907,12.0613,12.0407,12.0489,11.9467,11.8318,11.7394,11.7523,11.6674,11.5516,11.4469,11.411,11.3705,11.2391,11.2025,11.1867,11.1719,11.1034,10.9996,10.8822,10.8671,10.8626,10.7454,10.7493,10.7369,10.6341,10.6168,10.6632,10.7585,10.7861,10.827,10.8983,11.0618,11.1491,11.1308,11.2461,11.414,11.6268,11.7289,11.8508,11.9782,12.0199,12.0504,12.0587,11.9526,11.9184,11.9888,11.9809,11.9765,12.0103,12.0476,12.08,12.08,12.09,12.079,11.018,11.111,11.1301,10.9211,10.7298,10.4703,9.9901,9.7135,9.4799,9.2058,9.2049,9.2996,9.4518,9.7394,10.1212,10.6088,10.8997,11.3226,12.0499,12.3307,12.5709,12.8821,13.1088,13.2407,13.2407,13.3185,13.3083,13.1527,13.0208,13.0005,13.1223,13.0005,13.0208,13.2204,13.0261,12.9788,13.1106,12.8961,12.8374,12.943,12.8038,12.7451,12.7838,12.7516,12.7501,12.762,12.5379,12.4563,12.4681,12.3284,12.247,12.2222,12.2586,12.247,12.2072,12.141,12.1425,12.1586,12.0787,12.0615,12.0573,11.981,11.8599,11.7456,11.7873,11.7008,11.5583,11.4879,11.4169,11.3459,11.2718,11.2185,11.1685,11.1029,11.0004,10.9117,10.862,10.8479,10.8174,10.7099,10.8026,10.8203,10.5698,10.7024,10.8041,10.7076,10.7806,10.8666,10.94,11.0671,11.1708,11.1984,11.3583,11.5492,11.7406,11.814,11.8997,12.0199,12.0483,12.0587,12.0427,12.0282,12.058,12.1385,12.1197,12.1713,12.2784,12.2869,12.2918,12.2918,12.3438,12.3127,10.9583,11.023,10.9815,10.8206,10.5828,10.2793,9.9105,9.6226,9.3698,9.1512,9.1426,9.2353,9.4349,9.6379,9.9187,10.3517,10.5783,10.9065,11.5188,11.83,12.1615,12.6013,12.8889,13.0885,13.1798,13.2508,13.2407,13.0885,13.0208,13.0106,13.0715,13.0614,13.0715,13.1189,13.0783,13.0179,12.9695,12.8724,12.8374,12.8559,12.8173,12.7955,12.7872,12.7953,12.7718,12.7135,12.5548,12.4598,12.4232,12.3018,12.2305,12.2172,12.2421,12.2305,12.2155,12.1558,12.1571,12.1568,12.0576,12.0149,12.0022,11.9214,11.8086,11.7097,11.7279,11.6529,11.5161,11.4304,11.3673,11.3106,11.2325,11.1992,11.1613,11.0336,10.9917,10.9604,10.8907,10.8833,10.8676,10.833,10.8532,10.8498,10.7727,10.8262,10.8818,10.8517,10.9192,10.9799,11.001,11.0893,11.1813,11.2599,11.4537,11.6291,11.7682,11.8582,11.9826,12.1188,12.1296,12.1403,12.181,12.1773,12.2129,12.2771,12.271,12.3088,12.3905,12.3905,12.3998,12.4099,12.3701,12.3414,10.8093,10.8987,10.8796,10.7402,10.459,10.132,9.7999,9.5143,9.2633,9.0476,9.075,9.1846,9.3706,9.5432,9.7732,10.1216,10.328,10.6291,11.1703,11.5086,11.8706,12.351,12.6521,12.8821,13.0309,13.129,13.1392,13.0377,13.0106,12.9971,12.9971,13.0682,13.0817,13.0276,13.0614,13.0077,12.8668,12.862,12.8421,12.8289,12.8421,12.8204,12.782,12.7968,12.7516,12.6282,12.5298,12.4531,12.3799,12.2935,12.2388,12.2172,12.2106,12.2039,12.1824,12.1272,12.1115,12.111,12.0271,11.98,11.9367,11.8735,11.7705,11.6812,11.6406,11.5679,11.4823,11.3898,11.3205,11.2568,11.23,11.2093,11.1603,11.0394,11.0077,10.993,10.928,10.9241,10.9221,10.9425,10.9485,10.9509,10.9188,10.9466,10.9696,10.9281,10.9896,11.0383,11.0373,11.0968,11.1762,11.2808,11.4784,11.6498,11.7629,11.8498,11.967,12.1193,12.1265,12.1701,12.2588,12.2686,12.3283,12.4377,12.4284,12.4515,12.5012,12.4997,12.49,12.4896,12.4201,12.3792,10.5012,10.7397,10.8697,10.677,10.3789,10.0181,9.617,9.3747,9.1609,8.8632,8.9782,9.1541,9.2286,9.4282,9.6785,9.9762,10.213,10.5682,11.1703,11.5086,11.8368,12.2089,12.4525,12.6521,12.8009,12.9498,13.0276,13.0276,12.9599,12.9193,12.9193,12.9904,13.0276,13.0276,12.9599,12.9193,12.9193,12.8668,12.8668,12.9227,12.8668,12.8133,12.7427,12.7393,12.6777,12.5662,12.4892,12.4278,12.3915,12.3624,12.303,12.2222,12.1837,12.1523,12.1028,11.9908,11.9775,12.0149,11.98,11.9519,11.9078,11.8334,11.759,11.6609,11.5188,11.4714,11.4579,11.3801,11.2798,11.2129,11.2809,11.236,11.1806,11.1442,11.0421,10.9577,10.9577,10.9577,10.9653,11.0111,11.1428,11.1725,10.9528,11.0485,11.0969,10.8813,10.94,11.0105,11.0408,11.0968,11.1758,11.2691,11.4502,11.6002,11.7023,11.772,11.8501,11.9609,12.0116,12.1024,12.2322,12.2594,12.38,12.6175,12.6036,12.6087,12.671,12.6422,12.6012,12.5398,12.5398,12.5029,9.7062,9.8952,9.9917,9.7821,9.6281,9.469,9.2373,9.0791,8.9374,8.7925,8.9173,9.0932,9.2184,9.3876,9.6683,10.169,10.3111,10.5513,11.0993,11.4714,11.8097,12.1379,12.5979,12.9092,12.9599,13.0005,13.0106,12.9599,12.9802,12.9701,12.9193,12.9396,12.9498,12.9498,12.9802,12.9701,12.9193,12.9064,12.9064,12.9193,12.8996,12.8346,12.7393,12.7393,12.6475,12.4892,12.4363,12.3831,12.3133,12.2802,12.2155,12.141,12.1343,12.1108,12.0706,12.0075,12.0216,12.0506,12.0228,11.9409,11.8402,11.8199,11.7218,11.6,11.4985,11.4308,11.3842,11.308,11.2812,11.257,11.2591,11.2379,11.1928,11.0787,11.0171,10.99,10.99,11.0161,11.057,11.1522,11.1916,11.1902,11.1709,11.1344,11.087,11.0668,11.0489,11.0588,11.1319,11.1815,11.2185,11.2729,11.4189,11.5593,11.7,11.8421,11.9791,12.1402,12.24,12.323,12.3912,12.5294,12.6293,12.7006,12.6724,12.689,12.749,12.6691,12.5898,12.5189,12.5307,12.4932,9.0858,9.3439,9.4629,9.301,9.1957,9.0906,8.97,8.8653,8.7846,8.7374,8.8622,9.0256,9.1711,9.347,9.621,10.0709,10.2401,10.5005,11.0215,11.3699,11.7184,12.1311,12.5878,12.8719,12.899,12.9565,12.9701,12.9227,12.9599,12.9701,12.9193,12.9193,12.9193,12.9193,12.9599,12.9701,12.9193,12.9193,12.9092,12.8821,12.8591,12.7888,12.6795,12.6504,12.5621,12.4189,12.391,12.3315,0.0,12.2504,12.1907,12.1078,12.0978,12.0592,12.0182,11.997,11.9992,11.9998,11.9874,11.8909,11.7624,11.7624,11.6479,11.5066,11.4463,11.392,11.3275,11.2812,11.2774,11.3008,11.2858,11.2886,11.2507,11.092,11.0817,11.0886,11.0772,11.1234,11.1916,11.3,11.3019,11.2875,11.2886,11.2216,11.1641,11.1298,11.0985,11.0977,11.1404,11.1785,11.2233,11.2605,11.3782,11.5323,11.6769,11.8489,12.0417,12.2603,12.3274,12.4201,12.5607,12.6565,12.7316,12.7606,12.7373,12.7227,12.7004,12.61,12.542,12.5003,12.5069,12.4724,0.0,8.9785,9.1678,9.1152,8.9843,8.8477,8.7721,8.711,0.0,8.6738,8.7922,8.9444,9.1068,9.3165,9.5432,9.7935,10.0811,10.4498,10.9606,11.2617,11.6304,12.2089,12.4694,12.6385,12.6994,12.8381,12.9193,12.9193,12.9193,12.9193,12.9125,12.9125,12.9092,12.9024,12.9024,12.9092,12.9193,12.9125,12.8787,12.8111,12.7604,12.6795,12.5799,12.4963,12.4155,12.3452,12.3418,12.2864,12.2089,12.2502,12.1988,12.0962,12.0721,12.0116,11.9462,11.9723,11.9324,11.8727,11.9138,11.8199,11.6913,11.6879,11.568,11.4204,11.3836,11.3425,11.3014,11.3014,11.301,11.3077,11.351,11.361,11.3196,11.1713,11.1886,11.2326,11.1921,11.2366,11.3291,11.4409,11.4612,11.4276,11.3192,11.3106,11.2746,11.1036,11.1089,11.1188,11.0732,11.1118,11.171,11.2316,11.3703,11.5075,11.6608,11.8204,12.0297,12.3008,12.321,12.4422,12.7108,12.6815,12.708,12.8126,12.7906,12.7001,12.5377,12.4876,12.4595,12.4803,12.4894,12.4476,7.8159,0.0,8.2932,8.2435,8.2858,8.3469,0.0,8.3872,8.4238,8.4993,8.6366,8.8395,9.1575,9.3064,9.5499,10.0608,10.2976,10.5783,11.0486,11.6507,12.1582,12.4694,12.7096,12.8314,12.7908,12.8686,12.9193,12.9193,12.9193,12.899,12.8415,12.8415,12.8111,12.7502,12.7502,12.8077,12.9193,12.8618,12.8314,12.8111,12.7421,12.6517,12.54,12.5239,12.4016,12.2097,12.2387,12.1958,12.102,12.1424,12.1103,12.0288,12.0168,12.0048,11.9723,11.9676,11.9443,11.9138,11.9214,11.8199,11.6919,11.6635,11.5563,11.4588,11.4762,11.4008,11.2981,11.3012,11.321,11.3478,11.361,11.361,11.3196,11.1713,11.208,11.2485,11.1566,11.262,11.3799,11.4084,11.4386,11.4479,11.4207,11.2886,11.1887,11.2196,11.0872,11.0114,11.0908,11.1214,11.1399,11.1793,11.4369,11.6584,11.7612,11.9181,12.0978,12.3012,12.4931,12.6287,12.6889,12.7706,12.7992,12.7678,12.7305,12.6624,12.5606,12.5484,12.54,12.5499,12.5491,12.519,7.4235,7.6742,7.9241,7.9894,8.0938,8.1984,8.2743,8.3114,8.3515,8.4418,8.5858,8.7922,9.1305,9.3368,9.5946,9.9982,10.3454,10.761,11.3124,11.8605,12.3002,12.5607,12.7299,12.8314,12.8618,12.8686,12.8719,12.8719,12.8415,12.8009,12.7603,12.7299,12.7096,12.6994,12.669,12.6994,12.8178,12.7806,12.74,12.7096,12.6078,12.5188,12.4367,12.3871,12.3015,12.1765,12.1971,12.1577,12.0923,12.1083,12.0807,12.0104,12.0261,12.0092,11.9685,11.9511,11.9055,11.8605,11.83,11.7331,11.6126,11.6017,11.5205,11.4385,11.4518,11.3864,11.3242,11.2763,11.3068,11.3507,11.3127,11.33,11.3265,11.2287,11.2628,11.3073,11.2597,11.3394,11.4308,11.4698,11.4489,11.421,11.4056,11.28,11.1724,11.171,11.0918,11.0156,11.0071,11.0676,11.1312,11.1703,11.4698,11.7199,11.8318,12.0568,12.2707,12.418,12.5816,12.7105,12.7994,12.8272,12.8128,12.7276,12.6598,12.6195,12.598,12.5925,12.5991,12.6089,12.5706,12.5198,7.3328,7.594,7.8664,7.99,8.0946,8.1873,8.2795,8.3084,8.3422,8.4268,8.5757,8.7955,9.1372,9.4146,9.6791,9.9147,10.4064,10.9877,11.6507,11.9822,12.263,12.5607,12.6588,12.7502,12.8719,12.8314,12.7908,12.7908,12.74,12.696,12.6791,12.6115,12.5979,12.6487,12.5912,12.581,12.6284,12.6487,12.6318,12.5709,12.4547,12.3737,12.3408,12.2445,12.1839,12.1627,12.1627,12.129,12.0907,12.0874,12.0551,12.0037,12.0382,12.0099,11.9435,11.9063,11.8605,11.7793,11.7088,11.6194,11.5503,11.5482,11.4864,11.4106,11.3923,11.3714,11.3403,11.2507,11.292,11.3403,11.2817,11.3093,11.3469,11.2965,11.3315,11.3796,11.382,11.4273,11.4929,11.5192,11.4508,11.3673,11.3318,11.2496,11.1612,11.0608,11.057,11.0305,10.9193,11.0296,11.1394,11.2216,11.5265,11.7793,11.9387,12.2393,12.4689,12.5795,12.6395,12.7399,12.912,12.8479,12.7802,12.708,12.6213,12.6008,12.6426,12.6274,12.6389,12.6505,12.5697,12.4904,7.6288,7.9111,7.99,7.7715,7.8657,8.0223,8.0631,8.119,8.2002,8.3389,8.5384,8.8598,9.4079,9.5973,9.8273,10.2978,10.7712,11.2786,11.8875,12.1277,12.3205,12.5607,12.6588,12.7096,12.7299,12.7197,12.7197,12.7197,12.7096,12.669,12.6115,12.5303,12.4626,12.4119,12.4017,12.3713,12.3172,12.4389,12.4998,12.4897,12.3398,12.2688,12.2698,12.2063,12.1414,12.045,12.045,12.0015,11.9367,11.979,11.9661,11.9333,11.9367,11.9003,11.8327,11.8334,11.7793,11.6981,11.6601,11.6392,11.6236,11.6168,11.5514,11.4613,11.4541,11.4093,11.33,11.1886,11.2507,11.361,11.3403,11.3507,11.3469,11.2965,11.3702,11.4276,11.3631,11.4523,11.5095,11.3994,11.3625,11.3283,11.2594,11.1092,11.0104,11.0672,10.9326,10.8592,10.9893,11.0799,11.219,11.4399,11.7568,12.0288,12.1996,12.4104,12.5603,12.6319,12.6993,12.7518,12.791,12.7726,12.7411,12.6905,12.6529,12.6503,12.6883,12.6807,12.649,12.6016,12.5906,12.5079,7.431,7.7444,7.9516,7.869,8.1711,8.4851,8.5012,8.4945,8.5215,8.6298,8.7989,9.0865,9.6041,9.8612,10.2198,10.8997,11.1698,11.4598,11.9619,12.1209,12.2698,12.4998,12.5573,12.6081,12.6893,12.6588,12.6385,12.6385,12.6013,12.5404,12.4694,12.3916,12.3375,12.3002,12.2596,12.2427,12.2495,12.2799,12.3104,12.351,12.2195,12.1409,12.1004,12.0248,11.9333,11.8396,11.8595,11.847,11.8211,11.8693,11.8725,11.8605,11.8605,11.8402,11.8063,11.7879,11.7003,11.6058,11.6327,11.5926,11.5173,11.5377,11.4891,11.4024,11.361,11.3196,11.2783,11.2287,11.2974,11.3665,11.2801,11.3445,11.4124,11.4096,11.3986,11.3875,11.3902,11.3983,11.3904,11.3431,11.2985,11.2426,11.1509,11.0583,10.9821,10.9465,10.8805,10.8698,10.9702,11.0821,11.2425,11.4795,11.7719,12.0375,12.2879,12.4612,12.6017,12.7079,12.7604,12.7898,12.7895,12.7898,12.7391,12.6402,12.6597,12.6685,12.6704,12.649,12.6394,12.6117,12.5208,12.4383,7.3114,7.6309,7.9449,8.1105,8.4539,8.7786,8.8835,8.8395,8.826,9.0019,9.144,9.3673,9.8003,10.1825,10.6528,11.3293,11.5003,11.6584,12.0127,12.1311,12.2596,12.4491,12.4694,12.5201,12.6588,12.6081,12.5607,12.5607,12.4897,12.422,12.3611,12.2698,12.219,12.219,12.1683,12.1514,12.1683,12.1311,12.1514,12.219,12.1004,12.0109,11.9536,11.8413,11.7579,11.7009,11.7203,11.7422,11.7464,11.7765,11.7921,11.7827,11.7827,11.7731,11.7399,11.7081,11.6277,11.5437,11.5893,11.531,11.4278,11.4441,11.4093,11.3403,11.2468,11.2503,11.2675,11.2712,11.3499,11.3916,11.2806,11.3488,11.4479,11.472,11.4001,11.3485,11.3896,11.3405,11.2924,11.2991,11.2299,11.1278,11.0423,10.9728,10.8994,10.8226,10.8271,10.8819,10.9695,11.1001,11.2918,11.5718,11.7976,12.0531,12.3405,12.4581,12.5797,12.7076,12.7608,12.7885,12.7885,12.7715,12.7097,12.6085,12.6413,12.6394,12.6118,12.6011,12.5907,12.5795,12.4507,12.3781,7.6154,7.8822,8.0953,8.4505,8.4133,8.3964,8.8125,8.7989,8.8395,9.33,9.4924,9.665,10.0472,10.5885,11.0621,11.3226,11.6609,11.9417,12.1108,12.2529,12.3814,12.4592,12.4694,12.4998,12.5912,12.5303,12.4795,12.4795,12.4119,12.3713,12.3611,12.2292,12.148,12.148,12.1412,12.0803,11.9484,12.0059,12.0702,12.148,12.0025,11.9315,11.9172,11.8019,11.7388,11.7321,11.6975,11.7085,11.743,11.7397,11.7251,11.7015,11.7015,11.6422,11.5488,11.5526,11.5405,11.531,11.5413,11.5067,11.4475,11.3921,11.361,11.34,11.2203,11.2628,11.3396,11.2614,11.3366,11.4479,11.4375,11.4287,11.402,11.3609,11.3499,11.3283,11.302,11.309,11.3061,11.2314,11.1097,11.0027,10.95,10.7602,10.6499,10.7397,10.7074,10.76,11.0298,11.1982,11.4414,11.8204,11.9892,12.168,12.4003,12.4393,12.4721,12.5002,12.639,12.7199,12.7199,12.6508,12.6201,12.6197,12.5423,12.5085,12.5306,12.5213,12.4917,12.4294,12.4191,12.3796,7.3566,7.7638,8.1224,8.2644,8.4776,8.7482,9.1068,9.1812,9.3098,9.7867,9.9085,10.0405,10.4092,10.8896,11.2921,11.4714,11.7725,12.0228,12.1311,12.2698,12.3713,12.4017,12.4217,12.4634,12.5066,12.4692,12.4328,12.3983,12.3307,12.2495,12.1582,12.0601,11.9822,11.9383,11.9315,11.9112,11.8503,11.8808,11.9078,11.9315,11.8549,11.7825,11.7386,11.6162,11.5482,11.5269,11.4725,11.4704,11.5105,11.551,11.5492,11.521,11.5529,11.5427,11.5254,11.527,11.4967,11.4589,11.4825,11.4202,11.3231,11.292,11.2507,11.2123,11.1857,11.2065,11.2579,11.3102,11.3708,11.4196,11.4196,11.4224,11.4182,11.4123,11.3318,11.2478,11.2414,11.1668,11.1015,11.0734,10.9926,10.8921,10.7912,10.7302,10.6776,10.6307,10.6871,10.8099,11.0499,11.1982,11.4079,11.7508,12.0092,12.2207,12.3705,12.4402,12.4899,12.5109,12.5983,12.6297,12.5794,12.611,12.5801,12.4918,12.512,12.499,12.4592,12.4579,12.4497,12.4295,12.3819,12.3116,7.3037,7.7266,8.1562,8.2746,8.6095,9.0188,9.4383,9.5364,9.6853,10.2096,10.3077,10.399,10.6697,11.0316,11.3496,11.5188,11.8199,12.0499,12.1006,12.2529,12.3408,12.3002,12.3573,12.4023,12.3983,12.3776,12.3515,12.3273,12.2513,12.1497,12.0364,11.9533,11.872,11.8097,11.8097,11.7894,11.7387,11.7387,11.7116,11.671,11.6381,11.6206,11.632,11.5013,11.4379,11.4304,11.3585,11.3492,11.3775,11.4249,11.45,11.4411,11.4586,11.4827,11.4858,11.4899,11.4314,11.3623,11.4234,11.3507,11.2403,11.2292,11.2188,11.211,11.1793,11.2308,11.3205,11.3673,11.4216,11.4433,11.3882,11.4104,11.4359,11.3992,11.2985,11.2083,11.1713,11.0592,10.9704,10.9763,10.8804,10.781,10.6894,10.6507,10.608,10.5368,10.6426,10.7998,11.0118,11.1915,11.4208,11.7184,11.9707,12.1503,12.2286,12.3298,12.3909,12.4096,12.5018,12.5391,12.5109,12.5519,12.5305,12.41,12.45,12.4309,12.3497,12.3604,12.3494,12.3278,12.2715,12.2111,7.5628,7.8416,8.2205,8.596,8.8023,9.0899,9.7597,9.8003,9.8848,10.5513,10.69,10.7103,10.7915,10.9911,11.2109,11.4308,11.7793,12.0262,12.0262,12.219,12.3036,12.1582,12.2698,12.3307,12.2563,12.2461,12.2461,12.2461,12.1488,12.0714,12.0296,11.918,11.8439,11.8063,11.8097,11.7319,11.5831,11.5797,11.5019,11.3598,11.3598,11.4625,11.6342,11.488,11.4411,11.4725,11.4273,11.4166,11.4166,11.4166,11.4377,11.4725,11.4691,11.4488,11.4109,11.4109,11.3382,11.2507,11.33,11.3093,11.233,11.1892,11.2816,11.3777,11.2102,11.3471,11.5373,11.4189,11.4761,11.5274,11.3812,11.3986,11.4258,11.3098,11.2529,11.189,11.0792,10.9874,10.9433,10.9728,10.8126,10.6588,10.6803,10.5037,10.3875,10.4825,10.5564,10.6803,10.8981,11.1794,11.471,11.7787,11.901,11.9719,11.9786,12.0688,12.1398,12.1586,12.3302,12.4598,12.528,12.4703,12.4303,12.4303,12.3593,12.2817,12.1881,12.1994,12.1486,12.0705,12.0693,12.0721,7.2991,7.7638,8.3253,8.4945,9.0391,9.6311,9.9897,10.0777,10.213,10.6731,10.8118,10.8591,10.8794,11.1095,11.3293,11.4477,11.7387,11.9484,11.9484,12.1167,12.2344,12.1903,12.2183,12.268,12.3342,12.2093,12.1485,12.17,12.0519,11.9223,11.8021,11.7071,11.6216,11.5417,11.5597,11.5183,11.4308,11.4527,11.4324,11.3598,11.2832,11.3278,11.4812,11.3826,11.3425,11.3494,11.2607,11.2026,11.1784,11.26,11.3597,11.4692,11.4378,11.4204,11.4074,11.3793,11.3478,11.3403,11.4093,11.3673,11.2826,11.3272,11.3216,11.2914,11.3106,11.3797,11.4531,11.4982,11.5429,11.548,11.5095,11.4488,11.37,11.2321,11.1158,11.0403,11.0101,10.9038,10.8091,10.8206,10.7421,10.6535,10.5637,10.4877,10.4212,10.3103,10.4491,10.6814,11.0308,11.2295,11.422,11.6504,11.7518,11.8416,11.9201,12.008,12.1,12.18,12.1795,12.2103,12.2819,12.3302,12.3316,12.2618,12.181,12.1585,12.1999,12.1405,12.1002,12.0818,12.0785,12.0484,7.7164,8.1528,8.6467,8.9613,9.4687,9.9926,10.3814,10.4731,10.5614,10.8693,10.9505,10.9708,10.9978,11.1771,11.3496,11.4511,11.6507,11.8097,11.8706,12.013,12.1,12.0694,12.0972,12.147,12.1866,12.0922,12.0169,12.0123,11.9139,11.7905,11.6253,11.5714,11.4927,11.3792,11.3794,11.3418,11.249,11.2594,11.2391,11.2016,11.1376,11.1685,11.2812,11.23,11.2229,11.2316,11.1404,11.0924,11.0813,11.1587,11.2586,11.3487,11.3285,11.3216,11.3099,11.2786,11.2572,11.2494,11.3289,11.2861,11.2279,11.2892,11.2803,11.2599,11.2977,11.3589,11.4184,11.4386,11.4728,11.4701,11.3762,11.3098,11.2461,11.2329,11.1198,10.9996,10.9798,10.8477,10.7297,10.7504,10.6683,10.5711,10.5003,10.4302,10.3413,10.2384,10.4016,10.6619,11.0012,11.1808,11.3385,11.5017,11.6177,11.7297,11.8004,11.9212,12.028,12.0882,12.0798,12.0778,12.079,12.1793,12.2014,12.15,12.1005,12.0916,12.1084,12.0601,12.0183,11.9914,11.9919,11.9609,8.464,8.7808,9.0922,9.736,9.9931,10.2363,10.8319,10.866,10.8524,11.0826,11.0689,11.0519,11.1196,11.1974,11.2955,11.4376,11.5289,11.627,11.759,11.8807,11.9305,11.8523,11.9432,11.9786,11.9273,11.8965,11.8692,11.8076,11.7572,11.6714,11.5192,11.4791,11.4006,11.2842,11.2425,11.1814,11.0664,11.0321,10.9982,10.961,10.9474,10.9809,11.037,11.0576,11.0772,11.1127,11.07,11.0501,11.057,11.1028,11.1418,11.1812,11.1812,11.1812,11.1817,11.1463,11.1107,11.1008,11.1736,11.1578,11.1186,11.157,11.2111,11.2557,11.2089,11.3016,11.4009,11.2898,11.3221,11.3343,11.1224,11.0497,11.0903,11.2605,11.1583,11.0098,10.9728,10.8115,10.6913,10.7293,10.5895,10.4689,10.4666,10.3239,10.2095,10.2207,10.37,10.5724,10.8372,11.0491,11.2111,11.3385,11.5206,11.6299,11.6512,11.8091,11.9183,11.942,12.0097,12.0282,11.9506,12.0282,12.0681,12.0701,12.0719,12.0296,11.9593,11.9491,11.9101,11.8281,11.831,11.83,8.1257,8.6379,9.2395,9.7049,10.1893,10.6088,10.8728,10.8186,10.7678,10.9712,11.0185,11.0316,11.0519,11.1602,11.2786,11.3699,11.5168,11.6126,11.5531,11.7412,11.8527,11.749,11.7609,11.806,11.9058,11.7578,11.6959,11.7956,11.6855,11.5512,11.4036,11.3594,11.2604,11.0867,11.0697,11.029,10.9575,10.9203,10.8931,10.8693,10.7903,10.7581,10.8135,10.9921,11.0322,10.9506,10.9074,10.9171,10.9822,11.069,11.1411,11.1812,11.1812,11.1966,11.2222,11.1793,11.2216,11.2781,11.3025,11.2494,11.2004,11.2417,11.2013,11.1412,11.1296,11.1893,11.2419,11.1622,11.1878,11.2169,11.1233,11.0392,11.009,11.0523,10.9306,10.8113,10.7995,10.671,10.5713,10.5993,10.5183,10.4291,10.3514,10.2281,10.1285,10.1017,10.12,10.2708,10.6584,10.8288,10.9911,11.1822,11.3613,11.5001,11.579,11.6785,11.8,11.951,11.9103,11.9117,11.9595,11.9784,11.9896,11.9898,11.9213,11.91,11.9608,11.8903,11.8503,11.8308,11.8217,11.8198,8.4065,8.907,9.4145,10.0231,10.4295,10.7306,10.8559,10.7881,10.7339,10.8863,10.9508,10.9877,11.0215,11.0892,11.1909,11.31,11.3713,11.4191,11.4571,11.5919,11.6611,11.62,11.6305,11.6714,11.7508,11.6507,11.5818,11.5921,11.5197,11.3889,11.1763,11.1528,11.061,10.8906,10.8675,10.8273,10.7769,10.7426,10.7287,10.7383,10.6791,10.667,10.7117,10.8189,10.8483,10.8134,10.7904,10.8062,10.8696,10.9827,11.0384,11.0583,11.0966,11.1383,11.1627,11.1279,11.1378,11.1838,11.1692,11.1163,11.0734,11.0767,11.0405,10.9891,10.9891,11.0172,11.0313,10.9505,10.961,10.9716,10.8908,10.8321,10.778,10.771,10.728,10.6907,10.6907,10.579,10.4902,10.4976,10.4575,10.3871,10.3085,10.1413,9.9937,9.9561,9.9952,10.1307,10.3876,10.6718,10.8995,11.0215,11.2696,11.4491,11.4984,11.6183,11.7413,11.8289,11.8308,11.8512,11.8982,11.8906,11.8906,11.8982,11.8513,11.8507,11.8897,11.8393,11.8218,11.8304,11.819,11.8118,8.6907,9.1913,9.6176,10.3988,10.6324,10.6967,10.8082,10.7439,10.6764,10.7913,10.8491,10.8997,10.9809,10.9911,11.0386,11.2123,11.178,11.2021,11.3562,11.4213,11.4591,11.4727,11.5132,11.5298,11.5471,11.5296,11.4674,11.3569,11.3293,11.2127,10.9703,10.9402,10.8513,10.7003,10.6586,10.621,10.5676,10.552,10.5486,10.5835,10.5898,10.6085,10.6394,10.6394,10.6586,10.6995,10.7117,10.7298,10.7736,10.8811,10.9315,10.9384,11.0189,11.0718,11.1002,11.0473,11.0442,11.0412,10.9878,10.9395,10.8966,10.8484,10.8321,10.8088,10.7983,10.811,10.804,10.7323,10.7183,10.7098,10.6324,10.5787,10.5512,10.5336,10.5485,10.5685,10.5882,10.5117,10.4293,10.4118,10.3482,10.2892,10.2365,10.0179,9.8318,9.821,9.9065,10.0207,10.1516,10.5398,10.8315,10.9007,11.198,11.3988,11.4417,11.5907,11.6813,11.698,11.7812,11.8319,11.8319,11.8217,11.8205,11.8304,11.8201,11.8187,11.8187,11.8112,11.8112,11.8093,11.8099,11.8002,8.1528,8.985,9.8809,10.4789,10.6117,10.6189,10.6899,10.6019,10.5174,10.6019,10.6663,10.7407,10.8219,10.8321,10.8591,10.9573,11.0732,11.1209,11.046,11.2295,11.338,11.2461,11.2917,11.3514,11.4207,11.3256,11.2961,11.3378,11.1875,11.064,10.9608,10.8385,10.7003,10.5423,10.511,10.451,10.3821,10.3974,10.4194,10.416,10.4598,10.4902,10.5099,10.5099,10.548,10.6328,10.683,10.71,10.7229,10.872,10.9315,10.9384,11.0119,11.0888,11.1428,11.05,11.0765,11.1369,11.0025,10.9202,10.8587,10.7399,10.6597,10.5893,10.5293,10.5505,10.5912,10.539,10.5907,10.6387,10.5571,10.5376,10.5233,10.4678,10.3798,10.327,10.4206,10.4101,10.3499,10.2614,10.1538,10.0494,9.9907,9.8344,9.7206,9.7336,9.7325,9.8362,10.1378,10.3908,10.6312,10.8816,11.0895,11.2695,11.4314,11.5307,11.6211,11.6991,11.7796,11.8211,11.8211,11.8209,11.8207,11.8112,11.8106,11.8099,11.8099,11.7982,11.7993,11.7917,11.7818,11.7792,8.5249,9.1744,9.7658,10.3881,10.5002,10.4701,10.5005,10.487,10.4566,10.4092,10.4193,10.4904,10.6494,10.656,10.6862,10.8317,10.8719,10.9117,11.0123,11.1002,11.1778,11.2139,11.2395,11.269,11.3002,11.2607,11.2141,11.1488,11.0668,10.9294,10.6995,10.6275,10.5107,10.3295,10.3104,10.2714,10.2221,10.2494,10.2772,10.3014,10.4177,10.4313,10.36,10.4403,10.5482,10.6597,10.6437,10.6796,10.7596,10.8893,10.9218,10.888,11.0284,11.0822,11.0575,10.9727,10.9509,10.9479,10.8305,10.7417,10.6689,10.6227,10.5623,10.5197,10.5004,10.5127,10.4985,10.4012,10.4063,10.4235,10.3294,10.3109,10.3088,10.3013,10.2472,10.198,10.1808,10.1989,10.206,10.1997,10.078,9.9631,9.8764,9.7323,9.6271,9.6191,9.6548,9.7731,10.0185,10.3179,10.5694,10.7495,11.0199,11.2101,11.289,11.4607,11.5808,11.618,11.7389,11.8101,11.8101,11.8098,11.798,11.7897,11.7989,11.7989,11.7897,11.7786,11.7695,11.7595,11.7608,11.7482,8.7076,9.1135,9.3842,10.0912,10.2401,10.2299,10.2908,10.328,10.3212,10.213,10.1927,10.2401,10.4092,10.4489,10.5218,10.6936,10.6791,10.7209,10.931,10.9482,11.0017,11.1314,11.1507,11.1472,11.1472,11.1421,11.082,10.9494,10.9,10.7601,10.4862,10.4431,10.3279,10.1286,10.1389,10.1295,10.0704,10.138,10.2012,10.2582,10.3891,10.4031,10.3012,10.4084,10.5509,10.7004,10.621,10.6507,10.7787,10.8787,10.8918,10.869,11.0187,11.0404,10.9586,10.8912,10.8325,10.7574,10.6367,10.5691,10.5086,10.4591,10.4292,10.4188,10.4183,10.4096,10.3708,10.2929,10.2495,10.2302,10.1593,10.1222,10.1018,10.1164,10.1082,10.0809,10.0407,10.0181,10.0411,10.1399,10.0309,9.8889,9.8068,9.6873,9.5942,9.5571,9.6187,9.7406,9.9363,10.2484,10.4983,10.6505,10.949,11.1599,11.1803,11.4101,11.5606,11.5598,11.7091,11.7982,11.7982,11.7897,11.782,11.7698,11.7808,11.7808,11.7698,11.7606,11.7414,11.7213,11.7186,11.7112,8.1866,8.4539,8.711,9.5263,9.78,9.8848,10.098,10.098,10.0438,10.0337,10.0337,10.0405,10.0506,10.1911,10.3516,10.4583,10.5183,10.5892,10.6816,10.7377,10.8113,10.8939,10.9285,10.95,10.95,10.9096,10.8499,10.7692,10.6402,10.5285,10.4415,10.3067,10.1573,10.0021,10.0711,10.0482,9.9316,10.1091,10.2488,10.3469,10.363,10.3673,10.3882,10.4284,10.5368,10.709,10.6073,10.6199,10.7286,10.8119,10.8603,10.8911,10.9693,10.9586,10.8823,10.8306,10.7627,10.6699,10.5185,10.4817,10.4596,10.2594,10.2095,10.2189,10.1475,10.119,10.1288,10.1701,10.1493,10.1112,10.1312,10.0562,9.9885,9.9742,9.918,9.9218,10.1302,9.9523,9.8217,10.0498,9.9234,9.7791,9.7732,9.7204,9.655,9.5968,9.6114,9.7151,9.9386,10.1512,10.3812,10.6404,10.9007,11.0882,11.1584,11.3997,11.5485,11.5399,11.6894,11.7814,11.7814,11.7685,11.7578,11.7392,11.7274,11.7313,11.7392,11.7297,11.7109,11.6788,11.6788,11.6603,7.9533,8.1797,8.3945,9.0061,9.3048,9.4755,9.6074,9.7631,9.8544,9.7563,9.7766,9.8058,9.7975,9.9723,10.1278,10.1919,10.2463,10.3299,10.4507,10.589,10.7181,10.8113,10.8928,10.9205,10.8817,10.8408,10.7683,10.638,10.518,10.3826,10.2139,10.1091,9.9883,9.8216,9.8596,9.8744,9.8437,10.011,10.0696,10.0405,10.2658,10.3111,10.1781,10.3322,10.4614,10.5677,10.5092,10.6227,10.8286,10.8787,10.8681,10.8413,10.8893,10.8376,10.7398,10.629,10.57,10.52,10.3795,10.3393,10.3276,10.2431,10.1988,10.1797,10.1197,10.0993,10.0788,10.0102,9.9901,9.9803,9.9511,9.8784,9.8026,9.7597,9.6895,9.6586,9.7588,9.8016,9.8334,9.8656,9.7893,9.69,9.6105,9.5371,9.5027,9.5405,9.5994,9.7237,9.953,10.2015,10.4101,10.5607,10.8609,11.0486,11.0684,11.3485,11.5297,11.5217,11.6714,11.75,11.75,11.729,11.7084,11.7109,11.6808,11.6807,11.7,11.6905,11.6684,11.6293,11.6224,11.5905,7.6353,7.8135,8.0123,8.5532,8.7936,8.9669,9.2556,9.4518,9.5635,9.5161,9.5635,9.6026,9.5696,9.6876,9.8274,9.9715,10.0471,10.1321,10.2483,10.3721,10.5023,10.6174,10.7141,10.7518,10.718,10.6713,10.5807,10.4502,10.3276,10.1909,10.012,9.9466,9.8645,9.7562,9.7534,9.7814,9.8333,9.9507,9.9727,9.8967,10.1908,10.2422,10.0976,10.2894,10.4183,10.4911,10.4838,10.6072,10.8183,10.8162,10.7926,10.739,10.7493,10.687,10.5695,10.4609,10.3895,10.3387,10.2225,10.1892,10.1785,10.12,10.0885,10.0695,10.0084,9.9704,9.9359,9.8484,9.8009,9.7637,9.7455,9.6704,9.5873,9.5105,9.4668,9.4411,9.4404,9.5699,9.6865,9.6763,9.6105,9.5392,9.4822,9.4165,9.4073,9.4972,9.6003,9.747,9.965,10.2294,10.4398,10.5213,10.8295,11.0286,11.0105,11.3109,11.4991,11.4808,11.6405,11.7213,11.7179,11.7001,11.6788,11.6786,11.6407,11.6193,11.6301,11.6293,11.5989,11.5408,11.5505,11.5003,0.0,0.0,0.0,8.135,8.2379,8.3678,9.0469,9.1508,9.144,9.3064,9.3943,9.4248,9.3571,9.3349,9.4363,9.7941,9.9117,9.982,10.0586,10.0901,10.1629,10.3092,10.35,10.3977,10.4685,10.3782,10.288,10.1999,10.0691,9.9523,9.8428,9.8153,9.7987,9.7987,9.7499,9.7825,9.8862,9.9482,9.9707,9.9672,10.1086,10.1695,10.1817,10.3066,10.4172,10.501,10.5113,10.5777,10.6786,10.6328,10.6106,10.6106,10.5802,10.4888,10.3765,10.353,10.2507,10.1318,10.053,10.0385,10.0295,9.9055,9.8736,9.8694,9.7897,9.7235,9.6743,9.6785,9.5822,9.4823,9.514,9.4482,9.3467,9.2444,9.2599,9.2764,9.2063,9.2492,9.3448,9.4821,9.3904,9.3171,9.401,9.3896,9.3965,9.4844,9.6221,9.7844,9.9779,10.2382,10.4389,10.5207,10.8212,11.0105,10.9888,11.2893,11.4713,11.4393,11.5997,11.6924,11.6804,11.6701,11.6594,11.65,11.6083,11.5711,11.5297,11.5501,11.4999,11.4003,11.4587,11.3806,7.0664,0.0,0.0,0.0,0.0,0.0,8.181,8.3317,8.4945,8.8125,8.8497,8.8722,9.0425,9.0807,9.1351,9.2774,9.5048,9.7201,9.8778,10.0213,10.1304,10.2095,10.3092,10.3395,10.2502,10.1578,10.0511,9.9168,9.781,9.6765,9.608,9.5238,9.4906,9.5102,9.521,9.5471,9.5956,9.7439,9.7592,9.6499,9.9526,10.0408,9.9608,10.1305,10.2585,10.3532,10.3196,10.3495,10.4384,10.5795,10.6293,10.6106,10.5561,10.5018,10.4204,10.3568,10.2414,10.1203,10.0625,9.999,9.9426,9.8705,9.8105,9.7528,9.6691,9.6133,9.5682,9.5096,9.4445,9.3564,9.2146,9.1734,9.1311,9.0041,8.9993,9.007,8.9589,8.974,9.0432,9.2142,9.2853,9.3127,9.3011,9.3319,9.4116,9.588,9.7349,9.8902,10.0819,10.3311,10.5214,10.5905,10.8294,11.029,11.1422,11.3223,11.4607,11.5105,11.6017,11.64,11.6285,11.6108,11.5894,11.57,11.5298,11.4731,11.3995,11.479,11.4891,11.4288,11.3219,11.1618,0.0,0.0,7.0995,7.1351,0.0,0.0,7.7662,7.9161,8.0885,8.4336,8.4945,8.5269,8.6806,8.7366,8.7996,8.9052,9.114,9.3424,9.5818,9.7349,9.8758,10.0167,10.0477,10.0732,10.0804,9.9341,9.7952,9.6869,9.5427,9.4343,9.3832,9.3104,9.2982,9.3641,9.3796,9.4226,9.4794,9.6076,9.6402,9.5886,9.8504,9.9643,9.9397,10.0888,10.1988,10.2584,10.2197,10.2397,10.3101,10.4195,10.4622,10.4624,10.4299,10.3586,10.2686,10.2197,10.1104,9.984,9.9135,9.8596,9.8099,9.7382,9.6768,9.6143,9.5167,9.4481,9.386,9.3124,9.2481,9.1581,8.9764,8.9494,8.947,8.8466,8.8504,8.8554,8.8048,8.8327,8.9093,9.0318,9.0943,9.1408,9.1969,9.2512,9.3616,9.5958,9.7671,9.9452,10.1596,10.409,10.5913,10.6488,10.9112,11.0995,11.1576,11.3387,11.4599,11.4924,11.5522,11.5906,11.57,11.5495,11.5298,11.5115,11.4692,11.4114,11.3325,11.4119,11.4208,11.3692,11.1914,11.0031,0.0,0.0,0.0,0.0,7.0247,0.0,7.5397,7.6623,7.7536,8.0344,8.1359,8.1866,8.2205,8.2803,8.377,8.5341,8.6963,8.9165,9.25,9.3651,9.5094,9.7607,9.6815,9.6886,9.9075,9.6969,9.5236,9.4679,9.3312,9.2259,9.1766,9.1549,9.1813,9.2814,9.2849,9.335,9.4458,9.506,9.5706,9.6428,9.792,9.9051,9.9871,10.1004,10.1607,10.1764,10.1487,10.1568,10.2088,10.1733,10.1895,10.2388,10.2397,10.1516,10.0201,9.9992,9.9062,9.771,9.6873,9.6509,9.6263,9.5396,9.4849,9.437,9.3307,9.2347,9.1532,9.0778,8.9962,8.8999,8.7614,8.75,8.7653,8.7182,8.735,8.747,8.6902,8.7629,8.8571,8.8977,8.8859,8.9239,9.1192,9.1909,9.3094,9.5782,9.7771,9.9849,10.2319,10.4785,10.6508,10.7004,11.0018,11.1807,11.1384,11.3519,11.4719,11.4295,11.5012,11.5307,11.5094,11.5021,11.4799,11.4389,11.4104,11.3624,11.2885,11.3299,11.3188,11.2388,11.0471,10.86,0.0,0.0,0.0,0.0,0.0,0.0,6.7348,6.8036,6.9519,7.1312,7.1278,7.1684,7.4119,7.5315,7.6197,7.6885,8.0995,8.5797,9.0737,9.2258,9.352,9.5273,9.4855,9.4602,9.5101,9.3768,9.2424,9.1457,9.0792,9.0325,9.0227,9.0213,9.0283,9.0472,9.0668,9.1262,9.229,9.3249,9.4019,9.4535,9.7079,9.7966,9.7355,9.9027,9.9534,9.9129,9.9234,9.9394,9.9463,9.9066,10.0029,10.1785,10.2004,10.0791,9.9029,9.9151,9.796,9.6137,9.5442,9.478,9.4117,9.337,9.2222,9.1148,9.1017,8.9999,8.8735,8.7636,8.7007,8.6328,8.4871,8.4833,8.4976,8.4429,8.4568,8.4776,8.4716,8.5396,8.6268,8.7012,8.8779,9.0478,9.1488,9.3057,9.4998,9.7516,9.9383,10.1097,10.2894,10.5214,10.6889,10.7597,10.9801,11.1819,11.2896,11.3697,11.4402,11.5003,11.5415,11.5221,11.4213,11.4674,11.4402,11.3076,11.2695,11.2297,11.1689,11.2217,11.1687,11.0281,10.851,10.6113,0.0,0.0,0.0,6.6113,0.0,0.0,0.0,6.4327,6.4975,6.7318,6.688,6.688,6.9389,7.025,7.0974,7.2273,7.6162,7.9971,8.2535,8.7059,9.0974,9.3155,9.2159,9.1691,9.2565,9.157,9.0467,8.9412,8.8299,8.7877,8.8358,8.844,8.8662,8.919,8.9811,9.0562,9.1445,9.2204,9.296,9.3748,9.5682,9.6618,9.6763,9.8124,9.8443,9.797,9.7768,9.7704,9.7823,9.7283,9.75,9.8287,9.8809,9.808,9.6726,9.6435,9.5147,9.3482,9.2737,9.206,9.1379,9.0625,8.9899,8.9237,8.86,8.7473,8.6309,8.5445,8.5158,8.4894,8.399,8.3926,8.4057,8.3815,8.4156,8.4548,8.445,8.5062,8.5994,8.7176,8.8779,9.0296,9.139,9.3501,9.575,9.7783,9.9778,10.1584,10.3206,10.5388,10.708,10.7708,11.03,11.222,11.2797,11.3822,11.4398,11.4598,11.4594,11.4178,11.3481,11.3599,11.2879,11.1305,11.0594,10.9803,10.8911,10.8488,10.8514,10.8607,10.6011,10.3215,0.0,0.0,0.0,0.0,0.0,6.305,0.0,0.0,0.0,6.3504,6.3033,6.275,6.4405,6.4788,6.5413,6.7252,7.0695,7.306,7.2897,7.95,8.561,8.8986,8.8194,8.7895,8.936,8.8188,8.7433,8.772,8.5616,8.5044,8.6687,8.712,8.7644,8.8365,8.9334,9.0294,9.1096,9.1487,9.2274,9.3451,9.4451,9.5404,9.6291,9.706,9.7159,9.6714,9.6061,9.5883,9.6068,9.5437,9.4767,9.4103,9.5326,9.5032,9.3848,9.3253,9.2131,9.0708,8.9739,8.9181,8.8682,8.7801,8.7426,8.7179,8.6049,8.4864,8.3921,8.3678,8.37,8.368,8.3397,8.3278,8.3312,8.3491,8.3934,8.4337,8.4443,8.4981,8.5948,8.7616,8.8679,8.9828,9.149,9.3764,9.5881,9.7503,9.9663,10.1613,10.301,10.5395,10.7113,10.7501,11.0578,11.2383,11.2112,11.3492,11.4208,11.3805,11.3522,11.3186,11.2693,11.1971,11.0889,10.9575,10.8471,10.7265,10.5999,10.4508,10.4632,10.6175,10.3017,10.001,0.0,0.0,0.0,0.0,6.4319,0.0,0.0,0.0,5.723,5.502,0.0,5.5068,5.5265,0.0,0.0,5.7486,6.2336,6.6004,6.6177,6.9509,7.3868,7.9068,8.155,8.2927,8.3147,8.04,8.0716,8.5771,8.2436,8.1901,8.5806,8.7332,8.7917,8.7586,8.8517,8.9573,9.076,9.0875,9.1788,9.3488,9.4205,9.4518,9.4517,9.4663,9.4485,9.3966,9.3226,9.3031,9.3226,9.2682,9.1928,9.1418,9.4088,9.3319,9.0761,9.0945,9.005,8.8526,8.7142,8.6771,8.6707,8.5386,8.4164,8.3253,8.3209,8.2281,8.1375,8.2108,8.204,8.1703,8.1528,8.1404,8.141,8.1773,8.1726,8.1849,8.2967,8.3541,8.4492,8.6642,8.8259,9.0019,9.2315,9.4024,9.5609,9.727,9.9474,10.1178,10.211,10.4904,10.6888,10.6783,10.9685,11.152,11.1284,11.2507,11.3225,11.2886,11.3203,11.2785,11.1373,11.0176,10.9293,10.866,10.7294,10.6103,10.5117,10.2225,10.1198,10.1896,9.9367,9.6237,0.0,0.0,0.0,0.0,0.0,0.0,0.0,0.0,5.3623,0.0,0.0,0.0,0.0,0.0,0.0,0.0,5.6713,5.9107,5.9073,6.2058,6.6953,7.424,7.5164,7.6272,7.8804,7.7684,7.8475,8.2673,7.9998,7.9873,8.3909,8.5666,8.6601,8.6624,8.7718,8.8665,8.9437,8.9676,9.0324,9.129,9.2059,9.2427,9.2495,9.3044,9.2998,9.2458,9.1709,9.1301,9.1062,9.037,8.9339,8.8351,8.9727,8.928,8.7839,8.7503,8.6528,8.5151,8.4116,8.3675,8.3536,8.3209,8.2397,8.166,8.2429,8.198,8.1212,8.1597,8.175,8.1718,8.1407,8.1381,8.1426,8.1389,8.1267,8.1257,8.15,8.2313,8.3588,8.5404,8.7012,8.8872,9.1157,9.3567,9.544,9.6262,9.8719,10.0499,10.081,10.3706,10.5704,10.5604,10.8593,11.0387,11.001,11.1415,11.2095,11.1526,11.1383,11.0773,10.9329,10.8583,10.7396,10.557,10.4177,10.2411,10.0113,9.803,9.6157,9.4486,9.4387,9.2303,6.8682,0.0,0.0,0.0,0.0,0.0,0.0,0.0,0.0,0.0,0.0,0.0,0.0,0.0,4.9682,5.0579,0.0,5.3323,5.334,5.5716,6.0404,6.82,6.8825,7.0136,7.3891,7.2983,7.4022,7.8637,7.6654,7.7351,8.2282,8.4414,8.5716,8.6244,8.7361,8.8191,8.865,8.8947,8.9382,8.9904,9.0359,9.0721,9.1098,9.1239,9.1177,9.087,8.9913,8.9248,8.8794,8.8193,8.7034,8.5661,8.5889,8.5449,8.4581,8.4391,8.3614,8.2528,8.1565,8.1129,8.1073,8.1423,8.1133,8.0821,8.1943,8.1661,8.1002,8.1263,8.1487,8.1573,8.1092,8.106,8.1089,8.0695,8.0499,8.0406,8.0394,8.1225,8.2471,8.4131,8.5596,8.7209,8.926,9.2467,9.4765,9.4983,9.7505,9.9463,9.9722,10.2494,10.4413,10.459,10.7519,10.921,10.8603,11.0104,11.0824,11.002,10.9306,10.8274,10.6991,10.6309,10.4682,10.2178,10.09,9.8704,9.5705,9.3972,9.1475,8.8384,8.9488,8.8017,0.0,0.0,0.0,6.0381,0.0,0.0,0.0,0.0,5.2571,0.0,0.0,0.0,0.0,4.8244,0.0,0.0,4.8511,0.0,0.0,5.0387,5.3006,5.8835,6.2446,6.5306,6.743,6.3801,6.4847,7.3392,7.1665,7.3624,8.15,8.4344,8.6005,8.6646,8.7676,8.8497,8.9094,8.9094,8.9557,9.0467,8.9975,9.0076,9.0652,8.8858,8.8391,8.8908,8.7247,8.6402,8.6119,8.6019,8.5105,8.38,8.3872,8.252,8.0716,8.201,8.207,8.1325,7.9818,7.9607,8.006,8.0163,8.0284,8.0534,8.123,8.0652,7.9951,8.0837,8.0888,8.052,7.9977,7.9712,7.9524,7.9227,7.8614,7.8453,7.9719,8.0233,8.1043,8.2979,8.4076,8.5223,8.6946,9.0528,9.3265,9.3549,9.5857,9.796,9.9008,10.1306,10.3212,10.4189,10.6494,10.77,10.7191,10.8593,10.9195,10.8394,10.6901,10.5583,10.4569,10.279,10.0998,9.9167,9.7687,9.5831,9.3488,9.0769,8.792,8.4969,8.5164,8.355,0.0,0.0,7.1445,6.4027,0.0,0.0,0.0,0.0,0.0,0.0,0.0,0.0,0.0,0.0,0.0,0.0,0.0,4.6681,0.0,4.7407,4.9225,5.1186,5.7421,6.1074,5.99,6.111,6.396,6.873,6.9328,7.2234,7.8639,8.1523,8.3241,8.3696,8.49,8.5803,8.6387,8.6656,8.7074,8.7719,8.7571,8.7615,8.7979,8.7517,8.7182,8.6944,8.6038,8.5301,8.4777,8.4205,8.3408,8.2512,8.2624,8.158,8.0103,8.0811,8.0389,7.9402,7.9103,7.8762,7.8645,7.9817,8.0297,8.0509,8.0676,8.0109,7.9342,7.8966,7.829,7.7631,7.7176,7.6768,7.6534,7.686,7.6007,7.5501,7.6486,7.6901,7.7432,7.8659,8.065,8.265,8.4182,8.687,8.9504,9.1361,9.4115,9.6344,9.7452,9.9501,10.1292,10.2199,10.4874,10.6096,10.4619,10.5128,10.5798,10.6268,10.459,10.3429,10.273,10.0805,9.8672,9.6124,9.4315,9.1899,8.8716,8.6615,8.3773,8.0307,7.8089,7.6832,7.3347,7.3225,0.0,6.5867,6.3294,0.0,5.456,0.0,0.0,0.0,0.0,0.0,0.0,0.0,0.0,0.0,0.0,0.0,0.0,4.5439,4.6717,4.6454,5.2404,5.5926,5.4497,5.6507,6.008,6.5333,6.6389,6.9848,7.6909,7.9467,8.1274,8.2536,8.3532,8.4289,8.483,8.5149,8.557,8.6019,8.6036,8.6309,8.682,8.6473,8.6146,8.5799,8.4918,8.4191,8.356,8.3055,8.2401,8.1769,8.1884,8.095,7.9629,8.0136,7.9426,7.8247,7.8395,7.8243,7.8199,7.9371,7.9718,7.9572,7.8783,7.7649,7.6505,7.549,7.4298,7.3342,7.3393,7.3117,7.2737,7.2736,7.2108,7.1738,7.2459,7.3168,7.4169,7.5542,7.782,8.0011,8.1409,8.3505,8.6146,8.9399,9.2262,9.4572,9.5912,9.7967,9.9795,10.1133,10.35,10.4614,10.3812,10.3602,10.3679,10.4419,10.23,10.0669,9.9874,9.7592,9.5082,9.2167,9.0446,8.7759,8.4153,8.2389,7.9591,7.5952,7.2536,7.0673]}]]